<?xml version="1.0" encoding="UTF-8" standalone="no" ?>
<gpx xmlns="http://www.topografix.com/GPX/1/1" xmlns:xsi="http://www.w3.org/2001/XMLSchema-instance" xsi:schemaLocation="http://www.topografix.com/GPX/1/1 http://www.topografix.com/GPX/1/1/gpx.xsd" version="1.1" creator="VisuGPX - https://www.visugpx.com">
  <metadata>
    <name>briollay/ montreuil juigné</name>
    <desc><![CDATA[petite rando sympas]]></desc>
  </metadata>
  <trk>
    <name><![CDATA[01-AVR-12 13:39:07]]></name>
    <trkseg>
      <trkpt lat="47.56998" lon="-0.50265">
        <ele>-5.63</ele>
        <time>2012-04-01T08:40:23Z</time>
      </trkpt>
      <trkpt lat="47.57" lon="-0.50263">
        <ele>-5.63</ele>
        <time>2012-04-01T08:40:27Z</time>
      </trkpt>
      <trkpt lat="47.57002" lon="-0.50253">
        <ele>-5.63</ele>
        <time>2012-04-01T08:40:39Z</time>
      </trkpt>
      <trkpt lat="47.57003" lon="-0.50251">
        <ele>-2.27</ele>
        <time>2012-04-01T08:40:42Z</time>
      </trkpt>
      <trkpt lat="47.57003" lon="-0.5025">
        <ele>2.06</ele>
        <time>2012-04-01T08:40:46Z</time>
      </trkpt>
      <trkpt lat="47.57003" lon="-0.50249">
        <ele>5.42</ele>
        <time>2012-04-01T08:40:50Z</time>
      </trkpt>
      <trkpt lat="47.57003" lon="-0.50247">
        <ele>7.83</ele>
        <time>2012-04-01T08:40:53Z</time>
      </trkpt>
      <trkpt lat="47.57004" lon="-0.50247">
        <ele>11.19</ele>
        <time>2012-04-01T08:40:58Z</time>
      </trkpt>
      <trkpt lat="47.57005" lon="-0.50247">
        <ele>13.6</ele>
        <time>2012-04-01T08:41:02Z</time>
      </trkpt>
      <trkpt lat="47.57004" lon="-0.50249">
        <ele>16.48</ele>
        <time>2012-04-01T08:41:05Z</time>
      </trkpt>
      <trkpt lat="47.57" lon="-0.50264">
        <ele>19.84</ele>
        <time>2012-04-01T08:41:11Z</time>
      </trkpt>
      <trkpt lat="47.57" lon="-0.50268">
        <ele>20.32</ele>
        <time>2012-04-01T08:41:12Z</time>
      </trkpt>
      <trkpt lat="47.56999" lon="-0.50276">
        <ele>21.29</ele>
        <time>2012-04-01T08:41:14Z</time>
      </trkpt>
      <trkpt lat="47.56979" lon="-0.50312">
        <ele>23.69</ele>
        <time>2012-04-01T08:41:21Z</time>
      </trkpt>
      <trkpt lat="47.56964" lon="-0.5034">
        <ele>23.69</ele>
        <time>2012-04-01T08:41:25Z</time>
      </trkpt>
      <trkpt lat="47.56954" lon="-0.50354">
        <ele>23.21</ele>
        <time>2012-04-01T08:41:27Z</time>
      </trkpt>
      <trkpt lat="47.56925" lon="-0.50358">
        <ele>22.73</ele>
        <time>2012-04-01T08:41:31Z</time>
      </trkpt>
      <trkpt lat="47.56917" lon="-0.50351">
        <ele>21.77</ele>
        <time>2012-04-01T08:41:32Z</time>
      </trkpt>
      <trkpt lat="47.56873" lon="-0.5031">
        <ele>17.92</ele>
        <time>2012-04-01T08:41:37Z</time>
      </trkpt>
      <trkpt lat="47.56832" lon="-0.50298">
        <ele>16.48</ele>
        <time>2012-04-01T08:41:41Z</time>
      </trkpt>
      <trkpt lat="47.56804" lon="-0.50316">
        <ele>16</ele>
        <time>2012-04-01T08:41:44Z</time>
      </trkpt>
      <trkpt lat="47.56797" lon="-0.50326">
        <ele>15.52</ele>
        <time>2012-04-01T08:41:45Z</time>
      </trkpt>
      <trkpt lat="47.56763" lon="-0.50389">
        <ele>15.52</ele>
        <time>2012-04-01T08:41:51Z</time>
      </trkpt>
      <trkpt lat="47.56731" lon="-0.50467">
        <ele>15.52</ele>
        <time>2012-04-01T08:41:59Z</time>
      </trkpt>
      <trkpt lat="47.56721" lon="-0.50509">
        <ele>16</ele>
        <time>2012-04-01T08:42:04Z</time>
      </trkpt>
      <trkpt lat="47.5672" lon="-0.50523">
        <ele>16.48</ele>
        <time>2012-04-01T08:42:08Z</time>
      </trkpt>
      <trkpt lat="47.56714" lon="-0.50539">
        <ele>16.48</ele>
        <time>2012-04-01T08:42:13Z</time>
      </trkpt>
      <trkpt lat="47.56711" lon="-0.50549">
        <ele>16</ele>
        <time>2012-04-01T08:42:15Z</time>
      </trkpt>
      <trkpt lat="47.56708" lon="-0.50583">
        <ele>16.48</ele>
        <time>2012-04-01T08:42:20Z</time>
      </trkpt>
      <trkpt lat="47.56712" lon="-0.50603">
        <ele>16.48</ele>
        <time>2012-04-01T08:42:23Z</time>
      </trkpt>
      <trkpt lat="47.56731" lon="-0.50665">
        <ele>15.52</ele>
        <time>2012-04-01T08:42:31Z</time>
      </trkpt>
      <trkpt lat="47.56743" lon="-0.50705">
        <ele>14.56</ele>
        <time>2012-04-01T08:42:36Z</time>
      </trkpt>
      <trkpt lat="47.56759" lon="-0.5073">
        <ele>13.6</ele>
        <time>2012-04-01T08:42:41Z</time>
      </trkpt>
      <trkpt lat="47.56769" lon="-0.50722">
        <ele>14.56</ele>
        <time>2012-04-01T08:42:44Z</time>
      </trkpt>
      <trkpt lat="47.56782" lon="-0.50702">
        <ele>15.04</ele>
        <time>2012-04-01T08:42:48Z</time>
      </trkpt>
      <trkpt lat="47.5681" lon="-0.50686">
        <ele>14.56</ele>
        <time>2012-04-01T08:42:54Z</time>
      </trkpt>
      <trkpt lat="47.56827" lon="-0.50669">
        <ele>14.56</ele>
        <time>2012-04-01T08:42:58Z</time>
      </trkpt>
      <trkpt lat="47.56853" lon="-0.50664">
        <ele>14.08</ele>
        <time>2012-04-01T08:43:03Z</time>
      </trkpt>
      <trkpt lat="47.56859" lon="-0.50663">
        <ele>14.56</ele>
        <time>2012-04-01T08:43:04Z</time>
      </trkpt>
      <trkpt lat="47.56882" lon="-0.50658">
        <ele>13.6</ele>
        <time>2012-04-01T08:43:08Z</time>
      </trkpt>
      <trkpt lat="47.56905" lon="-0.50664">
        <ele>14.08</ele>
        <time>2012-04-01T08:43:12Z</time>
      </trkpt>
      <trkpt lat="47.56922" lon="-0.5067">
        <ele>14.08</ele>
        <time>2012-04-01T08:43:15Z</time>
      </trkpt>
      <trkpt lat="47.56938" lon="-0.50667">
        <ele>14.08</ele>
        <time>2012-04-01T08:43:18Z</time>
      </trkpt>
      <trkpt lat="47.56941" lon="-0.50646">
        <ele>13.12</ele>
        <time>2012-04-01T08:43:22Z</time>
      </trkpt>
      <trkpt lat="47.56938" lon="-0.50632">
        <ele>13.12</ele>
        <time>2012-04-01T08:43:24Z</time>
      </trkpt>
      <trkpt lat="47.56943" lon="-0.50601">
        <ele>14.08</ele>
        <time>2012-04-01T08:43:29Z</time>
      </trkpt>
      <trkpt lat="47.56947" lon="-0.50599">
        <ele>14.56</ele>
        <time>2012-04-01T08:43:30Z</time>
      </trkpt>
      <trkpt lat="47.56971" lon="-0.50591">
        <ele>14.08</ele>
        <time>2012-04-01T08:43:35Z</time>
      </trkpt>
      <trkpt lat="47.56981" lon="-0.50587">
        <ele>7.35</ele>
        <time>2012-04-01T08:43:37Z</time>
      </trkpt>
      <trkpt lat="47.56986" lon="-0.50585">
        <ele>15.52</ele>
        <time>2012-04-01T08:43:38Z</time>
      </trkpt>
      <trkpt lat="47.57011" lon="-0.50582">
        <ele>14.08</ele>
        <time>2012-04-01T08:43:43Z</time>
      </trkpt>
      <trkpt lat="47.57021" lon="-0.50578">
        <ele>14.08</ele>
        <time>2012-04-01T08:43:45Z</time>
      </trkpt>
      <trkpt lat="47.57031" lon="-0.50573">
        <ele>13.6</ele>
        <time>2012-04-01T08:43:47Z</time>
      </trkpt>
      <trkpt lat="47.57079" lon="-0.50545">
        <ele>14.08</ele>
        <time>2012-04-01T08:43:57Z</time>
      </trkpt>
      <trkpt lat="47.57122" lon="-0.50524">
        <ele>14.08</ele>
        <time>2012-04-01T08:44:05Z</time>
      </trkpt>
      <trkpt lat="47.57159" lon="-0.50501">
        <ele>13.6</ele>
        <time>2012-04-01T08:44:12Z</time>
      </trkpt>
      <trkpt lat="47.57201" lon="-0.50467">
        <ele>14.56</ele>
        <time>2012-04-01T08:44:20Z</time>
      </trkpt>
      <trkpt lat="47.57242" lon="-0.50429">
        <ele>13.12</ele>
        <time>2012-04-01T08:44:29Z</time>
      </trkpt>
      <trkpt lat="47.57292" lon="-0.50389">
        <ele>13.6</ele>
        <time>2012-04-01T08:44:39Z</time>
      </trkpt>
      <trkpt lat="47.57336" lon="-0.50359">
        <ele>13.6</ele>
        <time>2012-04-01T08:44:48Z</time>
      </trkpt>
      <trkpt lat="47.5737" lon="-0.50336">
        <ele>13.12</ele>
        <time>2012-04-01T08:44:55Z</time>
      </trkpt>
      <trkpt lat="47.57415" lon="-0.50309">
        <ele>13.6</ele>
        <time>2012-04-01T08:45:04Z</time>
      </trkpt>
      <trkpt lat="47.57445" lon="-0.50292">
        <ele>13.12</ele>
        <time>2012-04-01T08:45:10Z</time>
      </trkpt>
      <trkpt lat="47.57466" lon="-0.50284">
        <ele>13.12</ele>
        <time>2012-04-01T08:45:14Z</time>
      </trkpt>
      <trkpt lat="47.57516" lon="-0.5027">
        <ele>14.08</ele>
        <time>2012-04-01T08:45:23Z</time>
      </trkpt>
      <trkpt lat="47.57559" lon="-0.5026">
        <ele>13.12</ele>
        <time>2012-04-01T08:45:31Z</time>
      </trkpt>
      <trkpt lat="47.57579" lon="-0.50256">
        <ele>13.6</ele>
        <time>2012-04-01T08:45:35Z</time>
      </trkpt>
      <trkpt lat="47.57627" lon="-0.5024">
        <ele>13.6</ele>
        <time>2012-04-01T08:45:44Z</time>
      </trkpt>
      <trkpt lat="47.57675" lon="-0.50224">
        <ele>13.12</ele>
        <time>2012-04-01T08:45:53Z</time>
      </trkpt>
      <trkpt lat="47.5768" lon="-0.50223">
        <ele>12.63</ele>
        <time>2012-04-01T08:45:54Z</time>
      </trkpt>
      <trkpt lat="47.57693" lon="-0.50237">
        <ele>12.63</ele>
        <time>2012-04-01T08:45:58Z</time>
      </trkpt>
      <trkpt lat="47.57695" lon="-0.50251">
        <ele>12.15</ele>
        <time>2012-04-01T08:46:00Z</time>
      </trkpt>
      <trkpt lat="47.57704" lon="-0.50335">
        <ele>11.19</ele>
        <time>2012-04-01T08:46:10Z</time>
      </trkpt>
      <trkpt lat="47.5771" lon="-0.50412">
        <ele>10.71</ele>
        <time>2012-04-01T08:46:19Z</time>
      </trkpt>
      <trkpt lat="47.57724" lon="-0.50505">
        <ele>10.71</ele>
        <time>2012-04-01T08:46:30Z</time>
      </trkpt>
      <trkpt lat="47.57735" lon="-0.50571">
        <ele>10.71</ele>
        <time>2012-04-01T08:46:38Z</time>
      </trkpt>
      <trkpt lat="47.57736" lon="-0.50629">
        <ele>11.19</ele>
        <time>2012-04-01T08:46:45Z</time>
      </trkpt>
      <trkpt lat="47.57738" lon="-0.50689">
        <ele>11.19</ele>
        <time>2012-04-01T08:46:53Z</time>
      </trkpt>
      <trkpt lat="47.5775" lon="-0.50713">
        <ele>12.15</ele>
        <time>2012-04-01T08:46:58Z</time>
      </trkpt>
      <trkpt lat="47.57771" lon="-0.50717">
        <ele>11.67</ele>
        <time>2012-04-01T08:47:04Z</time>
      </trkpt>
      <trkpt lat="47.57777" lon="-0.50718">
        <ele>11.67</ele>
        <time>2012-04-01T08:47:09Z</time>
      </trkpt>
      <trkpt lat="47.57778" lon="-0.50718">
        <ele>11.19</ele>
        <time>2012-04-01T08:47:16Z</time>
      </trkpt>
      <trkpt lat="47.57786" lon="-0.50718">
        <ele>12.15</ele>
        <time>2012-04-01T08:47:21Z</time>
      </trkpt>
      <trkpt lat="47.57795" lon="-0.50718">
        <ele>11.67</ele>
        <time>2012-04-01T08:47:23Z</time>
      </trkpt>
      <trkpt lat="47.57812" lon="-0.50719">
        <ele>12.63</ele>
        <time>2012-04-01T08:47:27Z</time>
      </trkpt>
      <trkpt lat="47.57848" lon="-0.50718">
        <ele>12.15</ele>
        <time>2012-04-01T08:47:34Z</time>
      </trkpt>
      <trkpt lat="47.57853" lon="-0.50718">
        <ele>11.67</ele>
        <time>2012-04-01T08:47:35Z</time>
      </trkpt>
      <trkpt lat="47.57893" lon="-0.50717">
        <ele>12.15</ele>
        <time>2012-04-01T08:47:43Z</time>
      </trkpt>
      <trkpt lat="47.57913" lon="-0.50717">
        <ele>12.15</ele>
        <time>2012-04-01T08:47:47Z</time>
      </trkpt>
      <trkpt lat="47.5795" lon="-0.50711">
        <ele>12.15</ele>
        <time>2012-04-01T08:47:54Z</time>
      </trkpt>
      <trkpt lat="47.57955" lon="-0.5071">
        <ele>12.15</ele>
        <time>2012-04-01T08:47:55Z</time>
      </trkpt>
      <trkpt lat="47.57975" lon="-0.50705">
        <ele>11.67</ele>
        <time>2012-04-01T08:47:59Z</time>
      </trkpt>
      <trkpt lat="47.5799" lon="-0.50698">
        <ele>12.63</ele>
        <time>2012-04-01T08:48:02Z</time>
      </trkpt>
      <trkpt lat="47.58014" lon="-0.50691">
        <ele>12.15</ele>
        <time>2012-04-01T08:48:07Z</time>
      </trkpt>
      <trkpt lat="47.5804" lon="-0.50676">
        <ele>12.15</ele>
        <time>2012-04-01T08:48:14Z</time>
      </trkpt>
      <trkpt lat="47.58044" lon="-0.50674">
        <ele>11.67</ele>
        <time>2012-04-01T08:48:19Z</time>
      </trkpt>
      <trkpt lat="47.58044" lon="-0.50674">
        <ele>11.67</ele>
        <time>2012-04-01T08:48:22Z</time>
      </trkpt>
      <trkpt lat="47.58045" lon="-0.50673">
        <ele>11.67</ele>
        <time>2012-04-01T08:48:29Z</time>
      </trkpt>
      <trkpt lat="47.58045" lon="-0.50673">
        <ele>11.67</ele>
        <time>2012-04-01T08:48:32Z</time>
      </trkpt>
      <trkpt lat="47.58056" lon="-0.50666">
        <ele>11.67</ele>
        <time>2012-04-01T08:48:37Z</time>
      </trkpt>
      <trkpt lat="47.58064" lon="-0.50658">
        <ele>12.15</ele>
        <time>2012-04-01T08:48:40Z</time>
      </trkpt>
      <trkpt lat="47.58086" lon="-0.5064">
        <ele>12.15</ele>
        <time>2012-04-01T08:48:46Z</time>
      </trkpt>
      <trkpt lat="47.58094" lon="-0.50633">
        <ele>12.15</ele>
        <time>2012-04-01T08:48:48Z</time>
      </trkpt>
      <trkpt lat="47.58116" lon="-0.50605">
        <ele>13.12</ele>
        <time>2012-04-01T08:48:55Z</time>
      </trkpt>
      <trkpt lat="47.58132" lon="-0.50593">
        <ele>13.12</ele>
        <time>2012-04-01T08:48:59Z</time>
      </trkpt>
      <trkpt lat="47.58142" lon="-0.50587">
        <ele>12.63</ele>
        <time>2012-04-01T08:49:01Z</time>
      </trkpt>
      <trkpt lat="47.5816" lon="-0.50576">
        <ele>11.67</ele>
        <time>2012-04-01T08:49:04Z</time>
      </trkpt>
      <trkpt lat="47.58182" lon="-0.50562">
        <ele>12.63</ele>
        <time>2012-04-01T08:49:08Z</time>
      </trkpt>
      <trkpt lat="47.58211" lon="-0.50543">
        <ele>12.15</ele>
        <time>2012-04-01T08:49:14Z</time>
      </trkpt>
      <trkpt lat="47.58247" lon="-0.5052">
        <ele>12.63</ele>
        <time>2012-04-01T08:49:21Z</time>
      </trkpt>
      <trkpt lat="47.58272" lon="-0.50504">
        <ele>12.63</ele>
        <time>2012-04-01T08:49:26Z</time>
      </trkpt>
      <trkpt lat="47.58298" lon="-0.50486">
        <ele>12.63</ele>
        <time>2012-04-01T08:49:32Z</time>
      </trkpt>
      <trkpt lat="47.58311" lon="-0.50478">
        <ele>12.15</ele>
        <time>2012-04-01T08:49:35Z</time>
      </trkpt>
      <trkpt lat="47.58352" lon="-0.50449">
        <ele>12.63</ele>
        <time>2012-04-01T08:49:44Z</time>
      </trkpt>
      <trkpt lat="47.58357" lon="-0.50446">
        <ele>12.15</ele>
        <time>2012-04-01T08:49:45Z</time>
      </trkpt>
      <trkpt lat="47.5838" lon="-0.50426">
        <ele>12.15</ele>
        <time>2012-04-01T08:49:51Z</time>
      </trkpt>
      <trkpt lat="47.58396" lon="-0.5041">
        <ele>12.15</ele>
        <time>2012-04-01T08:49:56Z</time>
      </trkpt>
      <trkpt lat="47.58417" lon="-0.5039">
        <ele>13.12</ele>
        <time>2012-04-01T08:50:01Z</time>
      </trkpt>
      <trkpt lat="47.58441" lon="-0.50368">
        <ele>13.12</ele>
        <time>2012-04-01T08:50:07Z</time>
      </trkpt>
      <trkpt lat="47.58449" lon="-0.5036">
        <ele>13.12</ele>
        <time>2012-04-01T08:50:09Z</time>
      </trkpt>
      <trkpt lat="47.5846" lon="-0.50347">
        <ele>12.63</ele>
        <time>2012-04-01T08:50:12Z</time>
      </trkpt>
      <trkpt lat="47.58482" lon="-0.50318">
        <ele>12.63</ele>
        <time>2012-04-01T08:50:18Z</time>
      </trkpt>
      <trkpt lat="47.58497" lon="-0.50297">
        <ele>12.15</ele>
        <time>2012-04-01T08:50:22Z</time>
      </trkpt>
      <trkpt lat="47.58519" lon="-0.50271">
        <ele>12.63</ele>
        <time>2012-04-01T08:50:28Z</time>
      </trkpt>
      <trkpt lat="47.58522" lon="-0.50268">
        <ele>13.12</ele>
        <time>2012-04-01T08:50:29Z</time>
      </trkpt>
      <trkpt lat="47.58535" lon="-0.50249">
        <ele>12.15</ele>
        <time>2012-04-01T08:50:35Z</time>
      </trkpt>
      <trkpt lat="47.58538" lon="-0.50243">
        <ele>4.46</ele>
        <time>2012-04-01T08:50:39Z</time>
      </trkpt>
      <trkpt lat="47.58538" lon="-0.50243">
        <ele>6.87</ele>
        <time>2012-04-01T08:50:40Z</time>
      </trkpt>
      <trkpt lat="47.58538" lon="-0.50243">
        <ele>12.15</ele>
        <time>2012-04-01T08:50:41Z</time>
      </trkpt>
      <trkpt lat="47.58538" lon="-0.50243">
        <ele>12.15</ele>
        <time>2012-04-01T08:50:42Z</time>
      </trkpt>
      <trkpt lat="47.5854" lon="-0.50243">
        <ele>16</ele>
        <time>2012-04-01T08:50:44Z</time>
      </trkpt>
      <trkpt lat="47.5854" lon="-0.50243">
        <ele>8.79</ele>
        <time>2012-04-01T08:50:45Z</time>
      </trkpt>
      <trkpt lat="47.58541" lon="-0.50243">
        <ele>14.08</ele>
        <time>2012-04-01T08:50:46Z</time>
      </trkpt>
      <trkpt lat="47.58542" lon="-0.5024">
        <ele>17.92</ele>
        <time>2012-04-01T08:50:47Z</time>
      </trkpt>
      <trkpt lat="47.58541" lon="-0.50239">
        <ele>13.12</ele>
        <time>2012-04-01T08:50:48Z</time>
      </trkpt>
      <trkpt lat="47.58541" lon="-0.50239">
        <ele>12.15</ele>
        <time>2012-04-01T08:50:50Z</time>
      </trkpt>
      <trkpt lat="47.58541" lon="-0.50239">
        <ele>12.15</ele>
        <time>2012-04-01T08:50:59Z</time>
      </trkpt>
      <trkpt lat="47.58541" lon="-0.50239">
        <ele>11.67</ele>
        <time>2012-04-01T08:51:17Z</time>
      </trkpt>
      <trkpt lat="47.58545" lon="-0.50228">
        <ele>12.63</ele>
        <time>2012-04-01T08:51:22Z</time>
      </trkpt>
      <trkpt lat="47.58552" lon="-0.50213">
        <ele>12.63</ele>
        <time>2012-04-01T08:51:26Z</time>
      </trkpt>
      <trkpt lat="47.58562" lon="-0.50184">
        <ele>13.12</ele>
        <time>2012-04-01T08:51:31Z</time>
      </trkpt>
      <trkpt lat="47.58566" lon="-0.5017">
        <ele>13.12</ele>
        <time>2012-04-01T08:51:33Z</time>
      </trkpt>
      <trkpt lat="47.58578" lon="-0.50139">
        <ele>12.63</ele>
        <time>2012-04-01T08:51:38Z</time>
      </trkpt>
      <trkpt lat="47.58585" lon="-0.50115">
        <ele>12.63</ele>
        <time>2012-04-01T08:51:42Z</time>
      </trkpt>
      <trkpt lat="47.58592" lon="-0.50095">
        <ele>13.12</ele>
        <time>2012-04-01T08:51:45Z</time>
      </trkpt>
      <trkpt lat="47.58604" lon="-0.50067">
        <ele>13.12</ele>
        <time>2012-04-01T08:51:49Z</time>
      </trkpt>
      <trkpt lat="47.5861" lon="-0.50052">
        <ele>12.63</ele>
        <time>2012-04-01T08:51:51Z</time>
      </trkpt>
      <trkpt lat="47.58634" lon="-0.49997">
        <ele>12.63</ele>
        <time>2012-04-01T08:51:59Z</time>
      </trkpt>
      <trkpt lat="47.58647" lon="-0.49961">
        <ele>13.12</ele>
        <time>2012-04-01T08:52:04Z</time>
      </trkpt>
      <trkpt lat="47.5867" lon="-0.49902">
        <ele>13.12</ele>
        <time>2012-04-01T08:52:12Z</time>
      </trkpt>
      <trkpt lat="47.58676" lon="-0.49886">
        <ele>13.12</ele>
        <time>2012-04-01T08:52:14Z</time>
      </trkpt>
      <trkpt lat="47.58682" lon="-0.49871">
        <ele>13.12</ele>
        <time>2012-04-01T08:52:16Z</time>
      </trkpt>
      <trkpt lat="47.58699" lon="-0.49832">
        <ele>12.63</ele>
        <time>2012-04-01T08:52:22Z</time>
      </trkpt>
      <trkpt lat="47.58705" lon="-0.49822">
        <ele>12.63</ele>
        <time>2012-04-01T08:52:28Z</time>
      </trkpt>
      <trkpt lat="47.58707" lon="-0.49818">
        <ele>12.15</ele>
        <time>2012-04-01T08:52:34Z</time>
      </trkpt>
      <trkpt lat="47.58709" lon="-0.49818">
        <ele>12.15</ele>
        <time>2012-04-01T08:52:40Z</time>
      </trkpt>
      <trkpt lat="47.5871" lon="-0.49816">
        <ele>12.15</ele>
        <time>2012-04-01T08:52:41Z</time>
      </trkpt>
      <trkpt lat="47.58709" lon="-0.49804">
        <ele>12.15</ele>
        <time>2012-04-01T08:52:45Z</time>
      </trkpt>
      <trkpt lat="47.58713" lon="-0.49779">
        <ele>11.67</ele>
        <time>2012-04-01T08:52:50Z</time>
      </trkpt>
      <trkpt lat="47.58715" lon="-0.49775">
        <ele>12.15</ele>
        <time>2012-04-01T08:52:51Z</time>
      </trkpt>
      <trkpt lat="47.5873" lon="-0.49762">
        <ele>13.6</ele>
        <time>2012-04-01T08:52:56Z</time>
      </trkpt>
      <trkpt lat="47.58741" lon="-0.49739">
        <ele>12.63</ele>
        <time>2012-04-01T08:53:01Z</time>
      </trkpt>
      <trkpt lat="47.58749" lon="-0.49712">
        <ele>12.63</ele>
        <time>2012-04-01T08:53:05Z</time>
      </trkpt>
      <trkpt lat="47.58763" lon="-0.49678">
        <ele>13.12</ele>
        <time>2012-04-01T08:53:10Z</time>
      </trkpt>
      <trkpt lat="47.58773" lon="-0.49641">
        <ele>12.15</ele>
        <time>2012-04-01T08:53:15Z</time>
      </trkpt>
      <trkpt lat="47.58785" lon="-0.49613">
        <ele>12.15</ele>
        <time>2012-04-01T08:53:19Z</time>
      </trkpt>
      <trkpt lat="47.58792" lon="-0.49592">
        <ele>12.63</ele>
        <time>2012-04-01T08:53:22Z</time>
      </trkpt>
      <trkpt lat="47.58798" lon="-0.49577">
        <ele>12.15</ele>
        <time>2012-04-01T08:53:24Z</time>
      </trkpt>
      <trkpt lat="47.58811" lon="-0.49547">
        <ele>13.12</ele>
        <time>2012-04-01T08:53:28Z</time>
      </trkpt>
      <trkpt lat="47.5883" lon="-0.49513">
        <ele>12.63</ele>
        <time>2012-04-01T08:53:33Z</time>
      </trkpt>
      <trkpt lat="47.58865" lon="-0.49462">
        <ele>12.63</ele>
        <time>2012-04-01T08:53:41Z</time>
      </trkpt>
      <trkpt lat="47.58875" lon="-0.49442">
        <ele>13.12</ele>
        <time>2012-04-01T08:53:44Z</time>
      </trkpt>
      <trkpt lat="47.58906" lon="-0.49398">
        <ele>12.63</ele>
        <time>2012-04-01T08:53:51Z</time>
      </trkpt>
      <trkpt lat="47.58949" lon="-0.49365">
        <ele>13.6</ele>
        <time>2012-04-01T08:53:59Z</time>
      </trkpt>
      <trkpt lat="47.58982" lon="-0.49347">
        <ele>13.12</ele>
        <time>2012-04-01T08:54:05Z</time>
      </trkpt>
      <trkpt lat="47.58999" lon="-0.49339">
        <ele>12.63</ele>
        <time>2012-04-01T08:54:08Z</time>
      </trkpt>
      <trkpt lat="47.59039" lon="-0.49321">
        <ele>13.12</ele>
        <time>2012-04-01T08:54:15Z</time>
      </trkpt>
      <trkpt lat="47.59076" lon="-0.4931">
        <ele>13.6</ele>
        <time>2012-04-01T08:54:22Z</time>
      </trkpt>
      <trkpt lat="47.59101" lon="-0.49303">
        <ele>13.12</ele>
        <time>2012-04-01T08:54:27Z</time>
      </trkpt>
      <trkpt lat="47.59123" lon="-0.493">
        <ele>12.63</ele>
        <time>2012-04-01T08:54:31Z</time>
      </trkpt>
      <trkpt lat="47.59168" lon="-0.49304">
        <ele>12.63</ele>
        <time>2012-04-01T08:54:39Z</time>
      </trkpt>
      <trkpt lat="47.59221" lon="-0.49319">
        <ele>12.63</ele>
        <time>2012-04-01T08:54:48Z</time>
      </trkpt>
      <trkpt lat="47.59238" lon="-0.49324">
        <ele>13.12</ele>
        <time>2012-04-01T08:54:51Z</time>
      </trkpt>
      <trkpt lat="47.59287" lon="-0.49349">
        <ele>12.15</ele>
        <time>2012-04-01T08:55:00Z</time>
      </trkpt>
      <trkpt lat="47.59292" lon="-0.49352">
        <ele>12.63</ele>
        <time>2012-04-01T08:55:01Z</time>
      </trkpt>
      <trkpt lat="47.59319" lon="-0.49372">
        <ele>12.63</ele>
        <time>2012-04-01T08:55:07Z</time>
      </trkpt>
      <trkpt lat="47.59328" lon="-0.49379">
        <ele>13.12</ele>
        <time>2012-04-01T08:55:09Z</time>
      </trkpt>
      <trkpt lat="47.59371" lon="-0.49421">
        <ele>12.63</ele>
        <time>2012-04-01T08:55:18Z</time>
      </trkpt>
      <trkpt lat="47.59408" lon="-0.49458">
        <ele>12.15</ele>
        <time>2012-04-01T08:55:26Z</time>
      </trkpt>
      <trkpt lat="47.59452" lon="-0.495">
        <ele>11.67</ele>
        <time>2012-04-01T08:55:35Z</time>
      </trkpt>
      <trkpt lat="47.595" lon="-0.49548">
        <ele>13.6</ele>
        <time>2012-04-01T08:55:45Z</time>
      </trkpt>
      <trkpt lat="47.59509" lon="-0.49559">
        <ele>12.63</ele>
        <time>2012-04-01T08:55:47Z</time>
      </trkpt>
      <trkpt lat="47.59542" lon="-0.49615">
        <ele>12.15</ele>
        <time>2012-04-01T08:55:56Z</time>
      </trkpt>
      <trkpt lat="47.59569" lon="-0.49684">
        <ele>12.63</ele>
        <time>2012-04-01T08:56:05Z</time>
      </trkpt>
      <trkpt lat="47.59593" lon="-0.49779">
        <ele>12.63</ele>
        <time>2012-04-01T08:56:16Z</time>
      </trkpt>
      <trkpt lat="47.59613" lon="-0.49869">
        <ele>11.67</ele>
        <time>2012-04-01T08:56:26Z</time>
      </trkpt>
      <trkpt lat="47.59638" lon="-0.49955">
        <ele>12.15</ele>
        <time>2012-04-01T08:56:36Z</time>
      </trkpt>
      <trkpt lat="47.59667" lon="-0.50015">
        <ele>12.15</ele>
        <time>2012-04-01T08:56:44Z</time>
      </trkpt>
      <trkpt lat="47.597" lon="-0.50068">
        <ele>12.15</ele>
        <time>2012-04-01T08:56:52Z</time>
      </trkpt>
      <trkpt lat="47.59738" lon="-0.50129">
        <ele>11.67</ele>
        <time>2012-04-01T08:57:01Z</time>
      </trkpt>
      <trkpt lat="47.59772" lon="-0.50183">
        <ele>11.67</ele>
        <time>2012-04-01T08:57:09Z</time>
      </trkpt>
      <trkpt lat="47.59816" lon="-0.50233">
        <ele>12.15</ele>
        <time>2012-04-01T08:57:18Z</time>
      </trkpt>
      <trkpt lat="47.59873" lon="-0.50291">
        <ele>11.67</ele>
        <time>2012-04-01T08:57:29Z</time>
      </trkpt>
      <trkpt lat="47.59922" lon="-0.5034">
        <ele>13.12</ele>
        <time>2012-04-01T08:57:38Z</time>
      </trkpt>
      <trkpt lat="47.59971" lon="-0.50389">
        <ele>12.15</ele>
        <time>2012-04-01T08:57:47Z</time>
      </trkpt>
      <trkpt lat="47.60018" lon="-0.50437">
        <ele>12.15</ele>
        <time>2012-04-01T08:57:56Z</time>
      </trkpt>
      <trkpt lat="47.60061" lon="-0.50474">
        <ele>12.63</ele>
        <time>2012-04-01T08:58:04Z</time>
      </trkpt>
      <trkpt lat="47.6012" lon="-0.5051">
        <ele>12.15</ele>
        <time>2012-04-01T08:58:14Z</time>
      </trkpt>
      <trkpt lat="47.60168" lon="-0.50537">
        <ele>12.63</ele>
        <time>2012-04-01T08:58:22Z</time>
      </trkpt>
      <trkpt lat="47.60227" lon="-0.50572">
        <ele>12.63</ele>
        <time>2012-04-01T08:58:32Z</time>
      </trkpt>
      <trkpt lat="47.60277" lon="-0.50601">
        <ele>12.15</ele>
        <time>2012-04-01T08:58:41Z</time>
      </trkpt>
      <trkpt lat="47.60316" lon="-0.50625">
        <ele>11.67</ele>
        <time>2012-04-01T08:58:49Z</time>
      </trkpt>
      <trkpt lat="47.60363" lon="-0.50649">
        <ele>12.15</ele>
        <time>2012-04-01T08:58:58Z</time>
      </trkpt>
      <trkpt lat="47.60413" lon="-0.50667">
        <ele>13.12</ele>
        <time>2012-04-01T08:59:07Z</time>
      </trkpt>
      <trkpt lat="47.6047" lon="-0.5068">
        <ele>12.63</ele>
        <time>2012-04-01T08:59:17Z</time>
      </trkpt>
      <trkpt lat="47.60513" lon="-0.50689">
        <ele>12.15</ele>
        <time>2012-04-01T08:59:25Z</time>
      </trkpt>
      <trkpt lat="47.60557" lon="-0.50698">
        <ele>12.15</ele>
        <time>2012-04-01T08:59:33Z</time>
      </trkpt>
      <trkpt lat="47.60593" lon="-0.50705">
        <ele>11.67</ele>
        <time>2012-04-01T08:59:40Z</time>
      </trkpt>
      <trkpt lat="47.60647" lon="-0.50718">
        <ele>12.63</ele>
        <time>2012-04-01T08:59:50Z</time>
      </trkpt>
      <trkpt lat="47.60701" lon="-0.5073">
        <ele>11.67</ele>
        <time>2012-04-01T09:00:00Z</time>
      </trkpt>
      <trkpt lat="47.60754" lon="-0.50741">
        <ele>12.15</ele>
        <time>2012-04-01T09:00:10Z</time>
      </trkpt>
      <trkpt lat="47.60792" lon="-0.50749">
        <ele>11.67</ele>
        <time>2012-04-01T09:00:17Z</time>
      </trkpt>
      <trkpt lat="47.6084" lon="-0.50755">
        <ele>12.15</ele>
        <time>2012-04-01T09:00:26Z</time>
      </trkpt>
      <trkpt lat="47.60851" lon="-0.50755">
        <ele>11.67</ele>
        <time>2012-04-01T09:00:28Z</time>
      </trkpt>
      <trkpt lat="47.60895" lon="-0.50741">
        <ele>12.63</ele>
        <time>2012-04-01T09:00:37Z</time>
      </trkpt>
      <trkpt lat="47.609" lon="-0.50739">
        <ele>12.15</ele>
        <time>2012-04-01T09:00:38Z</time>
      </trkpt>
      <trkpt lat="47.60941" lon="-0.50711">
        <ele>12.63</ele>
        <time>2012-04-01T09:00:47Z</time>
      </trkpt>
      <trkpt lat="47.60969" lon="-0.50693">
        <ele>12.63</ele>
        <time>2012-04-01T09:00:53Z</time>
      </trkpt>
      <trkpt lat="47.60993" lon="-0.5068">
        <ele>12.15</ele>
        <time>2012-04-01T09:00:58Z</time>
      </trkpt>
      <trkpt lat="47.61035" lon="-0.5067">
        <ele>12.15</ele>
        <time>2012-04-01T09:01:06Z</time>
      </trkpt>
      <trkpt lat="47.61081" lon="-0.50667">
        <ele>12.15</ele>
        <time>2012-04-01T09:01:15Z</time>
      </trkpt>
      <trkpt lat="47.61121" lon="-0.50665">
        <ele>12.63</ele>
        <time>2012-04-01T09:01:23Z</time>
      </trkpt>
      <trkpt lat="47.61168" lon="-0.50664">
        <ele>13.12</ele>
        <time>2012-04-01T09:01:32Z</time>
      </trkpt>
      <trkpt lat="47.61219" lon="-0.50665">
        <ele>12.63</ele>
        <time>2012-04-01T09:01:42Z</time>
      </trkpt>
      <trkpt lat="47.61255" lon="-0.5067">
        <ele>12.63</ele>
        <time>2012-04-01T09:01:49Z</time>
      </trkpt>
      <trkpt lat="47.613" lon="-0.50684">
        <ele>12.15</ele>
        <time>2012-04-01T09:01:58Z</time>
      </trkpt>
      <trkpt lat="47.61344" lon="-0.50701">
        <ele>12.63</ele>
        <time>2012-04-01T09:02:07Z</time>
      </trkpt>
      <trkpt lat="47.61389" lon="-0.50717">
        <ele>12.15</ele>
        <time>2012-04-01T09:02:16Z</time>
      </trkpt>
      <trkpt lat="47.61428" lon="-0.50731">
        <ele>12.15</ele>
        <time>2012-04-01T09:02:24Z</time>
      </trkpt>
      <trkpt lat="47.61457" lon="-0.50738">
        <ele>12.15</ele>
        <time>2012-04-01T09:02:30Z</time>
      </trkpt>
      <trkpt lat="47.61495" lon="-0.50733">
        <ele>13.12</ele>
        <time>2012-04-01T09:02:38Z</time>
      </trkpt>
      <trkpt lat="47.6153" lon="-0.50723">
        <ele>12.63</ele>
        <time>2012-04-01T09:02:45Z</time>
      </trkpt>
      <trkpt lat="47.6156" lon="-0.50713">
        <ele>11.67</ele>
        <time>2012-04-01T09:02:52Z</time>
      </trkpt>
      <trkpt lat="47.61568" lon="-0.50711">
        <ele>12.15</ele>
        <time>2012-04-01T09:02:54Z</time>
      </trkpt>
      <trkpt lat="47.61577" lon="-0.50708">
        <ele>12.63</ele>
        <time>2012-04-01T09:02:56Z</time>
      </trkpt>
      <trkpt lat="47.61602" lon="-0.50704">
        <ele>12.15</ele>
        <time>2012-04-01T09:03:01Z</time>
      </trkpt>
      <trkpt lat="47.61636" lon="-0.50696">
        <ele>12.63</ele>
        <time>2012-04-01T09:03:08Z</time>
      </trkpt>
      <trkpt lat="47.61655" lon="-0.50692">
        <ele>12.15</ele>
        <time>2012-04-01T09:03:12Z</time>
      </trkpt>
      <trkpt lat="47.61696" lon="-0.50683">
        <ele>13.12</ele>
        <time>2012-04-01T09:03:20Z</time>
      </trkpt>
      <trkpt lat="47.61716" lon="-0.50677">
        <ele>12.63</ele>
        <time>2012-04-01T09:03:24Z</time>
      </trkpt>
      <trkpt lat="47.6175" lon="-0.50668">
        <ele>12.63</ele>
        <time>2012-04-01T09:03:31Z</time>
      </trkpt>
      <trkpt lat="47.61759" lon="-0.50663">
        <ele>12.63</ele>
        <time>2012-04-01T09:03:33Z</time>
      </trkpt>
      <trkpt lat="47.61795" lon="-0.50647">
        <ele>13.12</ele>
        <time>2012-04-01T09:03:41Z</time>
      </trkpt>
      <trkpt lat="47.61803" lon="-0.50641">
        <ele>12.63</ele>
        <time>2012-04-01T09:03:43Z</time>
      </trkpt>
      <trkpt lat="47.61851" lon="-0.50611">
        <ele>12.15</ele>
        <time>2012-04-01T09:03:54Z</time>
      </trkpt>
      <trkpt lat="47.61855" lon="-0.50609">
        <ele>12.15</ele>
        <time>2012-04-01T09:03:55Z</time>
      </trkpt>
      <trkpt lat="47.6188" lon="-0.50592">
        <ele>13.6</ele>
        <time>2012-04-01T09:04:01Z</time>
      </trkpt>
      <trkpt lat="47.61926" lon="-0.50561">
        <ele>12.63</ele>
        <time>2012-04-01T09:04:12Z</time>
      </trkpt>
      <trkpt lat="47.6193" lon="-0.50558">
        <ele>12.15</ele>
        <time>2012-04-01T09:04:13Z</time>
      </trkpt>
      <trkpt lat="47.61968" lon="-0.50531">
        <ele>12.15</ele>
        <time>2012-04-01T09:04:23Z</time>
      </trkpt>
      <trkpt lat="47.61982" lon="-0.50522">
        <ele>12.15</ele>
        <time>2012-04-01T09:04:27Z</time>
      </trkpt>
      <trkpt lat="47.62001" lon="-0.50508">
        <ele>12.63</ele>
        <time>2012-04-01T09:04:32Z</time>
      </trkpt>
      <trkpt lat="47.62038" lon="-0.50482">
        <ele>12.15</ele>
        <time>2012-04-01T09:04:41Z</time>
      </trkpt>
      <trkpt lat="47.6205" lon="-0.50474">
        <ele>12.15</ele>
        <time>2012-04-01T09:04:44Z</time>
      </trkpt>
      <trkpt lat="47.62075" lon="-0.50458">
        <ele>12.63</ele>
        <time>2012-04-01T09:04:50Z</time>
      </trkpt>
      <trkpt lat="47.6209" lon="-0.5045">
        <ele>12.15</ele>
        <time>2012-04-01T09:04:54Z</time>
      </trkpt>
      <trkpt lat="47.62127" lon="-0.50438">
        <ele>13.12</ele>
        <time>2012-04-01T09:05:04Z</time>
      </trkpt>
      <trkpt lat="47.62149" lon="-0.5042">
        <ele>13.12</ele>
        <time>2012-04-01T09:05:11Z</time>
      </trkpt>
      <trkpt lat="47.62163" lon="-0.50396">
        <ele>14.08</ele>
        <time>2012-04-01T09:05:17Z</time>
      </trkpt>
      <trkpt lat="47.62177" lon="-0.50381">
        <ele>14.56</ele>
        <time>2012-04-01T09:05:22Z</time>
      </trkpt>
      <trkpt lat="47.62195" lon="-0.5036">
        <ele>14.08</ele>
        <time>2012-04-01T09:05:28Z</time>
      </trkpt>
      <trkpt lat="47.62224" lon="-0.50318">
        <ele>14.08</ele>
        <time>2012-04-01T09:05:37Z</time>
      </trkpt>
      <trkpt lat="47.62227" lon="-0.50313">
        <ele>14.56</ele>
        <time>2012-04-01T09:05:38Z</time>
      </trkpt>
      <trkpt lat="47.62235" lon="-0.50296">
        <ele>14.08</ele>
        <time>2012-04-01T09:05:41Z</time>
      </trkpt>
      <trkpt lat="47.62243" lon="-0.50273">
        <ele>14.08</ele>
        <time>2012-04-01T09:05:45Z</time>
      </trkpt>
      <trkpt lat="47.62252" lon="-0.50251">
        <ele>14.56</ele>
        <time>2012-04-01T09:05:49Z</time>
      </trkpt>
      <trkpt lat="47.6226" lon="-0.50228">
        <ele>14.08</ele>
        <time>2012-04-01T09:05:53Z</time>
      </trkpt>
      <trkpt lat="47.62272" lon="-0.5018">
        <ele>15.52</ele>
        <time>2012-04-01T09:06:01Z</time>
      </trkpt>
      <trkpt lat="47.62275" lon="-0.50166">
        <ele>16.96</ele>
        <time>2012-04-01T09:06:04Z</time>
      </trkpt>
      <trkpt lat="47.62283" lon="-0.50168">
        <ele>16.96</ele>
        <time>2012-04-01T09:06:09Z</time>
      </trkpt>
      <trkpt lat="47.62285" lon="-0.50181">
        <ele>17.44</ele>
        <time>2012-04-01T09:06:11Z</time>
      </trkpt>
      <trkpt lat="47.62295" lon="-0.50248">
        <ele>18.88</ele>
        <time>2012-04-01T09:06:21Z</time>
      </trkpt>
      <trkpt lat="47.62303" lon="-0.50309">
        <ele>17.44</ele>
        <time>2012-04-01T09:06:29Z</time>
      </trkpt>
      <trkpt lat="47.62316" lon="-0.50333">
        <ele>16.96</ele>
        <time>2012-04-01T09:06:33Z</time>
      </trkpt>
      <trkpt lat="47.6233" lon="-0.5032">
        <ele>17.44</ele>
        <time>2012-04-01T09:06:36Z</time>
      </trkpt>
      <trkpt lat="47.6234" lon="-0.50296">
        <ele>16.96</ele>
        <time>2012-04-01T09:06:39Z</time>
      </trkpt>
      <trkpt lat="47.62345" lon="-0.50281">
        <ele>15.52</ele>
        <time>2012-04-01T09:06:41Z</time>
      </trkpt>
      <trkpt lat="47.62341" lon="-0.50255">
        <ele>15.04</ele>
        <time>2012-04-01T09:06:46Z</time>
      </trkpt>
      <trkpt lat="47.62332" lon="-0.50254">
        <ele>14.08</ele>
        <time>2012-04-01T09:06:50Z</time>
      </trkpt>
      <trkpt lat="47.62326" lon="-0.50261">
        <ele>13.6</ele>
        <time>2012-04-01T09:06:52Z</time>
      </trkpt>
      <trkpt lat="47.62319" lon="-0.50276">
        <ele>13.6</ele>
        <time>2012-04-01T09:06:55Z</time>
      </trkpt>
      <trkpt lat="47.62313" lon="-0.50286">
        <ele>13.6</ele>
        <time>2012-04-01T09:06:57Z</time>
      </trkpt>
      <trkpt lat="47.62307" lon="-0.50295">
        <ele>13.12</ele>
        <time>2012-04-01T09:06:59Z</time>
      </trkpt>
      <trkpt lat="47.62285" lon="-0.50326">
        <ele>13.6</ele>
        <time>2012-04-01T09:07:05Z</time>
      </trkpt>
      <trkpt lat="47.62263" lon="-0.50365">
        <ele>13.12</ele>
        <time>2012-04-01T09:07:11Z</time>
      </trkpt>
      <trkpt lat="47.62243" lon="-0.50413">
        <ele>13.12</ele>
        <time>2012-04-01T09:07:18Z</time>
      </trkpt>
      <trkpt lat="47.62227" lon="-0.5045">
        <ele>13.6</ele>
        <time>2012-04-01T09:07:24Z</time>
      </trkpt>
      <trkpt lat="47.62217" lon="-0.50495">
        <ele>14.08</ele>
        <time>2012-04-01T09:07:31Z</time>
      </trkpt>
      <trkpt lat="47.62204" lon="-0.50517">
        <ele>14.08</ele>
        <time>2012-04-01T09:07:36Z</time>
      </trkpt>
      <trkpt lat="47.62195" lon="-0.50522">
        <ele>13.6</ele>
        <time>2012-04-01T09:07:38Z</time>
      </trkpt>
      <trkpt lat="47.6217" lon="-0.50543">
        <ele>13.6</ele>
        <time>2012-04-01T09:07:43Z</time>
      </trkpt>
      <trkpt lat="47.62149" lon="-0.50568">
        <ele>13.6</ele>
        <time>2012-04-01T09:07:48Z</time>
      </trkpt>
      <trkpt lat="47.62142" lon="-0.50578">
        <ele>13.6</ele>
        <time>2012-04-01T09:07:50Z</time>
      </trkpt>
      <trkpt lat="47.62136" lon="-0.50597">
        <ele>14.08</ele>
        <time>2012-04-01T09:07:54Z</time>
      </trkpt>
      <trkpt lat="47.62136" lon="-0.50606">
        <ele>14.56</ele>
        <time>2012-04-01T09:07:56Z</time>
      </trkpt>
      <trkpt lat="47.62119" lon="-0.50623">
        <ele>13.12</ele>
        <time>2012-04-01T09:08:01Z</time>
      </trkpt>
      <trkpt lat="47.62113" lon="-0.50627">
        <ele>13.6</ele>
        <time>2012-04-01T09:08:02Z</time>
      </trkpt>
      <trkpt lat="47.62102" lon="-0.50632">
        <ele>13.12</ele>
        <time>2012-04-01T09:08:04Z</time>
      </trkpt>
      <trkpt lat="47.62088" lon="-0.50641">
        <ele>12.63</ele>
        <time>2012-04-01T09:08:07Z</time>
      </trkpt>
      <trkpt lat="47.62049" lon="-0.50654">
        <ele>12.63</ele>
        <time>2012-04-01T09:08:14Z</time>
      </trkpt>
      <trkpt lat="47.62034" lon="-0.5066">
        <ele>13.12</ele>
        <time>2012-04-01T09:08:17Z</time>
      </trkpt>
      <trkpt lat="47.62024" lon="-0.50665">
        <ele>13.12</ele>
        <time>2012-04-01T09:08:19Z</time>
      </trkpt>
      <trkpt lat="47.61992" lon="-0.50683">
        <ele>13.12</ele>
        <time>2012-04-01T09:08:26Z</time>
      </trkpt>
      <trkpt lat="47.61955" lon="-0.50716">
        <ele>12.15</ele>
        <time>2012-04-01T09:08:34Z</time>
      </trkpt>
      <trkpt lat="47.61951" lon="-0.50721">
        <ele>12.63</ele>
        <time>2012-04-01T09:08:35Z</time>
      </trkpt>
      <trkpt lat="47.61911" lon="-0.50742">
        <ele>12.63</ele>
        <time>2012-04-01T09:08:42Z</time>
      </trkpt>
      <trkpt lat="47.61887" lon="-0.50754">
        <ele>13.12</ele>
        <time>2012-04-01T09:08:46Z</time>
      </trkpt>
      <trkpt lat="47.61849" lon="-0.50765">
        <ele>13.12</ele>
        <time>2012-04-01T09:08:52Z</time>
      </trkpt>
      <trkpt lat="47.61796" lon="-0.50774">
        <ele>12.63</ele>
        <time>2012-04-01T09:09:01Z</time>
      </trkpt>
      <trkpt lat="47.61751" lon="-0.50781">
        <ele>12.63</ele>
        <time>2012-04-01T09:09:09Z</time>
      </trkpt>
      <trkpt lat="47.61706" lon="-0.50791">
        <ele>13.12</ele>
        <time>2012-04-01T09:09:17Z</time>
      </trkpt>
      <trkpt lat="47.61674" lon="-0.50795">
        <ele>12.63</ele>
        <time>2012-04-01T09:09:23Z</time>
      </trkpt>
      <trkpt lat="47.61653" lon="-0.50798">
        <ele>12.63</ele>
        <time>2012-04-01T09:09:27Z</time>
      </trkpt>
      <trkpt lat="47.61638" lon="-0.50813">
        <ele>13.12</ele>
        <time>2012-04-01T09:09:32Z</time>
      </trkpt>
      <trkpt lat="47.61638" lon="-0.50817">
        <ele>12.63</ele>
        <time>2012-04-01T09:09:33Z</time>
      </trkpt>
      <trkpt lat="47.6164" lon="-0.50846">
        <ele>14.56</ele>
        <time>2012-04-01T09:09:39Z</time>
      </trkpt>
      <trkpt lat="47.6164" lon="-0.50851">
        <ele>14.56</ele>
        <time>2012-04-01T09:09:40Z</time>
      </trkpt>
      <trkpt lat="47.61628" lon="-0.50861">
        <ele>15.04</ele>
        <time>2012-04-01T09:09:45Z</time>
      </trkpt>
      <trkpt lat="47.61601" lon="-0.50864">
        <ele>16</ele>
        <time>2012-04-01T09:09:51Z</time>
      </trkpt>
      <trkpt lat="47.61597" lon="-0.50864">
        <ele>16</ele>
        <time>2012-04-01T09:09:52Z</time>
      </trkpt>
      <trkpt lat="47.6155" lon="-0.50873">
        <ele>15.52</ele>
        <time>2012-04-01T09:10:01Z</time>
      </trkpt>
      <trkpt lat="47.61545" lon="-0.50874">
        <ele>16</ele>
        <time>2012-04-01T09:10:02Z</time>
      </trkpt>
      <trkpt lat="47.61522" lon="-0.50881">
        <ele>15.52</ele>
        <time>2012-04-01T09:10:07Z</time>
      </trkpt>
      <trkpt lat="47.61508" lon="-0.50886">
        <ele>16</ele>
        <time>2012-04-01T09:10:10Z</time>
      </trkpt>
      <trkpt lat="47.6146" lon="-0.50894">
        <ele>15.04</ele>
        <time>2012-04-01T09:10:18Z</time>
      </trkpt>
      <trkpt lat="47.61454" lon="-0.50895">
        <ele>15.04</ele>
        <time>2012-04-01T09:10:19Z</time>
      </trkpt>
      <trkpt lat="47.61441" lon="-0.50915">
        <ele>14.56</ele>
        <time>2012-04-01T09:10:23Z</time>
      </trkpt>
      <trkpt lat="47.61445" lon="-0.50958">
        <ele>16</ele>
        <time>2012-04-01T09:10:28Z</time>
      </trkpt>
      <trkpt lat="47.61453" lon="-0.51041">
        <ele>15.52</ele>
        <time>2012-04-01T09:10:37Z</time>
      </trkpt>
      <trkpt lat="47.61466" lon="-0.51105">
        <ele>15.04</ele>
        <time>2012-04-01T09:10:44Z</time>
      </trkpt>
      <trkpt lat="47.6148" lon="-0.51169">
        <ele>15.04</ele>
        <time>2012-04-01T09:10:51Z</time>
      </trkpt>
      <trkpt lat="47.61483" lon="-0.51196">
        <ele>15.04</ele>
        <time>2012-04-01T09:10:54Z</time>
      </trkpt>
      <trkpt lat="47.61481" lon="-0.51249">
        <ele>15.04</ele>
        <time>2012-04-01T09:11:00Z</time>
      </trkpt>
      <trkpt lat="47.61467" lon="-0.51269">
        <ele>16</ele>
        <time>2012-04-01T09:11:04Z</time>
      </trkpt>
      <trkpt lat="47.61455" lon="-0.51273">
        <ele>15.52</ele>
        <time>2012-04-01T09:11:06Z</time>
      </trkpt>
      <trkpt lat="47.61407" lon="-0.51297">
        <ele>14.56</ele>
        <time>2012-04-01T09:11:14Z</time>
      </trkpt>
      <trkpt lat="47.61357" lon="-0.51328">
        <ele>15.04</ele>
        <time>2012-04-01T09:11:22Z</time>
      </trkpt>
      <trkpt lat="47.61321" lon="-0.51353">
        <ele>15.04</ele>
        <time>2012-04-01T09:11:28Z</time>
      </trkpt>
      <trkpt lat="47.61301" lon="-0.51379">
        <ele>14.08</ele>
        <time>2012-04-01T09:11:32Z</time>
      </trkpt>
      <trkpt lat="47.61286" lon="-0.514">
        <ele>13.6</ele>
        <time>2012-04-01T09:11:35Z</time>
      </trkpt>
      <trkpt lat="47.61249" lon="-0.51444">
        <ele>14.08</ele>
        <time>2012-04-01T09:11:42Z</time>
      </trkpt>
      <trkpt lat="47.61204" lon="-0.51483">
        <ele>13.12</ele>
        <time>2012-04-01T09:11:50Z</time>
      </trkpt>
      <trkpt lat="47.61186" lon="-0.51496">
        <ele>13.6</ele>
        <time>2012-04-01T09:11:53Z</time>
      </trkpt>
      <trkpt lat="47.61153" lon="-0.51514">
        <ele>13.6</ele>
        <time>2012-04-01T09:11:59Z</time>
      </trkpt>
      <trkpt lat="47.61128" lon="-0.51522">
        <ele>14.08</ele>
        <time>2012-04-01T09:12:03Z</time>
      </trkpt>
      <trkpt lat="47.61106" lon="-0.51532">
        <ele>13.6</ele>
        <time>2012-04-01T09:12:07Z</time>
      </trkpt>
      <trkpt lat="47.61069" lon="-0.51549">
        <ele>14.56</ele>
        <time>2012-04-01T09:12:14Z</time>
      </trkpt>
      <trkpt lat="47.61032" lon="-0.51563">
        <ele>15.52</ele>
        <time>2012-04-01T09:12:21Z</time>
      </trkpt>
      <trkpt lat="47.60991" lon="-0.51581">
        <ele>15.04</ele>
        <time>2012-04-01T09:12:28Z</time>
      </trkpt>
      <trkpt lat="47.60952" lon="-0.51588">
        <ele>14.08</ele>
        <time>2012-04-01T09:12:34Z</time>
      </trkpt>
      <trkpt lat="47.60938" lon="-0.5159">
        <ele>13.6</ele>
        <time>2012-04-01T09:12:36Z</time>
      </trkpt>
      <trkpt lat="47.60889" lon="-0.51607">
        <ele>15.04</ele>
        <time>2012-04-01T09:12:44Z</time>
      </trkpt>
      <trkpt lat="47.60878" lon="-0.51611">
        <ele>14.56</ele>
        <time>2012-04-01T09:12:46Z</time>
      </trkpt>
      <trkpt lat="47.60852" lon="-0.51615">
        <ele>15.04</ele>
        <time>2012-04-01T09:12:51Z</time>
      </trkpt>
      <trkpt lat="47.6081" lon="-0.51599">
        <ele>16.48</ele>
        <time>2012-04-01T09:12:59Z</time>
      </trkpt>
      <trkpt lat="47.60773" lon="-0.51585">
        <ele>16.48</ele>
        <time>2012-04-01T09:13:06Z</time>
      </trkpt>
      <trkpt lat="47.60766" lon="-0.51571">
        <ele>17.92</ele>
        <time>2012-04-01T09:13:09Z</time>
      </trkpt>
      <trkpt lat="47.60767" lon="-0.51547">
        <ele>17.92</ele>
        <time>2012-04-01T09:13:13Z</time>
      </trkpt>
      <trkpt lat="47.60756" lon="-0.51537">
        <ele>17.44</ele>
        <time>2012-04-01T09:13:16Z</time>
      </trkpt>
      <trkpt lat="47.60746" lon="-0.51535">
        <ele>17.92</ele>
        <time>2012-04-01T09:13:18Z</time>
      </trkpt>
      <trkpt lat="47.60731" lon="-0.51532">
        <ele>17.92</ele>
        <time>2012-04-01T09:13:21Z</time>
      </trkpt>
      <trkpt lat="47.60687" lon="-0.51517">
        <ele>17.92</ele>
        <time>2012-04-01T09:13:29Z</time>
      </trkpt>
      <trkpt lat="47.60639" lon="-0.51504">
        <ele>17.92</ele>
        <time>2012-04-01T09:13:38Z</time>
      </trkpt>
      <trkpt lat="47.60603" lon="-0.51499">
        <ele>17.92</ele>
        <time>2012-04-01T09:13:45Z</time>
      </trkpt>
      <trkpt lat="47.60576" lon="-0.51493">
        <ele>17.44</ele>
        <time>2012-04-01T09:13:50Z</time>
      </trkpt>
      <trkpt lat="47.60525" lon="-0.51473">
        <ele>17.44</ele>
        <time>2012-04-01T09:13:59Z</time>
      </trkpt>
      <trkpt lat="47.60476" lon="-0.51455">
        <ele>18.4</ele>
        <time>2012-04-01T09:14:07Z</time>
      </trkpt>
      <trkpt lat="47.60406" lon="-0.51432">
        <ele>17.44</ele>
        <time>2012-04-01T09:14:18Z</time>
      </trkpt>
      <trkpt lat="47.60362" lon="-0.51434">
        <ele>16</ele>
        <time>2012-04-01T09:14:25Z</time>
      </trkpt>
      <trkpt lat="47.60309" lon="-0.51445">
        <ele>16</ele>
        <time>2012-04-01T09:14:33Z</time>
      </trkpt>
      <trkpt lat="47.60296" lon="-0.51448">
        <ele>16.48</ele>
        <time>2012-04-01T09:14:35Z</time>
      </trkpt>
      <trkpt lat="47.60276" lon="-0.51457">
        <ele>15.52</ele>
        <time>2012-04-01T09:14:38Z</time>
      </trkpt>
      <trkpt lat="47.60255" lon="-0.51476">
        <ele>15.52</ele>
        <time>2012-04-01T09:14:42Z</time>
      </trkpt>
      <trkpt lat="47.60205" lon="-0.5152">
        <ele>16.48</ele>
        <time>2012-04-01T09:14:51Z</time>
      </trkpt>
      <trkpt lat="47.60176" lon="-0.51539">
        <ele>16.96</ele>
        <time>2012-04-01T09:14:56Z</time>
      </trkpt>
      <trkpt lat="47.60125" lon="-0.51544">
        <ele>17.44</ele>
        <time>2012-04-01T09:15:04Z</time>
      </trkpt>
      <trkpt lat="47.60089" lon="-0.51537">
        <ele>16.48</ele>
        <time>2012-04-01T09:15:09Z</time>
      </trkpt>
      <trkpt lat="47.60075" lon="-0.51537">
        <ele>16.96</ele>
        <time>2012-04-01T09:15:11Z</time>
      </trkpt>
      <trkpt lat="47.60047" lon="-0.51544">
        <ele>16.48</ele>
        <time>2012-04-01T09:15:15Z</time>
      </trkpt>
      <trkpt lat="47.60006" lon="-0.51579">
        <ele>16.48</ele>
        <time>2012-04-01T09:15:22Z</time>
      </trkpt>
      <trkpt lat="47.59975" lon="-0.51582">
        <ele>15.52</ele>
        <time>2012-04-01T09:15:27Z</time>
      </trkpt>
      <trkpt lat="47.59941" lon="-0.51575">
        <ele>15.52</ele>
        <time>2012-04-01T09:15:32Z</time>
      </trkpt>
      <trkpt lat="47.59928" lon="-0.51574">
        <ele>16</ele>
        <time>2012-04-01T09:15:34Z</time>
      </trkpt>
      <trkpt lat="47.5991" lon="-0.51582">
        <ele>16</ele>
        <time>2012-04-01T09:15:37Z</time>
      </trkpt>
      <trkpt lat="47.59872" lon="-0.51614">
        <ele>16.48</ele>
        <time>2012-04-01T09:15:44Z</time>
      </trkpt>
      <trkpt lat="47.59862" lon="-0.51623">
        <ele>16.96</ele>
        <time>2012-04-01T09:15:46Z</time>
      </trkpt>
      <trkpt lat="47.59818" lon="-0.51647">
        <ele>16.48</ele>
        <time>2012-04-01T09:15:54Z</time>
      </trkpt>
      <trkpt lat="47.59791" lon="-0.5166">
        <ele>16.96</ele>
        <time>2012-04-01T09:15:59Z</time>
      </trkpt>
      <trkpt lat="47.59773" lon="-0.51667">
        <ele>16.96</ele>
        <time>2012-04-01T09:16:02Z</time>
      </trkpt>
      <trkpt lat="47.59756" lon="-0.51677">
        <ele>16.96</ele>
        <time>2012-04-01T09:16:05Z</time>
      </trkpt>
      <trkpt lat="47.59742" lon="-0.51693">
        <ele>17.92</ele>
        <time>2012-04-01T09:16:08Z</time>
      </trkpt>
      <trkpt lat="47.59732" lon="-0.51703">
        <ele>18.4</ele>
        <time>2012-04-01T09:16:10Z</time>
      </trkpt>
      <trkpt lat="47.59702" lon="-0.51746">
        <ele>16.48</ele>
        <time>2012-04-01T09:16:17Z</time>
      </trkpt>
      <trkpt lat="47.59693" lon="-0.51759">
        <ele>16.96</ele>
        <time>2012-04-01T09:16:19Z</time>
      </trkpt>
      <trkpt lat="47.59648" lon="-0.51804">
        <ele>17.92</ele>
        <time>2012-04-01T09:16:28Z</time>
      </trkpt>
      <trkpt lat="47.59609" lon="-0.5183">
        <ele>17.44</ele>
        <time>2012-04-01T09:16:35Z</time>
      </trkpt>
      <trkpt lat="47.59591" lon="-0.51842">
        <ele>17.44</ele>
        <time>2012-04-01T09:16:38Z</time>
      </trkpt>
      <trkpt lat="47.5954" lon="-0.51879">
        <ele>17.92</ele>
        <time>2012-04-01T09:16:47Z</time>
      </trkpt>
      <trkpt lat="47.59505" lon="-0.51921">
        <ele>16.96</ele>
        <time>2012-04-01T09:16:54Z</time>
      </trkpt>
      <trkpt lat="47.59466" lon="-0.51975">
        <ele>16.96</ele>
        <time>2012-04-01T09:17:02Z</time>
      </trkpt>
      <trkpt lat="47.59433" lon="-0.52016">
        <ele>16.96</ele>
        <time>2012-04-01T09:17:09Z</time>
      </trkpt>
      <trkpt lat="47.59421" lon="-0.52036">
        <ele>17.44</ele>
        <time>2012-04-01T09:17:12Z</time>
      </trkpt>
      <trkpt lat="47.59378" lon="-0.52088">
        <ele>17.44</ele>
        <time>2012-04-01T09:17:21Z</time>
      </trkpt>
      <trkpt lat="47.59345" lon="-0.52131">
        <ele>17.44</ele>
        <time>2012-04-01T09:17:28Z</time>
      </trkpt>
      <trkpt lat="47.59321" lon="-0.52161">
        <ele>17.44</ele>
        <time>2012-04-01T09:17:33Z</time>
      </trkpt>
      <trkpt lat="47.59306" lon="-0.52176">
        <ele>17.92</ele>
        <time>2012-04-01T09:17:36Z</time>
      </trkpt>
      <trkpt lat="47.59262" lon="-0.52229">
        <ele>16.96</ele>
        <time>2012-04-01T09:17:45Z</time>
      </trkpt>
      <trkpt lat="47.59257" lon="-0.52234">
        <ele>16.96</ele>
        <time>2012-04-01T09:17:46Z</time>
      </trkpt>
      <trkpt lat="47.59232" lon="-0.52272">
        <ele>16.96</ele>
        <time>2012-04-01T09:17:52Z</time>
      </trkpt>
      <trkpt lat="47.5918" lon="-0.52347">
        <ele>16.96</ele>
        <time>2012-04-01T09:18:03Z</time>
      </trkpt>
      <trkpt lat="47.59142" lon="-0.52405">
        <ele>16.48</ele>
        <time>2012-04-01T09:18:11Z</time>
      </trkpt>
      <trkpt lat="47.59109" lon="-0.52434">
        <ele>16.96</ele>
        <time>2012-04-01T09:18:17Z</time>
      </trkpt>
      <trkpt lat="47.5907" lon="-0.52443">
        <ele>16.48</ele>
        <time>2012-04-01T09:18:23Z</time>
      </trkpt>
      <trkpt lat="47.59025" lon="-0.52449">
        <ele>15.52</ele>
        <time>2012-04-01T09:18:30Z</time>
      </trkpt>
      <trkpt lat="47.58992" lon="-0.52466">
        <ele>16</ele>
        <time>2012-04-01T09:18:35Z</time>
      </trkpt>
      <trkpt lat="47.5897" lon="-0.52485">
        <ele>16</ele>
        <time>2012-04-01T09:18:39Z</time>
      </trkpt>
      <trkpt lat="47.58955" lon="-0.52506">
        <ele>16</ele>
        <time>2012-04-01T09:18:42Z</time>
      </trkpt>
      <trkpt lat="47.58939" lon="-0.52534">
        <ele>16.96</ele>
        <time>2012-04-01T09:18:46Z</time>
      </trkpt>
      <trkpt lat="47.58923" lon="-0.52569">
        <ele>16</ele>
        <time>2012-04-01T09:18:51Z</time>
      </trkpt>
      <trkpt lat="47.58893" lon="-0.52618">
        <ele>15.52</ele>
        <time>2012-04-01T09:18:58Z</time>
      </trkpt>
      <trkpt lat="47.58885" lon="-0.52632">
        <ele>15.52</ele>
        <time>2012-04-01T09:19:00Z</time>
      </trkpt>
      <trkpt lat="47.58865" lon="-0.52668">
        <ele>15.04</ele>
        <time>2012-04-01T09:19:05Z</time>
      </trkpt>
      <trkpt lat="47.58837" lon="-0.52726">
        <ele>15.52</ele>
        <time>2012-04-01T09:19:13Z</time>
      </trkpt>
      <trkpt lat="47.58821" lon="-0.52756">
        <ele>16</ele>
        <time>2012-04-01T09:19:17Z</time>
      </trkpt>
      <trkpt lat="47.58794" lon="-0.52815">
        <ele>16</ele>
        <time>2012-04-01T09:19:25Z</time>
      </trkpt>
      <trkpt lat="47.58791" lon="-0.52822">
        <ele>16</ele>
        <time>2012-04-01T09:19:26Z</time>
      </trkpt>
      <trkpt lat="47.5878" lon="-0.52841">
        <ele>16</ele>
        <time>2012-04-01T09:19:29Z</time>
      </trkpt>
      <trkpt lat="47.58765" lon="-0.52866">
        <ele>15.52</ele>
        <time>2012-04-01T09:19:33Z</time>
      </trkpt>
      <trkpt lat="47.58751" lon="-0.5289">
        <ele>16</ele>
        <time>2012-04-01T09:19:37Z</time>
      </trkpt>
      <trkpt lat="47.58742" lon="-0.52918">
        <ele>15.52</ele>
        <time>2012-04-01T09:19:41Z</time>
      </trkpt>
      <trkpt lat="47.5874" lon="-0.52939">
        <ele>16.48</ele>
        <time>2012-04-01T09:19:44Z</time>
      </trkpt>
      <trkpt lat="47.58742" lon="-0.52972">
        <ele>15.52</ele>
        <time>2012-04-01T09:19:49Z</time>
      </trkpt>
      <trkpt lat="47.58744" lon="-0.52985">
        <ele>16.48</ele>
        <time>2012-04-01T09:19:51Z</time>
      </trkpt>
      <trkpt lat="47.5875" lon="-0.5301">
        <ele>15.52</ele>
        <time>2012-04-01T09:19:56Z</time>
      </trkpt>
      <trkpt lat="47.58756" lon="-0.53016">
        <ele>16.48</ele>
        <time>2012-04-01T09:19:58Z</time>
      </trkpt>
      <trkpt lat="47.58762" lon="-0.53024">
        <ele>16.48</ele>
        <time>2012-04-01T09:20:00Z</time>
      </trkpt>
      <trkpt lat="47.58773" lon="-0.53048">
        <ele>16.48</ele>
        <time>2012-04-01T09:20:04Z</time>
      </trkpt>
      <trkpt lat="47.58792" lon="-0.53109">
        <ele>17.44</ele>
        <time>2012-04-01T09:20:13Z</time>
      </trkpt>
      <trkpt lat="47.5881" lon="-0.53145">
        <ele>17.92</ele>
        <time>2012-04-01T09:20:19Z</time>
      </trkpt>
      <trkpt lat="47.58838" lon="-0.53194">
        <ele>17.44</ele>
        <time>2012-04-01T09:20:28Z</time>
      </trkpt>
      <trkpt lat="47.58847" lon="-0.53212">
        <ele>18.4</ele>
        <time>2012-04-01T09:20:31Z</time>
      </trkpt>
      <trkpt lat="47.58869" lon="-0.53227">
        <ele>18.88</ele>
        <time>2012-04-01T09:20:36Z</time>
      </trkpt>
      <trkpt lat="47.58893" lon="-0.53225">
        <ele>17.92</ele>
        <time>2012-04-01T09:20:41Z</time>
      </trkpt>
      <trkpt lat="47.58903" lon="-0.5323">
        <ele>18.88</ele>
        <time>2012-04-01T09:20:43Z</time>
      </trkpt>
      <trkpt lat="47.58926" lon="-0.5325">
        <ele>18.88</ele>
        <time>2012-04-01T09:20:48Z</time>
      </trkpt>
      <trkpt lat="47.58934" lon="-0.53259">
        <ele>19.36</ele>
        <time>2012-04-01T09:20:50Z</time>
      </trkpt>
      <trkpt lat="47.58952" lon="-0.53288">
        <ele>19.36</ele>
        <time>2012-04-01T09:20:55Z</time>
      </trkpt>
      <trkpt lat="47.58968" lon="-0.5331">
        <ele>20.32</ele>
        <time>2012-04-01T09:21:00Z</time>
      </trkpt>
      <trkpt lat="47.58987" lon="-0.53326">
        <ele>21.29</ele>
        <time>2012-04-01T09:21:05Z</time>
      </trkpt>
      <trkpt lat="47.58993" lon="-0.53334">
        <ele>21.77</ele>
        <time>2012-04-01T09:21:07Z</time>
      </trkpt>
      <trkpt lat="47.59028" lon="-0.53359">
        <ele>23.69</ele>
        <time>2012-04-01T09:21:16Z</time>
      </trkpt>
      <trkpt lat="47.59055" lon="-0.53372">
        <ele>25.13</ele>
        <time>2012-04-01T09:21:23Z</time>
      </trkpt>
      <trkpt lat="47.59067" lon="-0.53378">
        <ele>25.13</ele>
        <time>2012-04-01T09:21:26Z</time>
      </trkpt>
      <trkpt lat="47.59094" lon="-0.53402">
        <ele>25.61</ele>
        <time>2012-04-01T09:21:33Z</time>
      </trkpt>
      <trkpt lat="47.59111" lon="-0.53425">
        <ele>25.61</ele>
        <time>2012-04-01T09:21:38Z</time>
      </trkpt>
      <trkpt lat="47.59137" lon="-0.53467">
        <ele>25.61</ele>
        <time>2012-04-01T09:21:46Z</time>
      </trkpt>
      <trkpt lat="47.5914" lon="-0.53472">
        <ele>25.13</ele>
        <time>2012-04-01T09:21:47Z</time>
      </trkpt>
      <trkpt lat="47.5915" lon="-0.53487">
        <ele>25.13</ele>
        <time>2012-04-01T09:21:50Z</time>
      </trkpt>
      <trkpt lat="47.59169" lon="-0.53506">
        <ele>24.65</ele>
        <time>2012-04-01T09:21:55Z</time>
      </trkpt>
      <trkpt lat="47.59202" lon="-0.53543">
        <ele>24.17</ele>
        <time>2012-04-01T09:22:04Z</time>
      </trkpt>
      <trkpt lat="47.5921" lon="-0.53582">
        <ele>24.17</ele>
        <time>2012-04-01T09:22:10Z</time>
      </trkpt>
      <trkpt lat="47.59207" lon="-0.5362">
        <ele>24.17</ele>
        <time>2012-04-01T09:22:16Z</time>
      </trkpt>
      <trkpt lat="47.59211" lon="-0.53646">
        <ele>25.13</ele>
        <time>2012-04-01T09:22:20Z</time>
      </trkpt>
      <trkpt lat="47.5923" lon="-0.53683">
        <ele>25.61</ele>
        <time>2012-04-01T09:22:28Z</time>
      </trkpt>
      <trkpt lat="47.59241" lon="-0.53683">
        <ele>26.09</ele>
        <time>2012-04-01T09:22:31Z</time>
      </trkpt>
      <trkpt lat="47.59249" lon="-0.53685">
        <ele>25.61</ele>
        <time>2012-04-01T09:22:33Z</time>
      </trkpt>
      <trkpt lat="47.59281" lon="-0.5369">
        <ele>26.09</ele>
        <time>2012-04-01T09:22:40Z</time>
      </trkpt>
      <trkpt lat="47.59326" lon="-0.53695">
        <ele>26.09</ele>
        <time>2012-04-01T09:22:49Z</time>
      </trkpt>
      <trkpt lat="47.59346" lon="-0.53696">
        <ele>26.09</ele>
        <time>2012-04-01T09:22:53Z</time>
      </trkpt>
      <trkpt lat="47.59396" lon="-0.53691">
        <ele>25.61</ele>
        <time>2012-04-01T09:23:02Z</time>
      </trkpt>
      <trkpt lat="47.59406" lon="-0.5369">
        <ele>26.09</ele>
        <time>2012-04-01T09:23:04Z</time>
      </trkpt>
      <trkpt lat="47.5942" lon="-0.53701">
        <ele>26.09</ele>
        <time>2012-04-01T09:23:08Z</time>
      </trkpt>
      <trkpt lat="47.59422" lon="-0.53716">
        <ele>25.13</ele>
        <time>2012-04-01T09:23:10Z</time>
      </trkpt>
      <trkpt lat="47.59425" lon="-0.53785">
        <ele>26.09</ele>
        <time>2012-04-01T09:23:17Z</time>
      </trkpt>
      <trkpt lat="47.59428" lon="-0.53867">
        <ele>25.61</ele>
        <time>2012-04-01T09:23:25Z</time>
      </trkpt>
      <trkpt lat="47.5943" lon="-0.53947">
        <ele>26.09</ele>
        <time>2012-04-01T09:23:33Z</time>
      </trkpt>
      <trkpt lat="47.59429" lon="-0.53957">
        <ele>26.09</ele>
        <time>2012-04-01T09:23:34Z</time>
      </trkpt>
      <trkpt lat="47.59422" lon="-0.53995">
        <ele>25.61</ele>
        <time>2012-04-01T09:23:38Z</time>
      </trkpt>
      <trkpt lat="47.59392" lon="-0.54065">
        <ele>26.09</ele>
        <time>2012-04-01T09:23:46Z</time>
      </trkpt>
      <trkpt lat="47.59383" lon="-0.54091">
        <ele>25.61</ele>
        <time>2012-04-01T09:23:49Z</time>
      </trkpt>
      <trkpt lat="47.59378" lon="-0.5413">
        <ele>25.61</ele>
        <time>2012-04-01T09:23:53Z</time>
      </trkpt>
      <trkpt lat="47.59387" lon="-0.5422">
        <ele>26.57</ele>
        <time>2012-04-01T09:24:02Z</time>
      </trkpt>
      <trkpt lat="47.59386" lon="-0.5426">
        <ele>26.57</ele>
        <time>2012-04-01T09:24:06Z</time>
      </trkpt>
      <trkpt lat="47.59376" lon="-0.54336">
        <ele>27.05</ele>
        <time>2012-04-01T09:24:14Z</time>
      </trkpt>
      <trkpt lat="47.59362" lon="-0.54404">
        <ele>27.05</ele>
        <time>2012-04-01T09:24:22Z</time>
      </trkpt>
      <trkpt lat="47.5936" lon="-0.54412">
        <ele>27.05</ele>
        <time>2012-04-01T09:24:23Z</time>
      </trkpt>
      <trkpt lat="47.59366" lon="-0.54442">
        <ele>27.05</ele>
        <time>2012-04-01T09:24:27Z</time>
      </trkpt>
      <trkpt lat="47.59374" lon="-0.54455">
        <ele>27.53</ele>
        <time>2012-04-01T09:24:29Z</time>
      </trkpt>
      <trkpt lat="47.59384" lon="-0.54483">
        <ele>27.53</ele>
        <time>2012-04-01T09:24:33Z</time>
      </trkpt>
      <trkpt lat="47.59393" lon="-0.5452">
        <ele>28.02</ele>
        <time>2012-04-01T09:24:38Z</time>
      </trkpt>
      <trkpt lat="47.59407" lon="-0.54561">
        <ele>28.5</ele>
        <time>2012-04-01T09:24:44Z</time>
      </trkpt>
      <trkpt lat="47.59422" lon="-0.54592">
        <ele>28.5</ele>
        <time>2012-04-01T09:24:49Z</time>
      </trkpt>
      <trkpt lat="47.59445" lon="-0.54646">
        <ele>28.98</ele>
        <time>2012-04-01T09:24:57Z</time>
      </trkpt>
      <trkpt lat="47.59458" lon="-0.54679">
        <ele>28.98</ele>
        <time>2012-04-01T09:25:02Z</time>
      </trkpt>
      <trkpt lat="47.59479" lon="-0.54737">
        <ele>29.94</ele>
        <time>2012-04-01T09:25:11Z</time>
      </trkpt>
      <trkpt lat="47.5948" lon="-0.54744">
        <ele>29.94</ele>
        <time>2012-04-01T09:25:12Z</time>
      </trkpt>
      <trkpt lat="47.59487" lon="-0.54763">
        <ele>29.94</ele>
        <time>2012-04-01T09:25:15Z</time>
      </trkpt>
      <trkpt lat="47.59497" lon="-0.54802">
        <ele>29.94</ele>
        <time>2012-04-01T09:25:21Z</time>
      </trkpt>
      <trkpt lat="47.595" lon="-0.54815">
        <ele>29.94</ele>
        <time>2012-04-01T09:25:23Z</time>
      </trkpt>
      <trkpt lat="47.59511" lon="-0.54852">
        <ele>31.86</ele>
        <time>2012-04-01T09:25:29Z</time>
      </trkpt>
      <trkpt lat="47.59506" lon="-0.54884">
        <ele>31.86</ele>
        <time>2012-04-01T09:25:34Z</time>
      </trkpt>
      <trkpt lat="47.59499" lon="-0.54894">
        <ele>31.38</ele>
        <time>2012-04-01T09:25:36Z</time>
      </trkpt>
      <trkpt lat="47.59496" lon="-0.54923">
        <ele>31.86</ele>
        <time>2012-04-01T09:25:41Z</time>
      </trkpt>
      <trkpt lat="47.59504" lon="-0.54963">
        <ele>31.86</ele>
        <time>2012-04-01T09:25:47Z</time>
      </trkpt>
      <trkpt lat="47.59502" lon="-0.5499">
        <ele>32.82</ele>
        <time>2012-04-01T09:25:51Z</time>
      </trkpt>
      <trkpt lat="47.59506" lon="-0.55014">
        <ele>32.82</ele>
        <time>2012-04-01T09:25:55Z</time>
      </trkpt>
      <trkpt lat="47.59517" lon="-0.55046">
        <ele>33.78</ele>
        <time>2012-04-01T09:26:00Z</time>
      </trkpt>
      <trkpt lat="47.59543" lon="-0.55102">
        <ele>33.78</ele>
        <time>2012-04-01T09:26:09Z</time>
      </trkpt>
      <trkpt lat="47.59549" lon="-0.55113">
        <ele>33.78</ele>
        <time>2012-04-01T09:26:11Z</time>
      </trkpt>
      <trkpt lat="47.59568" lon="-0.55138">
        <ele>33.3</ele>
        <time>2012-04-01T09:26:16Z</time>
      </trkpt>
      <trkpt lat="47.5959" lon="-0.5517">
        <ele>34.26</ele>
        <time>2012-04-01T09:26:22Z</time>
      </trkpt>
      <trkpt lat="47.59593" lon="-0.55176">
        <ele>33.78</ele>
        <time>2012-04-01T09:26:23Z</time>
      </trkpt>
      <trkpt lat="47.59627" lon="-0.5525">
        <ele>33.78</ele>
        <time>2012-04-01T09:26:34Z</time>
      </trkpt>
      <trkpt lat="47.5963" lon="-0.55257">
        <ele>34.26</ele>
        <time>2012-04-01T09:26:35Z</time>
      </trkpt>
      <trkpt lat="47.59643" lon="-0.55307">
        <ele>34.26</ele>
        <time>2012-04-01T09:26:42Z</time>
      </trkpt>
      <trkpt lat="47.59651" lon="-0.55366">
        <ele>34.26</ele>
        <time>2012-04-01T09:26:50Z</time>
      </trkpt>
      <trkpt lat="47.59652" lon="-0.55372">
        <ele>34.74</ele>
        <time>2012-04-01T09:26:51Z</time>
      </trkpt>
      <trkpt lat="47.59656" lon="-0.554">
        <ele>34.74</ele>
        <time>2012-04-01T09:26:55Z</time>
      </trkpt>
      <trkpt lat="47.59646" lon="-0.55427">
        <ele>35.71</ele>
        <time>2012-04-01T09:27:00Z</time>
      </trkpt>
      <trkpt lat="47.59639" lon="-0.55434">
        <ele>35.71</ele>
        <time>2012-04-01T09:27:02Z</time>
      </trkpt>
      <trkpt lat="47.59615" lon="-0.55462">
        <ele>36.67</ele>
        <time>2012-04-01T09:27:10Z</time>
      </trkpt>
      <trkpt lat="47.59595" lon="-0.55474">
        <ele>37.63</ele>
        <time>2012-04-01T09:27:16Z</time>
      </trkpt>
      <trkpt lat="47.59578" lon="-0.55492">
        <ele>39.07</ele>
        <time>2012-04-01T09:27:23Z</time>
      </trkpt>
      <trkpt lat="47.59577" lon="-0.55496">
        <ele>39.07</ele>
        <time>2012-04-01T09:27:24Z</time>
      </trkpt>
      <trkpt lat="47.59568" lon="-0.55513">
        <ele>41.47</ele>
        <time>2012-04-01T09:27:30Z</time>
      </trkpt>
      <trkpt lat="47.59554" lon="-0.55525">
        <ele>42.44</ele>
        <time>2012-04-01T09:27:36Z</time>
      </trkpt>
      <trkpt lat="47.59541" lon="-0.55532">
        <ele>43.88</ele>
        <time>2012-04-01T09:27:41Z</time>
      </trkpt>
      <trkpt lat="47.59528" lon="-0.55539">
        <ele>44.84</ele>
        <time>2012-04-01T09:27:46Z</time>
      </trkpt>
      <trkpt lat="47.59513" lon="-0.55548">
        <ele>46.28</ele>
        <time>2012-04-01T09:27:52Z</time>
      </trkpt>
      <trkpt lat="47.59505" lon="-0.55551">
        <ele>47.24</ele>
        <time>2012-04-01T09:27:55Z</time>
      </trkpt>
      <trkpt lat="47.59489" lon="-0.55555">
        <ele>48.68</ele>
        <time>2012-04-01T09:28:01Z</time>
      </trkpt>
      <trkpt lat="47.59472" lon="-0.55561">
        <ele>49.16</ele>
        <time>2012-04-01T09:28:07Z</time>
      </trkpt>
      <trkpt lat="47.59455" lon="-0.55567">
        <ele>50.13</ele>
        <time>2012-04-01T09:28:14Z</time>
      </trkpt>
      <trkpt lat="47.5944" lon="-0.55575">
        <ele>51.09</ele>
        <time>2012-04-01T09:28:20Z</time>
      </trkpt>
      <trkpt lat="47.59422" lon="-0.55583">
        <ele>50.61</ele>
        <time>2012-04-01T09:28:26Z</time>
      </trkpt>
      <trkpt lat="47.59417" lon="-0.55593">
        <ele>49.65</ele>
        <time>2012-04-01T09:28:29Z</time>
      </trkpt>
      <trkpt lat="47.59422" lon="-0.55603">
        <ele>50.13</ele>
        <time>2012-04-01T09:28:33Z</time>
      </trkpt>
      <trkpt lat="47.59433" lon="-0.55614">
        <ele>51.09</ele>
        <time>2012-04-01T09:28:38Z</time>
      </trkpt>
      <trkpt lat="47.59456" lon="-0.55636">
        <ele>51.09</ele>
        <time>2012-04-01T09:28:45Z</time>
      </trkpt>
      <trkpt lat="47.59459" lon="-0.5564">
        <ele>51.09</ele>
        <time>2012-04-01T09:28:46Z</time>
      </trkpt>
      <trkpt lat="47.59469" lon="-0.55653">
        <ele>51.09</ele>
        <time>2012-04-01T09:28:49Z</time>
      </trkpt>
      <trkpt lat="47.59507" lon="-0.557">
        <ele>51.57</ele>
        <time>2012-04-01T09:28:59Z</time>
      </trkpt>
      <trkpt lat="47.59523" lon="-0.55721">
        <ele>51.09</ele>
        <time>2012-04-01T09:29:03Z</time>
      </trkpt>
      <trkpt lat="47.59546" lon="-0.5574">
        <ele>51.09</ele>
        <time>2012-04-01T09:29:08Z</time>
      </trkpt>
      <trkpt lat="47.59576" lon="-0.55741">
        <ele>50.61</ele>
        <time>2012-04-01T09:29:13Z</time>
      </trkpt>
      <trkpt lat="47.59582" lon="-0.5574">
        <ele>50.13</ele>
        <time>2012-04-01T09:29:14Z</time>
      </trkpt>
      <trkpt lat="47.59609" lon="-0.5573">
        <ele>49.16</ele>
        <time>2012-04-01T09:29:18Z</time>
      </trkpt>
      <trkpt lat="47.59623" lon="-0.55728">
        <ele>49.16</ele>
        <time>2012-04-01T09:29:20Z</time>
      </trkpt>
      <trkpt lat="47.5965" lon="-0.55727">
        <ele>48.2</ele>
        <time>2012-04-01T09:29:24Z</time>
      </trkpt>
      <trkpt lat="47.5968" lon="-0.55737">
        <ele>48.68</ele>
        <time>2012-04-01T09:29:29Z</time>
      </trkpt>
      <trkpt lat="47.59703" lon="-0.55742">
        <ele>48.68</ele>
        <time>2012-04-01T09:29:33Z</time>
      </trkpt>
      <trkpt lat="47.59756" lon="-0.55728">
        <ele>48.68</ele>
        <time>2012-04-01T09:29:43Z</time>
      </trkpt>
      <trkpt lat="47.59768" lon="-0.5574">
        <ele>49.16</ele>
        <time>2012-04-01T09:29:47Z</time>
      </trkpt>
      <trkpt lat="47.59771" lon="-0.5575">
        <ele>49.65</ele>
        <time>2012-04-01T09:29:49Z</time>
      </trkpt>
      <trkpt lat="47.59777" lon="-0.55779">
        <ele>51.09</ele>
        <time>2012-04-01T09:29:54Z</time>
      </trkpt>
      <trkpt lat="47.59781" lon="-0.55802">
        <ele>52.05</ele>
        <time>2012-04-01T09:29:57Z</time>
      </trkpt>
      <trkpt lat="47.59785" lon="-0.55841">
        <ele>53.01</ele>
        <time>2012-04-01T09:30:02Z</time>
      </trkpt>
      <trkpt lat="47.59773" lon="-0.55854">
        <ele>53.97</ele>
        <time>2012-04-01T09:30:06Z</time>
      </trkpt>
      <trkpt lat="47.59765" lon="-0.55857">
        <ele>54.45</ele>
        <time>2012-04-01T09:30:08Z</time>
      </trkpt>
      <trkpt lat="47.59753" lon="-0.55884">
        <ele>53.97</ele>
        <time>2012-04-01T09:30:13Z</time>
      </trkpt>
      <trkpt lat="47.59755" lon="-0.55898">
        <ele>53.97</ele>
        <time>2012-04-01T09:30:15Z</time>
      </trkpt>
      <trkpt lat="47.59764" lon="-0.55933">
        <ele>53.01</ele>
        <time>2012-04-01T09:30:20Z</time>
      </trkpt>
      <trkpt lat="47.59775" lon="-0.55963">
        <ele>52.05</ele>
        <time>2012-04-01T09:30:24Z</time>
      </trkpt>
      <trkpt lat="47.5978" lon="-0.55982">
        <ele>50.13</ele>
        <time>2012-04-01T09:30:26Z</time>
      </trkpt>
      <trkpt lat="47.59784" lon="-0.56004">
        <ele>48.68</ele>
        <time>2012-04-01T09:30:28Z</time>
      </trkpt>
      <trkpt lat="47.59797" lon="-0.56065">
        <ele>44.36</ele>
        <time>2012-04-01T09:30:33Z</time>
      </trkpt>
      <trkpt lat="47.598" lon="-0.56078">
        <ele>44.84</ele>
        <time>2012-04-01T09:30:34Z</time>
      </trkpt>
      <trkpt lat="47.59831" lon="-0.56193">
        <ele>41.47</ele>
        <time>2012-04-01T09:30:44Z</time>
      </trkpt>
      <trkpt lat="47.59852" lon="-0.56222">
        <ele>41.47</ele>
        <time>2012-04-01T09:30:48Z</time>
      </trkpt>
      <trkpt lat="47.59872" lon="-0.56247">
        <ele>40.99</ele>
        <time>2012-04-01T09:30:52Z</time>
      </trkpt>
      <trkpt lat="47.59901" lon="-0.56331">
        <ele>39.55</ele>
        <time>2012-04-01T09:31:01Z</time>
      </trkpt>
      <trkpt lat="47.59922" lon="-0.56405">
        <ele>38.59</ele>
        <time>2012-04-01T09:31:09Z</time>
      </trkpt>
      <trkpt lat="47.59926" lon="-0.56423">
        <ele>38.59</ele>
        <time>2012-04-01T09:31:11Z</time>
      </trkpt>
      <trkpt lat="47.59948" lon="-0.56453">
        <ele>38.59</ele>
        <time>2012-04-01T09:31:16Z</time>
      </trkpt>
      <trkpt lat="47.59954" lon="-0.56454">
        <ele>38.11</ele>
        <time>2012-04-01T09:31:17Z</time>
      </trkpt>
      <trkpt lat="47.59979" lon="-0.56478">
        <ele>37.63</ele>
        <time>2012-04-01T09:31:22Z</time>
      </trkpt>
      <trkpt lat="47.60001" lon="-0.5657">
        <ele>36.67</ele>
        <time>2012-04-01T09:31:32Z</time>
      </trkpt>
      <trkpt lat="47.60009" lon="-0.566">
        <ele>36.67</ele>
        <time>2012-04-01T09:31:35Z</time>
      </trkpt>
      <trkpt lat="47.60021" lon="-0.56664">
        <ele>35.71</ele>
        <time>2012-04-01T09:31:42Z</time>
      </trkpt>
      <trkpt lat="47.60026" lon="-0.5671">
        <ele>34.74</ele>
        <time>2012-04-01T09:31:47Z</time>
      </trkpt>
      <trkpt lat="47.60026" lon="-0.56718">
        <ele>34.26</ele>
        <time>2012-04-01T09:31:48Z</time>
      </trkpt>
      <trkpt lat="47.60027" lon="-0.56744">
        <ele>33.78</ele>
        <time>2012-04-01T09:31:53Z</time>
      </trkpt>
      <trkpt lat="47.60022" lon="-0.56774">
        <ele>33.78</ele>
        <time>2012-04-01T09:32:00Z</time>
      </trkpt>
      <trkpt lat="47.6001" lon="-0.56816">
        <ele>34.26</ele>
        <time>2012-04-01T09:32:06Z</time>
      </trkpt>
      <trkpt lat="47.60008" lon="-0.56824">
        <ele>34.26</ele>
        <time>2012-04-01T09:32:07Z</time>
      </trkpt>
      <trkpt lat="47.60003" lon="-0.5684">
        <ele>33.78</ele>
        <time>2012-04-01T09:32:09Z</time>
      </trkpt>
      <trkpt lat="47.59991" lon="-0.56871">
        <ele>33.78</ele>
        <time>2012-04-01T09:32:13Z</time>
      </trkpt>
      <trkpt lat="47.59978" lon="-0.56899">
        <ele>33.3</ele>
        <time>2012-04-01T09:32:17Z</time>
      </trkpt>
      <trkpt lat="47.5997" lon="-0.56919">
        <ele>33.3</ele>
        <time>2012-04-01T09:32:20Z</time>
      </trkpt>
      <trkpt lat="47.59956" lon="-0.56931">
        <ele>33.78</ele>
        <time>2012-04-01T09:32:24Z</time>
      </trkpt>
      <trkpt lat="47.59917" lon="-0.56961">
        <ele>33.78</ele>
        <time>2012-04-01T09:32:32Z</time>
      </trkpt>
      <trkpt lat="47.5987" lon="-0.56995">
        <ele>33.3</ele>
        <time>2012-04-01T09:32:41Z</time>
      </trkpt>
      <trkpt lat="47.59865" lon="-0.56999">
        <ele>33.3</ele>
        <time>2012-04-01T09:32:42Z</time>
      </trkpt>
      <trkpt lat="47.59855" lon="-0.57008">
        <ele>32.82</ele>
        <time>2012-04-01T09:32:44Z</time>
      </trkpt>
      <trkpt lat="47.59847" lon="-0.57019">
        <ele>32.82</ele>
        <time>2012-04-01T09:32:46Z</time>
      </trkpt>
      <trkpt lat="47.59822" lon="-0.57073">
        <ele>33.78</ele>
        <time>2012-04-01T09:32:54Z</time>
      </trkpt>
      <trkpt lat="47.59795" lon="-0.57096">
        <ele>33.78</ele>
        <time>2012-04-01T09:33:00Z</time>
      </trkpt>
      <trkpt lat="47.59776" lon="-0.57109">
        <ele>34.74</ele>
        <time>2012-04-01T09:33:04Z</time>
      </trkpt>
      <trkpt lat="47.59767" lon="-0.57126">
        <ele>35.23</ele>
        <time>2012-04-01T09:33:08Z</time>
      </trkpt>
      <trkpt lat="47.59772" lon="-0.57139">
        <ele>36.19</ele>
        <time>2012-04-01T09:33:11Z</time>
      </trkpt>
      <trkpt lat="47.59777" lon="-0.57148">
        <ele>35.23</ele>
        <time>2012-04-01T09:33:13Z</time>
      </trkpt>
      <trkpt lat="47.59792" lon="-0.57178">
        <ele>35.23</ele>
        <time>2012-04-01T09:33:18Z</time>
      </trkpt>
      <trkpt lat="47.59785" lon="-0.57197">
        <ele>35.23</ele>
        <time>2012-04-01T09:33:22Z</time>
      </trkpt>
      <trkpt lat="47.59775" lon="-0.57197">
        <ele>35.23</ele>
        <time>2012-04-01T09:33:24Z</time>
      </trkpt>
      <trkpt lat="47.59748" lon="-0.57199">
        <ele>34.74</ele>
        <time>2012-04-01T09:33:29Z</time>
      </trkpt>
      <trkpt lat="47.597" lon="-0.57203">
        <ele>34.26</ele>
        <time>2012-04-01T09:33:38Z</time>
      </trkpt>
      <trkpt lat="47.59695" lon="-0.57204">
        <ele>34.74</ele>
        <time>2012-04-01T09:33:39Z</time>
      </trkpt>
      <trkpt lat="47.59647" lon="-0.57212">
        <ele>35.71</ele>
        <time>2012-04-01T09:33:48Z</time>
      </trkpt>
      <trkpt lat="47.59626" lon="-0.57212">
        <ele>35.23</ele>
        <time>2012-04-01T09:33:52Z</time>
      </trkpt>
      <trkpt lat="47.59579" lon="-0.57193">
        <ele>35.71</ele>
        <time>2012-04-01T09:34:01Z</time>
      </trkpt>
      <trkpt lat="47.59563" lon="-0.57184">
        <ele>35.23</ele>
        <time>2012-04-01T09:34:04Z</time>
      </trkpt>
      <trkpt lat="47.59517" lon="-0.57176">
        <ele>36.19</ele>
        <time>2012-04-01T09:34:12Z</time>
      </trkpt>
      <trkpt lat="47.59479" lon="-0.57172">
        <ele>36.19</ele>
        <time>2012-04-01T09:34:19Z</time>
      </trkpt>
      <trkpt lat="47.59474" lon="-0.57171">
        <ele>36.67</ele>
        <time>2012-04-01T09:34:20Z</time>
      </trkpt>
      <trkpt lat="47.59453" lon="-0.57172">
        <ele>36.67</ele>
        <time>2012-04-01T09:34:24Z</time>
      </trkpt>
      <trkpt lat="47.59405" lon="-0.57178">
        <ele>36.67</ele>
        <time>2012-04-01T09:34:33Z</time>
      </trkpt>
      <trkpt lat="47.59347" lon="-0.57185">
        <ele>37.15</ele>
        <time>2012-04-01T09:34:43Z</time>
      </trkpt>
      <trkpt lat="47.5933" lon="-0.57188">
        <ele>37.15</ele>
        <time>2012-04-01T09:34:46Z</time>
      </trkpt>
      <trkpt lat="47.5928" lon="-0.57208">
        <ele>38.11</ele>
        <time>2012-04-01T09:34:55Z</time>
      </trkpt>
      <trkpt lat="47.59242" lon="-0.57225">
        <ele>38.11</ele>
        <time>2012-04-01T09:35:02Z</time>
      </trkpt>
      <trkpt lat="47.59225" lon="-0.57212">
        <ele>38.11</ele>
        <time>2012-04-01T09:35:06Z</time>
      </trkpt>
      <trkpt lat="47.59207" lon="-0.57152">
        <ele>38.11</ele>
        <time>2012-04-01T09:35:14Z</time>
      </trkpt>
      <trkpt lat="47.59187" lon="-0.57125">
        <ele>37.63</ele>
        <time>2012-04-01T09:35:19Z</time>
      </trkpt>
      <trkpt lat="47.59172" lon="-0.57125">
        <ele>37.63</ele>
        <time>2012-04-01T09:35:22Z</time>
      </trkpt>
      <trkpt lat="47.59116" lon="-0.57159">
        <ele>38.11</ele>
        <time>2012-04-01T09:35:33Z</time>
      </trkpt>
      <trkpt lat="47.59078" lon="-0.57179">
        <ele>37.63</ele>
        <time>2012-04-01T09:35:40Z</time>
      </trkpt>
      <trkpt lat="47.59067" lon="-0.57185">
        <ele>37.63</ele>
        <time>2012-04-01T09:35:42Z</time>
      </trkpt>
      <trkpt lat="47.59029" lon="-0.57207">
        <ele>37.63</ele>
        <time>2012-04-01T09:35:49Z</time>
      </trkpt>
      <trkpt lat="47.59005" lon="-0.57211">
        <ele>38.11</ele>
        <time>2012-04-01T09:35:53Z</time>
      </trkpt>
      <trkpt lat="47.5896" lon="-0.57193">
        <ele>37.63</ele>
        <time>2012-04-01T09:36:01Z</time>
      </trkpt>
      <trkpt lat="47.58916" lon="-0.57174">
        <ele>38.11</ele>
        <time>2012-04-01T09:36:09Z</time>
      </trkpt>
      <trkpt lat="47.58872" lon="-0.57158">
        <ele>39.07</ele>
        <time>2012-04-01T09:36:17Z</time>
      </trkpt>
      <trkpt lat="47.58866" lon="-0.57156">
        <ele>39.07</ele>
        <time>2012-04-01T09:36:18Z</time>
      </trkpt>
      <trkpt lat="47.58857" lon="-0.57139">
        <ele>39.55</ele>
        <time>2012-04-01T09:36:22Z</time>
      </trkpt>
      <trkpt lat="47.58861" lon="-0.57127">
        <ele>39.55</ele>
        <time>2012-04-01T09:36:24Z</time>
      </trkpt>
      <trkpt lat="47.58867" lon="-0.57116">
        <ele>39.07</ele>
        <time>2012-04-01T09:36:26Z</time>
      </trkpt>
      <trkpt lat="47.58881" lon="-0.5708">
        <ele>39.55</ele>
        <time>2012-04-01T09:36:31Z</time>
      </trkpt>
      <trkpt lat="47.58883" lon="-0.57043">
        <ele>38.59</ele>
        <time>2012-04-01T09:36:35Z</time>
      </trkpt>
      <trkpt lat="47.58882" lon="-0.57024">
        <ele>38.59</ele>
        <time>2012-04-01T09:36:37Z</time>
      </trkpt>
      <trkpt lat="47.58885" lon="-0.56987">
        <ele>39.07</ele>
        <time>2012-04-01T09:36:41Z</time>
      </trkpt>
      <trkpt lat="47.58882" lon="-0.56941">
        <ele>37.63</ele>
        <time>2012-04-01T09:36:46Z</time>
      </trkpt>
      <trkpt lat="47.58859" lon="-0.56883">
        <ele>37.15</ele>
        <time>2012-04-01T09:36:53Z</time>
      </trkpt>
      <trkpt lat="47.58833" lon="-0.56813">
        <ele>37.15</ele>
        <time>2012-04-01T09:37:01Z</time>
      </trkpt>
      <trkpt lat="47.5883" lon="-0.56804">
        <ele>37.15</ele>
        <time>2012-04-01T09:37:02Z</time>
      </trkpt>
      <trkpt lat="47.58814" lon="-0.56777">
        <ele>37.15</ele>
        <time>2012-04-01T09:37:06Z</time>
      </trkpt>
      <trkpt lat="47.58775" lon="-0.56732">
        <ele>37.63</ele>
        <time>2012-04-01T09:37:15Z</time>
      </trkpt>
      <trkpt lat="47.58758" lon="-0.56715">
        <ele>38.11</ele>
        <time>2012-04-01T09:37:19Z</time>
      </trkpt>
      <trkpt lat="47.58738" lon="-0.56704">
        <ele>38.59</ele>
        <time>2012-04-01T09:37:23Z</time>
      </trkpt>
      <trkpt lat="47.587" lon="-0.56687">
        <ele>38.59</ele>
        <time>2012-04-01T09:37:30Z</time>
      </trkpt>
      <trkpt lat="47.58653" lon="-0.56668">
        <ele>39.55</ele>
        <time>2012-04-01T09:37:39Z</time>
      </trkpt>
      <trkpt lat="47.58615" lon="-0.56657">
        <ele>39.55</ele>
        <time>2012-04-01T09:37:47Z</time>
      </trkpt>
      <trkpt lat="47.5861" lon="-0.56657">
        <ele>39.55</ele>
        <time>2012-04-01T09:37:48Z</time>
      </trkpt>
      <trkpt lat="47.58574" lon="-0.56663">
        <ele>40.51</ele>
        <time>2012-04-01T09:37:56Z</time>
      </trkpt>
      <trkpt lat="47.58543" lon="-0.56676">
        <ele>40.99</ele>
        <time>2012-04-01T09:38:04Z</time>
      </trkpt>
      <trkpt lat="47.58512" lon="-0.56692">
        <ele>42.44</ele>
        <time>2012-04-01T09:38:12Z</time>
      </trkpt>
      <trkpt lat="47.58504" lon="-0.56696">
        <ele>41.95</ele>
        <time>2012-04-01T09:38:14Z</time>
      </trkpt>
      <trkpt lat="47.58485" lon="-0.56705">
        <ele>42.44</ele>
        <time>2012-04-01T09:38:19Z</time>
      </trkpt>
      <trkpt lat="47.58449" lon="-0.5672">
        <ele>44.36</ele>
        <time>2012-04-01T09:38:29Z</time>
      </trkpt>
      <trkpt lat="47.58426" lon="-0.56728">
        <ele>46.28</ele>
        <time>2012-04-01T09:38:36Z</time>
      </trkpt>
      <trkpt lat="47.58421" lon="-0.56731">
        <ele>46.28</ele>
        <time>2012-04-01T09:38:38Z</time>
      </trkpt>
      <trkpt lat="47.58413" lon="-0.56714">
        <ele>47.72</ele>
        <time>2012-04-01T09:38:43Z</time>
      </trkpt>
      <trkpt lat="47.58403" lon="-0.56669">
        <ele>48.68</ele>
        <time>2012-04-01T09:38:52Z</time>
      </trkpt>
      <trkpt lat="47.58395" lon="-0.56641">
        <ele>50.13</ele>
        <time>2012-04-01T09:38:58Z</time>
      </trkpt>
      <trkpt lat="47.58384" lon="-0.5659">
        <ele>51.09</ele>
        <time>2012-04-01T09:39:07Z</time>
      </trkpt>
      <trkpt lat="47.58375" lon="-0.56549">
        <ele>52.53</ele>
        <time>2012-04-01T09:39:15Z</time>
      </trkpt>
      <trkpt lat="47.58368" lon="-0.56515">
        <ele>53.49</ele>
        <time>2012-04-01T09:39:22Z</time>
      </trkpt>
      <trkpt lat="47.58359" lon="-0.56485">
        <ele>54.93</ele>
        <time>2012-04-01T09:39:29Z</time>
      </trkpt>
      <trkpt lat="47.58351" lon="-0.56455">
        <ele>55.89</ele>
        <time>2012-04-01T09:39:35Z</time>
      </trkpt>
      <trkpt lat="47.58338" lon="-0.56407">
        <ele>56.37</ele>
        <time>2012-04-01T09:39:44Z</time>
      </trkpt>
      <trkpt lat="47.58324" lon="-0.56361">
        <ele>57.82</ele>
        <time>2012-04-01T09:39:53Z</time>
      </trkpt>
      <trkpt lat="47.5832" lon="-0.56346">
        <ele>57.82</ele>
        <time>2012-04-01T09:39:56Z</time>
      </trkpt>
      <trkpt lat="47.58302" lon="-0.56289">
        <ele>58.3</ele>
        <time>2012-04-01T09:40:06Z</time>
      </trkpt>
      <trkpt lat="47.58287" lon="-0.5624">
        <ele>58.3</ele>
        <time>2012-04-01T09:40:14Z</time>
      </trkpt>
      <trkpt lat="47.58272" lon="-0.56191">
        <ele>58.3</ele>
        <time>2012-04-01T09:40:21Z</time>
      </trkpt>
      <trkpt lat="47.58261" lon="-0.56155">
        <ele>58.3</ele>
        <time>2012-04-01T09:40:26Z</time>
      </trkpt>
      <trkpt lat="47.58256" lon="-0.56132">
        <ele>58.3</ele>
        <time>2012-04-01T09:40:29Z</time>
      </trkpt>
      <trkpt lat="47.58235" lon="-0.56061">
        <ele>58.3</ele>
        <time>2012-04-01T09:40:39Z</time>
      </trkpt>
      <trkpt lat="47.58217" lon="-0.56015">
        <ele>58.3</ele>
        <time>2012-04-01T09:40:46Z</time>
      </trkpt>
      <trkpt lat="47.58188" lon="-0.55961">
        <ele>58.78</ele>
        <time>2012-04-01T09:40:55Z</time>
      </trkpt>
      <trkpt lat="47.58166" lon="-0.55921">
        <ele>59.74</ele>
        <time>2012-04-01T09:41:02Z</time>
      </trkpt>
      <trkpt lat="47.58139" lon="-0.5587">
        <ele>60.22</ele>
        <time>2012-04-01T09:41:10Z</time>
      </trkpt>
      <trkpt lat="47.58118" lon="-0.55824">
        <ele>59.26</ele>
        <time>2012-04-01T09:41:17Z</time>
      </trkpt>
      <trkpt lat="47.58084" lon="-0.55769">
        <ele>59.74</ele>
        <time>2012-04-01T09:41:26Z</time>
      </trkpt>
      <trkpt lat="47.5808" lon="-0.55763">
        <ele>59.74</ele>
        <time>2012-04-01T09:41:27Z</time>
      </trkpt>
      <trkpt lat="47.58041" lon="-0.55713">
        <ele>59.74</ele>
        <time>2012-04-01T09:41:36Z</time>
      </trkpt>
      <trkpt lat="47.58007" lon="-0.55633">
        <ele>59.74</ele>
        <time>2012-04-01T09:41:47Z</time>
      </trkpt>
      <trkpt lat="47.57984" lon="-0.55553">
        <ele>59.74</ele>
        <time>2012-04-01T09:41:57Z</time>
      </trkpt>
      <trkpt lat="47.57964" lon="-0.55481">
        <ele>59.26</ele>
        <time>2012-04-01T09:42:06Z</time>
      </trkpt>
      <trkpt lat="47.57941" lon="-0.55412">
        <ele>59.74</ele>
        <time>2012-04-01T09:42:15Z</time>
      </trkpt>
      <trkpt lat="47.57927" lon="-0.55362">
        <ele>59.26</ele>
        <time>2012-04-01T09:42:22Z</time>
      </trkpt>
      <trkpt lat="47.57926" lon="-0.55357">
        <ele>59.26</ele>
        <time>2012-04-01T09:42:23Z</time>
      </trkpt>
      <trkpt lat="47.57914" lon="-0.55336">
        <ele>57.82</ele>
        <time>2012-04-01T09:42:29Z</time>
      </trkpt>
      <trkpt lat="47.57906" lon="-0.55299">
        <ele>59.74</ele>
        <time>2012-04-01T09:42:34Z</time>
      </trkpt>
      <trkpt lat="47.57898" lon="-0.55268">
        <ele>59.26</ele>
        <time>2012-04-01T09:42:38Z</time>
      </trkpt>
      <trkpt lat="47.57896" lon="-0.55235">
        <ele>59.26</ele>
        <time>2012-04-01T09:42:42Z</time>
      </trkpt>
      <trkpt lat="47.579" lon="-0.55175">
        <ele>58.78</ele>
        <time>2012-04-01T09:42:49Z</time>
      </trkpt>
      <trkpt lat="47.57896" lon="-0.5514">
        <ele>57.34</ele>
        <time>2012-04-01T09:42:53Z</time>
      </trkpt>
      <trkpt lat="47.57893" lon="-0.55062">
        <ele>55.41</ele>
        <time>2012-04-01T09:43:01Z</time>
      </trkpt>
      <trkpt lat="47.57891" lon="-0.55042">
        <ele>54.93</ele>
        <time>2012-04-01T09:43:03Z</time>
      </trkpt>
      <trkpt lat="47.57888" lon="-0.54987">
        <ele>53.49</ele>
        <time>2012-04-01T09:43:08Z</time>
      </trkpt>
      <trkpt lat="47.57881" lon="-0.5493">
        <ele>50.13</ele>
        <time>2012-04-01T09:43:13Z</time>
      </trkpt>
      <trkpt lat="47.57875" lon="-0.5488">
        <ele>47.24</ele>
        <time>2012-04-01T09:43:18Z</time>
      </trkpt>
      <trkpt lat="47.57873" lon="-0.54871">
        <ele>47.24</ele>
        <time>2012-04-01T09:43:19Z</time>
      </trkpt>
      <trkpt lat="47.57873" lon="-0.54843">
        <ele>44.84</ele>
        <time>2012-04-01T09:43:23Z</time>
      </trkpt>
      <trkpt lat="47.57883" lon="-0.54833">
        <ele>43.88</ele>
        <time>2012-04-01T09:43:25Z</time>
      </trkpt>
      <trkpt lat="47.57901" lon="-0.54823">
        <ele>45.32</ele>
        <time>2012-04-01T09:43:28Z</time>
      </trkpt>
      <trkpt lat="47.57923" lon="-0.54811">
        <ele>48.68</ele>
        <time>2012-04-01T09:43:32Z</time>
      </trkpt>
      <trkpt lat="47.57961" lon="-0.54785">
        <ele>48.2</ele>
        <time>2012-04-01T09:43:40Z</time>
      </trkpt>
      <trkpt lat="47.58001" lon="-0.54775">
        <ele>46.76</ele>
        <time>2012-04-01T09:43:47Z</time>
      </trkpt>
      <trkpt lat="47.58015" lon="-0.54773">
        <ele>44.84</ele>
        <time>2012-04-01T09:43:52Z</time>
      </trkpt>
      <trkpt lat="47.58019" lon="-0.54771">
        <ele>44.36</ele>
        <time>2012-04-01T09:43:53Z</time>
      </trkpt>
      <trkpt lat="47.58023" lon="-0.54767">
        <ele>43.88</ele>
        <time>2012-04-01T09:43:54Z</time>
      </trkpt>
      <trkpt lat="47.58031" lon="-0.54759">
        <ele>42.92</ele>
        <time>2012-04-01T09:43:56Z</time>
      </trkpt>
      <trkpt lat="47.58041" lon="-0.54739">
        <ele>40.51</ele>
        <time>2012-04-01T09:43:59Z</time>
      </trkpt>
      <trkpt lat="47.58046" lon="-0.54703">
        <ele>38.11</ele>
        <time>2012-04-01T09:44:03Z</time>
      </trkpt>
      <trkpt lat="47.58047" lon="-0.54694">
        <ele>36.67</ele>
        <time>2012-04-01T09:44:04Z</time>
      </trkpt>
      <trkpt lat="47.58045" lon="-0.54633">
        <ele>32.34</ele>
        <time>2012-04-01T09:44:10Z</time>
      </trkpt>
      <trkpt lat="47.58046" lon="-0.54621">
        <ele>31.86</ele>
        <time>2012-04-01T09:44:11Z</time>
      </trkpt>
      <trkpt lat="47.58057" lon="-0.54588">
        <ele>31.38</ele>
        <time>2012-04-01T09:44:15Z</time>
      </trkpt>
      <trkpt lat="47.58083" lon="-0.54565">
        <ele>29.46</ele>
        <time>2012-04-01T09:44:19Z</time>
      </trkpt>
      <trkpt lat="47.58093" lon="-0.54556">
        <ele>28.98</ele>
        <time>2012-04-01T09:44:21Z</time>
      </trkpt>
      <trkpt lat="47.58104" lon="-0.54531">
        <ele>28.02</ele>
        <time>2012-04-01T09:44:25Z</time>
      </trkpt>
      <trkpt lat="47.58106" lon="-0.54516">
        <ele>27.53</ele>
        <time>2012-04-01T09:44:27Z</time>
      </trkpt>
      <trkpt lat="47.58111" lon="-0.54475">
        <ele>27.05</ele>
        <time>2012-04-01T09:44:32Z</time>
      </trkpt>
      <trkpt lat="47.58113" lon="-0.54459">
        <ele>26.57</ele>
        <time>2012-04-01T09:44:34Z</time>
      </trkpt>
      <trkpt lat="47.58131" lon="-0.54391">
        <ele>26.09</ele>
        <time>2012-04-01T09:44:43Z</time>
      </trkpt>
      <trkpt lat="47.58155" lon="-0.5433">
        <ele>25.61</ele>
        <time>2012-04-01T09:44:52Z</time>
      </trkpt>
      <trkpt lat="47.58174" lon="-0.54274">
        <ele>25.13</ele>
        <time>2012-04-01T09:45:00Z</time>
      </trkpt>
      <trkpt lat="47.58188" lon="-0.54233">
        <ele>26.57</ele>
        <time>2012-04-01T09:45:06Z</time>
      </trkpt>
      <trkpt lat="47.58196" lon="-0.54202">
        <ele>26.57</ele>
        <time>2012-04-01T09:45:11Z</time>
      </trkpt>
      <trkpt lat="47.58198" lon="-0.5418">
        <ele>26.57</ele>
        <time>2012-04-01T09:45:14Z</time>
      </trkpt>
      <trkpt lat="47.58212" lon="-0.54154">
        <ele>25.61</ele>
        <time>2012-04-01T09:45:19Z</time>
      </trkpt>
      <trkpt lat="47.58216" lon="-0.54152">
        <ele>25.61</ele>
        <time>2012-04-01T09:45:20Z</time>
      </trkpt>
      <trkpt lat="47.58237" lon="-0.54137">
        <ele>26.09</ele>
        <time>2012-04-01T09:45:25Z</time>
      </trkpt>
      <trkpt lat="47.58269" lon="-0.54115">
        <ele>25.61</ele>
        <time>2012-04-01T09:45:32Z</time>
      </trkpt>
      <trkpt lat="47.58313" lon="-0.54084">
        <ele>26.09</ele>
        <time>2012-04-01T09:45:41Z</time>
      </trkpt>
      <trkpt lat="47.58349" lon="-0.54063">
        <ele>27.05</ele>
        <time>2012-04-01T09:45:48Z</time>
      </trkpt>
      <trkpt lat="47.58386" lon="-0.54046">
        <ele>26.57</ele>
        <time>2012-04-01T09:45:55Z</time>
      </trkpt>
      <trkpt lat="47.58405" lon="-0.54031">
        <ele>26.57</ele>
        <time>2012-04-01T09:45:59Z</time>
      </trkpt>
      <trkpt lat="47.58442" lon="-0.53979">
        <ele>26.57</ele>
        <time>2012-04-01T09:46:09Z</time>
      </trkpt>
      <trkpt lat="47.58443" lon="-0.53959">
        <ele>26.09</ele>
        <time>2012-04-01T09:46:13Z</time>
      </trkpt>
      <trkpt lat="47.58422" lon="-0.53959">
        <ele>25.61</ele>
        <time>2012-04-01T09:46:17Z</time>
      </trkpt>
      <trkpt lat="47.58417" lon="-0.53957">
        <ele>25.61</ele>
        <time>2012-04-01T09:46:18Z</time>
      </trkpt>
      <trkpt lat="47.5837" lon="-0.53928">
        <ele>26.09</ele>
        <time>2012-04-01T09:46:27Z</time>
      </trkpt>
      <trkpt lat="47.58319" lon="-0.53894">
        <ele>27.05</ele>
        <time>2012-04-01T09:46:37Z</time>
      </trkpt>
      <trkpt lat="47.58285" lon="-0.53877">
        <ele>25.13</ele>
        <time>2012-04-01T09:46:43Z</time>
      </trkpt>
      <trkpt lat="47.58273" lon="-0.53871">
        <ele>24.65</ele>
        <time>2012-04-01T09:46:45Z</time>
      </trkpt>
      <trkpt lat="47.5826" lon="-0.53866">
        <ele>24.65</ele>
        <time>2012-04-01T09:46:47Z</time>
      </trkpt>
      <trkpt lat="47.58206" lon="-0.53841">
        <ele>23.21</ele>
        <time>2012-04-01T09:46:55Z</time>
      </trkpt>
      <trkpt lat="47.58152" lon="-0.53826">
        <ele>21.77</ele>
        <time>2012-04-01T09:47:02Z</time>
      </trkpt>
      <trkpt lat="47.58095" lon="-0.53828">
        <ele>20.32</ele>
        <time>2012-04-01T09:47:10Z</time>
      </trkpt>
      <trkpt lat="47.58038" lon="-0.53846">
        <ele>20.32</ele>
        <time>2012-04-01T09:47:19Z</time>
      </trkpt>
      <trkpt lat="47.57989" lon="-0.53862">
        <ele>20.32</ele>
        <time>2012-04-01T09:47:27Z</time>
      </trkpt>
      <trkpt lat="47.57984" lon="-0.53864">
        <ele>20.81</ele>
        <time>2012-04-01T09:47:28Z</time>
      </trkpt>
      <trkpt lat="47.57969" lon="-0.53854">
        <ele>21.29</ele>
        <time>2012-04-01T09:47:32Z</time>
      </trkpt>
      <trkpt lat="47.57967" lon="-0.53848">
        <ele>21.77</ele>
        <time>2012-04-01T09:47:33Z</time>
      </trkpt>
      <trkpt lat="47.57964" lon="-0.53825">
        <ele>19.84</ele>
        <time>2012-04-01T09:47:36Z</time>
      </trkpt>
      <trkpt lat="47.57958" lon="-0.53784">
        <ele>21.77</ele>
        <time>2012-04-01T09:47:41Z</time>
      </trkpt>
      <trkpt lat="47.57946" lon="-0.53715">
        <ele>20.32</ele>
        <time>2012-04-01T09:47:50Z</time>
      </trkpt>
      <trkpt lat="47.57939" lon="-0.53679">
        <ele>20.32</ele>
        <time>2012-04-01T09:47:55Z</time>
      </trkpt>
      <trkpt lat="47.57932" lon="-0.53626">
        <ele>19.84</ele>
        <time>2012-04-01T09:48:02Z</time>
      </trkpt>
      <trkpt lat="47.57924" lon="-0.53557">
        <ele>18.88</ele>
        <time>2012-04-01T09:48:11Z</time>
      </trkpt>
      <trkpt lat="47.57919" lon="-0.53493">
        <ele>18.4</ele>
        <time>2012-04-01T09:48:19Z</time>
      </trkpt>
      <trkpt lat="47.57919" lon="-0.53477">
        <ele>18.88</ele>
        <time>2012-04-01T09:48:21Z</time>
      </trkpt>
      <trkpt lat="47.5792" lon="-0.53433">
        <ele>18.88</ele>
        <time>2012-04-01T09:48:27Z</time>
      </trkpt>
      <trkpt lat="47.57912" lon="-0.53406">
        <ele>17.92</ele>
        <time>2012-04-01T09:48:32Z</time>
      </trkpt>
      <trkpt lat="47.57908" lon="-0.53404">
        <ele>17.92</ele>
        <time>2012-04-01T09:48:33Z</time>
      </trkpt>
      <trkpt lat="47.57861" lon="-0.53395">
        <ele>17.44</ele>
        <time>2012-04-01T09:48:42Z</time>
      </trkpt>
      <trkpt lat="47.57829" lon="-0.53391">
        <ele>17.92</ele>
        <time>2012-04-01T09:48:48Z</time>
      </trkpt>
      <trkpt lat="47.57812" lon="-0.53392">
        <ele>17.92</ele>
        <time>2012-04-01T09:48:51Z</time>
      </trkpt>
      <trkpt lat="47.57774" lon="-0.53386">
        <ele>16.96</ele>
        <time>2012-04-01T09:48:58Z</time>
      </trkpt>
      <trkpt lat="47.57723" lon="-0.5338">
        <ele>16.96</ele>
        <time>2012-04-01T09:49:07Z</time>
      </trkpt>
      <trkpt lat="47.57708" lon="-0.5338">
        <ele>16.48</ele>
        <time>2012-04-01T09:49:10Z</time>
      </trkpt>
      <trkpt lat="47.57669" lon="-0.53386">
        <ele>16.96</ele>
        <time>2012-04-01T09:49:17Z</time>
      </trkpt>
      <trkpt lat="47.57664" lon="-0.53386">
        <ele>16.48</ele>
        <time>2012-04-01T09:49:18Z</time>
      </trkpt>
      <trkpt lat="47.57627" lon="-0.53385">
        <ele>16</ele>
        <time>2012-04-01T09:49:25Z</time>
      </trkpt>
      <trkpt lat="47.57596" lon="-0.53381">
        <ele>16.48</ele>
        <time>2012-04-01T09:49:31Z</time>
      </trkpt>
      <trkpt lat="47.57562" lon="-0.53369">
        <ele>15.52</ele>
        <time>2012-04-01T09:49:38Z</time>
      </trkpt>
      <trkpt lat="47.57557" lon="-0.53368">
        <ele>15.52</ele>
        <time>2012-04-01T09:49:39Z</time>
      </trkpt>
      <trkpt lat="47.57533" lon="-0.53353">
        <ele>15.52</ele>
        <time>2012-04-01T09:49:45Z</time>
      </trkpt>
      <trkpt lat="47.57525" lon="-0.53366">
        <ele>16</ele>
        <time>2012-04-01T09:49:49Z</time>
      </trkpt>
      <trkpt lat="47.57521" lon="-0.53391">
        <ele>16.48</ele>
        <time>2012-04-01T09:49:54Z</time>
      </trkpt>
      <trkpt lat="47.57504" lon="-0.534">
        <ele>16.48</ele>
        <time>2012-04-01T09:49:58Z</time>
      </trkpt>
      <trkpt lat="47.57499" lon="-0.53401">
        <ele>16.48</ele>
        <time>2012-04-01T09:49:59Z</time>
      </trkpt>
      <trkpt lat="47.5744" lon="-0.53416">
        <ele>16.48</ele>
        <time>2012-04-01T09:50:10Z</time>
      </trkpt>
      <trkpt lat="47.57402" lon="-0.53427">
        <ele>16.48</ele>
        <time>2012-04-01T09:50:17Z</time>
      </trkpt>
      <trkpt lat="47.57366" lon="-0.53446">
        <ele>16.48</ele>
        <time>2012-04-01T09:50:24Z</time>
      </trkpt>
      <trkpt lat="47.5732" lon="-0.53481">
        <ele>16.48</ele>
        <time>2012-04-01T09:50:33Z</time>
      </trkpt>
      <trkpt lat="47.57305" lon="-0.53498">
        <ele>16.96</ele>
        <time>2012-04-01T09:50:36Z</time>
      </trkpt>
      <trkpt lat="47.57297" lon="-0.5351">
        <ele>16.96</ele>
        <time>2012-04-01T09:50:38Z</time>
      </trkpt>
      <trkpt lat="47.57291" lon="-0.5355">
        <ele>16.48</ele>
        <time>2012-04-01T09:50:43Z</time>
      </trkpt>
      <trkpt lat="47.57289" lon="-0.53566">
        <ele>16.48</ele>
        <time>2012-04-01T09:50:45Z</time>
      </trkpt>
      <trkpt lat="47.57283" lon="-0.53596">
        <ele>17.44</ele>
        <time>2012-04-01T09:50:49Z</time>
      </trkpt>
      <trkpt lat="47.57271" lon="-0.53665">
        <ele>18.88</ele>
        <time>2012-04-01T09:50:58Z</time>
      </trkpt>
      <trkpt lat="47.57262" lon="-0.5373">
        <ele>18.88</ele>
        <time>2012-04-01T09:51:06Z</time>
      </trkpt>
      <trkpt lat="47.57265" lon="-0.53796">
        <ele>17.92</ele>
        <time>2012-04-01T09:51:14Z</time>
      </trkpt>
      <trkpt lat="47.57266" lon="-0.53804">
        <ele>17.92</ele>
        <time>2012-04-01T09:51:15Z</time>
      </trkpt>
      <trkpt lat="47.57255" lon="-0.53831">
        <ele>17.44</ele>
        <time>2012-04-01T09:51:19Z</time>
      </trkpt>
      <trkpt lat="47.57243" lon="-0.53836">
        <ele>17.92</ele>
        <time>2012-04-01T09:51:21Z</time>
      </trkpt>
      <trkpt lat="47.5723" lon="-0.53837">
        <ele>17.44</ele>
        <time>2012-04-01T09:51:23Z</time>
      </trkpt>
      <trkpt lat="47.57191" lon="-0.53844">
        <ele>16</ele>
        <time>2012-04-01T09:51:29Z</time>
      </trkpt>
      <trkpt lat="47.57166" lon="-0.53852">
        <ele>15.52</ele>
        <time>2012-04-01T09:51:33Z</time>
      </trkpt>
      <trkpt lat="47.57119" lon="-0.5388">
        <ele>16</ele>
        <time>2012-04-01T09:51:41Z</time>
      </trkpt>
      <trkpt lat="47.57079" lon="-0.53905">
        <ele>15.52</ele>
        <time>2012-04-01T09:51:48Z</time>
      </trkpt>
      <trkpt lat="47.57044" lon="-0.53928">
        <ele>16</ele>
        <time>2012-04-01T09:51:54Z</time>
      </trkpt>
      <trkpt lat="47.57032" lon="-0.53954">
        <ele>16</ele>
        <time>2012-04-01T09:51:58Z</time>
      </trkpt>
      <trkpt lat="47.57024" lon="-0.53991">
        <ele>16.48</ele>
        <time>2012-04-01T09:52:03Z</time>
      </trkpt>
      <trkpt lat="47.56984" lon="-0.54049">
        <ele>16</ele>
        <time>2012-04-01T09:52:12Z</time>
      </trkpt>
      <trkpt lat="47.56979" lon="-0.54055">
        <ele>16</ele>
        <time>2012-04-01T09:52:13Z</time>
      </trkpt>
      <trkpt lat="47.56932" lon="-0.54085">
        <ele>16.48</ele>
        <time>2012-04-01T09:52:21Z</time>
      </trkpt>
      <trkpt lat="47.56884" lon="-0.54109">
        <ele>16.48</ele>
        <time>2012-04-01T09:52:29Z</time>
      </trkpt>
      <trkpt lat="47.56838" lon="-0.54132">
        <ele>16.96</ele>
        <time>2012-04-01T09:52:37Z</time>
      </trkpt>
      <trkpt lat="47.56796" lon="-0.54155">
        <ele>16.96</ele>
        <time>2012-04-01T09:52:44Z</time>
      </trkpt>
      <trkpt lat="47.56758" lon="-0.54184">
        <ele>16.48</ele>
        <time>2012-04-01T09:52:51Z</time>
      </trkpt>
      <trkpt lat="47.56715" lon="-0.54207">
        <ele>16.48</ele>
        <time>2012-04-01T09:52:58Z</time>
      </trkpt>
      <trkpt lat="47.56691" lon="-0.54238">
        <ele>16.96</ele>
        <time>2012-04-01T09:53:03Z</time>
      </trkpt>
      <trkpt lat="47.56672" lon="-0.54265">
        <ele>16.96</ele>
        <time>2012-04-01T09:53:07Z</time>
      </trkpt>
      <trkpt lat="47.56649" lon="-0.54281">
        <ele>16.48</ele>
        <time>2012-04-01T09:53:11Z</time>
      </trkpt>
      <trkpt lat="47.5658" lon="-0.54301">
        <ele>16</ele>
        <time>2012-04-01T09:53:22Z</time>
      </trkpt>
      <trkpt lat="47.56568" lon="-0.54305">
        <ele>16</ele>
        <time>2012-04-01T09:53:24Z</time>
      </trkpt>
      <trkpt lat="47.56533" lon="-0.54316">
        <ele>16</ele>
        <time>2012-04-01T09:53:30Z</time>
      </trkpt>
      <trkpt lat="47.56508" lon="-0.54324">
        <ele>16</ele>
        <time>2012-04-01T09:53:34Z</time>
      </trkpt>
      <trkpt lat="47.5649" lon="-0.54333">
        <ele>15.52</ele>
        <time>2012-04-01T09:53:37Z</time>
      </trkpt>
      <trkpt lat="47.56443" lon="-0.54354">
        <ele>16</ele>
        <time>2012-04-01T09:53:45Z</time>
      </trkpt>
      <trkpt lat="47.5642" lon="-0.54361">
        <ele>16</ele>
        <time>2012-04-01T09:53:49Z</time>
      </trkpt>
      <trkpt lat="47.56402" lon="-0.54385">
        <ele>15.52</ele>
        <time>2012-04-01T09:53:54Z</time>
      </trkpt>
      <trkpt lat="47.56403" lon="-0.54401">
        <ele>16</ele>
        <time>2012-04-01T09:53:56Z</time>
      </trkpt>
      <trkpt lat="47.56416" lon="-0.54482">
        <ele>16.96</ele>
        <time>2012-04-01T09:54:06Z</time>
      </trkpt>
      <trkpt lat="47.5642" lon="-0.54529">
        <ele>16.96</ele>
        <time>2012-04-01T09:54:12Z</time>
      </trkpt>
      <trkpt lat="47.56425" lon="-0.54559">
        <ele>18.88</ele>
        <time>2012-04-01T09:54:17Z</time>
      </trkpt>
      <trkpt lat="47.56441" lon="-0.5456">
        <ele>19.36</ele>
        <time>2012-04-01T09:54:21Z</time>
      </trkpt>
      <trkpt lat="47.56485" lon="-0.54554">
        <ele>18.88</ele>
        <time>2012-04-01T09:54:30Z</time>
      </trkpt>
      <trkpt lat="47.56535" lon="-0.54544">
        <ele>17.92</ele>
        <time>2012-04-01T09:54:40Z</time>
      </trkpt>
      <trkpt lat="47.56574" lon="-0.54544">
        <ele>19.36</ele>
        <time>2012-04-01T09:54:48Z</time>
      </trkpt>
      <trkpt lat="47.56618" lon="-0.54553">
        <ele>19.36</ele>
        <time>2012-04-01T09:54:57Z</time>
      </trkpt>
      <trkpt lat="47.56653" lon="-0.54566">
        <ele>18.88</ele>
        <time>2012-04-01T09:55:05Z</time>
      </trkpt>
      <trkpt lat="47.56668" lon="-0.54589">
        <ele>19.84</ele>
        <time>2012-04-01T09:55:10Z</time>
      </trkpt>
      <trkpt lat="47.56668" lon="-0.54611">
        <ele>20.32</ele>
        <time>2012-04-01T09:55:13Z</time>
      </trkpt>
      <trkpt lat="47.56664" lon="-0.54639">
        <ele>22.25</ele>
        <time>2012-04-01T09:55:17Z</time>
      </trkpt>
      <trkpt lat="47.56661" lon="-0.54658">
        <ele>22.73</ele>
        <time>2012-04-01T09:55:20Z</time>
      </trkpt>
      <trkpt lat="47.56658" lon="-0.54704">
        <ele>24.17</ele>
        <time>2012-04-01T09:55:28Z</time>
      </trkpt>
      <trkpt lat="47.56658" lon="-0.54747">
        <ele>26.09</ele>
        <time>2012-04-01T09:55:36Z</time>
      </trkpt>
      <trkpt lat="47.56659" lon="-0.54794">
        <ele>28.5</ele>
        <time>2012-04-01T09:55:45Z</time>
      </trkpt>
      <trkpt lat="47.56658" lon="-0.548">
        <ele>28.98</ele>
        <time>2012-04-01T09:55:46Z</time>
      </trkpt>
      <trkpt lat="47.56656" lon="-0.54813">
        <ele>29.94</ele>
        <time>2012-04-01T09:55:48Z</time>
      </trkpt>
      <trkpt lat="47.56649" lon="-0.54844">
        <ele>30.42</ele>
        <time>2012-04-01T09:55:54Z</time>
      </trkpt>
      <trkpt lat="47.56647" lon="-0.54859">
        <ele>31.38</ele>
        <time>2012-04-01T09:55:57Z</time>
      </trkpt>
      <trkpt lat="47.56635" lon="-0.54871">
        <ele>33.3</ele>
        <time>2012-04-01T09:56:02Z</time>
      </trkpt>
      <trkpt lat="47.56616" lon="-0.54863">
        <ele>33.3</ele>
        <time>2012-04-01T09:56:07Z</time>
      </trkpt>
      <trkpt lat="47.56602" lon="-0.54845">
        <ele>32.82</ele>
        <time>2012-04-01T09:56:11Z</time>
      </trkpt>
      <trkpt lat="47.56579" lon="-0.54827">
        <ele>31.86</ele>
        <time>2012-04-01T09:56:17Z</time>
      </trkpt>
      <trkpt lat="47.56572" lon="-0.54823">
        <ele>31.38</ele>
        <time>2012-04-01T09:56:19Z</time>
      </trkpt>
      <trkpt lat="47.56544" lon="-0.54824">
        <ele>32.82</ele>
        <time>2012-04-01T09:56:26Z</time>
      </trkpt>
      <trkpt lat="47.56524" lon="-0.54832">
        <ele>33.3</ele>
        <time>2012-04-01T09:56:32Z</time>
      </trkpt>
      <trkpt lat="47.56507" lon="-0.54841">
        <ele>35.71</ele>
        <time>2012-04-01T09:56:39Z</time>
      </trkpt>
      <trkpt lat="47.56496" lon="-0.54845">
        <ele>37.63</ele>
        <time>2012-04-01T09:56:45Z</time>
      </trkpt>
      <trkpt lat="47.56494" lon="-0.54847">
        <ele>37.63</ele>
        <time>2012-04-01T09:56:46Z</time>
      </trkpt>
      <trkpt lat="47.5648" lon="-0.54851">
        <ele>39.07</ele>
        <time>2012-04-01T09:56:52Z</time>
      </trkpt>
      <trkpt lat="47.5646" lon="-0.54848">
        <ele>40.99</ele>
        <time>2012-04-01T09:56:59Z</time>
      </trkpt>
      <trkpt lat="47.56439" lon="-0.54837">
        <ele>41.47</ele>
        <time>2012-04-01T09:57:07Z</time>
      </trkpt>
      <trkpt lat="47.56419" lon="-0.54841">
        <ele>41.47</ele>
        <time>2012-04-01T09:57:14Z</time>
      </trkpt>
      <trkpt lat="47.56412" lon="-0.5485">
        <ele>41.47</ele>
        <time>2012-04-01T09:57:17Z</time>
      </trkpt>
      <trkpt lat="47.56411" lon="-0.54873">
        <ele>40.99</ele>
        <time>2012-04-01T09:57:22Z</time>
      </trkpt>
      <trkpt lat="47.56413" lon="-0.54884">
        <ele>41.95</ele>
        <time>2012-04-01T09:57:24Z</time>
      </trkpt>
      <trkpt lat="47.56417" lon="-0.54927">
        <ele>44.84</ele>
        <time>2012-04-01T09:57:32Z</time>
      </trkpt>
      <trkpt lat="47.56416" lon="-0.54964">
        <ele>47.24</ele>
        <time>2012-04-01T09:57:39Z</time>
      </trkpt>
      <trkpt lat="47.56417" lon="-0.54969">
        <ele>47.72</ele>
        <time>2012-04-01T09:57:40Z</time>
      </trkpt>
      <trkpt lat="47.56422" lon="-0.55005">
        <ele>48.68</ele>
        <time>2012-04-01T09:57:47Z</time>
      </trkpt>
      <trkpt lat="47.5643" lon="-0.5504">
        <ele>49.65</ele>
        <time>2012-04-01T09:57:53Z</time>
      </trkpt>
      <trkpt lat="47.56432" lon="-0.55052">
        <ele>50.13</ele>
        <time>2012-04-01T09:57:55Z</time>
      </trkpt>
      <trkpt lat="47.56439" lon="-0.55086">
        <ele>51.09</ele>
        <time>2012-04-01T09:58:01Z</time>
      </trkpt>
      <trkpt lat="47.56449" lon="-0.55124">
        <ele>52.53</ele>
        <time>2012-04-01T09:58:08Z</time>
      </trkpt>
      <trkpt lat="47.56456" lon="-0.55147">
        <ele>53.49</ele>
        <time>2012-04-01T09:58:12Z</time>
      </trkpt>
      <trkpt lat="47.56467" lon="-0.55186">
        <ele>53.49</ele>
        <time>2012-04-01T09:58:18Z</time>
      </trkpt>
      <trkpt lat="47.5648" lon="-0.55236">
        <ele>53.97</ele>
        <time>2012-04-01T09:58:26Z</time>
      </trkpt>
      <trkpt lat="47.56492" lon="-0.55287">
        <ele>53.49</ele>
        <time>2012-04-01T09:58:34Z</time>
      </trkpt>
      <trkpt lat="47.56493" lon="-0.55294">
        <ele>53.01</ele>
        <time>2012-04-01T09:58:35Z</time>
      </trkpt>
      <trkpt lat="47.56505" lon="-0.55346">
        <ele>53.01</ele>
        <time>2012-04-01T09:58:42Z</time>
      </trkpt>
      <trkpt lat="47.56511" lon="-0.55375">
        <ele>53.01</ele>
        <time>2012-04-01T09:58:46Z</time>
      </trkpt>
      <trkpt lat="47.56513" lon="-0.5539">
        <ele>53.01</ele>
        <time>2012-04-01T09:58:48Z</time>
      </trkpt>
      <trkpt lat="47.5652" lon="-0.55418">
        <ele>53.49</ele>
        <time>2012-04-01T09:58:52Z</time>
      </trkpt>
      <trkpt lat="47.56529" lon="-0.55459">
        <ele>53.49</ele>
        <time>2012-04-01T09:58:58Z</time>
      </trkpt>
      <trkpt lat="47.56542" lon="-0.55506">
        <ele>53.49</ele>
        <time>2012-04-01T09:59:05Z</time>
      </trkpt>
      <trkpt lat="47.56549" lon="-0.55532">
        <ele>53.97</ele>
        <time>2012-04-01T09:59:09Z</time>
      </trkpt>
      <trkpt lat="47.56552" lon="-0.55546">
        <ele>53.97</ele>
        <time>2012-04-01T09:59:11Z</time>
      </trkpt>
      <trkpt lat="47.56556" lon="-0.55559">
        <ele>54.45</ele>
        <time>2012-04-01T09:59:13Z</time>
      </trkpt>
      <trkpt lat="47.56568" lon="-0.55571">
        <ele>53.49</ele>
        <time>2012-04-01T09:59:17Z</time>
      </trkpt>
      <trkpt lat="47.56575" lon="-0.5557">
        <ele>54.45</ele>
        <time>2012-04-01T09:59:19Z</time>
      </trkpt>
      <trkpt lat="47.56591" lon="-0.55589">
        <ele>54.45</ele>
        <time>2012-04-01T09:59:24Z</time>
      </trkpt>
      <trkpt lat="47.56593" lon="-0.55596">
        <ele>55.41</ele>
        <time>2012-04-01T09:59:25Z</time>
      </trkpt>
      <trkpt lat="47.56598" lon="-0.55622">
        <ele>54.93</ele>
        <time>2012-04-01T09:59:29Z</time>
      </trkpt>
      <trkpt lat="47.56607" lon="-0.55661">
        <ele>54.93</ele>
        <time>2012-04-01T09:59:35Z</time>
      </trkpt>
      <trkpt lat="47.5661" lon="-0.55676">
        <ele>54.93</ele>
        <time>2012-04-01T09:59:37Z</time>
      </trkpt>
      <trkpt lat="47.56619" lon="-0.55718">
        <ele>55.41</ele>
        <time>2012-04-01T09:59:43Z</time>
      </trkpt>
      <trkpt lat="47.56629" lon="-0.55743">
        <ele>54.93</ele>
        <time>2012-04-01T09:59:47Z</time>
      </trkpt>
      <trkpt lat="47.56649" lon="-0.55798">
        <ele>54.45</ele>
        <time>2012-04-01T09:59:55Z</time>
      </trkpt>
      <trkpt lat="47.56665" lon="-0.55833">
        <ele>52.53</ele>
        <time>2012-04-01T09:59:59Z</time>
      </trkpt>
      <trkpt lat="47.56699" lon="-0.5588">
        <ele>48.68</ele>
        <time>2012-04-01T10:00:04Z</time>
      </trkpt>
      <trkpt lat="47.56721" lon="-0.55917">
        <ele>43.4</ele>
        <time>2012-04-01T10:00:07Z</time>
      </trkpt>
      <trkpt lat="47.5673" lon="-0.5593">
        <ele>42.44</ele>
        <time>2012-04-01T10:00:08Z</time>
      </trkpt>
      <trkpt lat="47.5676" lon="-0.55964">
        <ele>39.07</ele>
        <time>2012-04-01T10:00:11Z</time>
      </trkpt>
      <trkpt lat="47.56783" lon="-0.56006">
        <ele>36.67</ele>
        <time>2012-04-01T10:00:14Z</time>
      </trkpt>
      <trkpt lat="47.56787" lon="-0.56022">
        <ele>35.23</ele>
        <time>2012-04-01T10:00:15Z</time>
      </trkpt>
      <trkpt lat="47.56814" lon="-0.56105">
        <ele>36.19</ele>
        <time>2012-04-01T10:00:21Z</time>
      </trkpt>
      <trkpt lat="47.56846" lon="-0.56171">
        <ele>37.63</ele>
        <time>2012-04-01T10:00:28Z</time>
      </trkpt>
      <trkpt lat="47.56856" lon="-0.56191">
        <ele>39.55</ele>
        <time>2012-04-01T10:00:31Z</time>
      </trkpt>
      <trkpt lat="47.56875" lon="-0.56228">
        <ele>41.47</ele>
        <time>2012-04-01T10:00:37Z</time>
      </trkpt>
      <trkpt lat="47.56892" lon="-0.56258">
        <ele>43.88</ele>
        <time>2012-04-01T10:00:42Z</time>
      </trkpt>
      <trkpt lat="47.56903" lon="-0.56265">
        <ele>44.84</ele>
        <time>2012-04-01T10:00:45Z</time>
      </trkpt>
      <trkpt lat="47.56913" lon="-0.56269">
        <ele>46.28</ele>
        <time>2012-04-01T10:00:48Z</time>
      </trkpt>
      <trkpt lat="47.5693" lon="-0.56275">
        <ele>47.72</ele>
        <time>2012-04-01T10:00:54Z</time>
      </trkpt>
      <trkpt lat="47.56936" lon="-0.56279">
        <ele>47.72</ele>
        <time>2012-04-01T10:00:57Z</time>
      </trkpt>
      <trkpt lat="47.5694" lon="-0.56295">
        <ele>48.2</ele>
        <time>2012-04-01T10:01:01Z</time>
      </trkpt>
      <trkpt lat="47.56936" lon="-0.56336">
        <ele>49.16</ele>
        <time>2012-04-01T10:01:09Z</time>
      </trkpt>
      <trkpt lat="47.56937" lon="-0.56377">
        <ele>49.65</ele>
        <time>2012-04-01T10:01:17Z</time>
      </trkpt>
      <trkpt lat="47.56936" lon="-0.56417">
        <ele>50.13</ele>
        <time>2012-04-01T10:01:24Z</time>
      </trkpt>
      <trkpt lat="47.56919" lon="-0.56446">
        <ele>49.65</ele>
        <time>2012-04-01T10:01:30Z</time>
      </trkpt>
      <trkpt lat="47.56911" lon="-0.56455">
        <ele>50.61</ele>
        <time>2012-04-01T10:01:32Z</time>
      </trkpt>
      <trkpt lat="47.56878" lon="-0.56491">
        <ele>52.05</ele>
        <time>2012-04-01T10:01:41Z</time>
      </trkpt>
      <trkpt lat="47.56863" lon="-0.56505">
        <ele>52.53</ele>
        <time>2012-04-01T10:01:45Z</time>
      </trkpt>
      <trkpt lat="47.56828" lon="-0.56533">
        <ele>52.05</ele>
        <time>2012-04-01T10:01:53Z</time>
      </trkpt>
      <trkpt lat="47.56789" lon="-0.56585">
        <ele>51.57</ele>
        <time>2012-04-01T10:02:02Z</time>
      </trkpt>
      <trkpt lat="47.56761" lon="-0.56627">
        <ele>49.65</ele>
        <time>2012-04-01T10:02:08Z</time>
      </trkpt>
      <trkpt lat="47.56736" lon="-0.5667">
        <ele>47.24</ele>
        <time>2012-04-01T10:02:13Z</time>
      </trkpt>
      <trkpt lat="47.56711" lon="-0.56696">
        <ele>42.44</ele>
        <time>2012-04-01T10:02:18Z</time>
      </trkpt>
      <trkpt lat="47.567" lon="-0.56705">
        <ele>41.47</ele>
        <time>2012-04-01T10:02:20Z</time>
      </trkpt>
      <trkpt lat="47.56681" lon="-0.56724">
        <ele>39.55</ele>
        <time>2012-04-01T10:02:23Z</time>
      </trkpt>
      <trkpt lat="47.56651" lon="-0.5675">
        <ele>36.67</ele>
        <time>2012-04-01T10:02:27Z</time>
      </trkpt>
      <trkpt lat="47.56608" lon="-0.56779">
        <ele>34.74</ele>
        <time>2012-04-01T10:02:33Z</time>
      </trkpt>
      <trkpt lat="47.56602" lon="-0.56784">
        <ele>33.78</ele>
        <time>2012-04-01T10:02:34Z</time>
      </trkpt>
      <trkpt lat="47.5659" lon="-0.56805">
        <ele>32.82</ele>
        <time>2012-04-01T10:02:37Z</time>
      </trkpt>
      <trkpt lat="47.56567" lon="-0.56828">
        <ele>32.34</ele>
        <time>2012-04-01T10:02:42Z</time>
      </trkpt>
      <trkpt lat="47.56531" lon="-0.56859">
        <ele>30.9</ele>
        <time>2012-04-01T10:02:48Z</time>
      </trkpt>
      <trkpt lat="47.56504" lon="-0.5689">
        <ele>30.42</ele>
        <time>2012-04-01T10:02:53Z</time>
      </trkpt>
      <trkpt lat="47.56465" lon="-0.56973">
        <ele>30.42</ele>
        <time>2012-04-01T10:03:02Z</time>
      </trkpt>
      <trkpt lat="47.56416" lon="-0.57059">
        <ele>31.86</ele>
        <time>2012-04-01T10:03:12Z</time>
      </trkpt>
      <trkpt lat="47.56375" lon="-0.57119">
        <ele>32.82</ele>
        <time>2012-04-01T10:03:20Z</time>
      </trkpt>
      <trkpt lat="47.56349" lon="-0.57154">
        <ele>33.78</ele>
        <time>2012-04-01T10:03:25Z</time>
      </trkpt>
      <trkpt lat="47.56299" lon="-0.57205">
        <ele>36.19</ele>
        <time>2012-04-01T10:03:34Z</time>
      </trkpt>
      <trkpt lat="47.56261" lon="-0.57241">
        <ele>36.67</ele>
        <time>2012-04-01T10:03:41Z</time>
      </trkpt>
      <trkpt lat="47.56235" lon="-0.57283">
        <ele>36.67</ele>
        <time>2012-04-01T10:03:47Z</time>
      </trkpt>
      <trkpt lat="47.56193" lon="-0.57336">
        <ele>39.07</ele>
        <time>2012-04-01T10:03:56Z</time>
      </trkpt>
      <trkpt lat="47.56154" lon="-0.57376">
        <ele>38.59</ele>
        <time>2012-04-01T10:04:04Z</time>
      </trkpt>
      <trkpt lat="47.56139" lon="-0.57391">
        <ele>38.59</ele>
        <time>2012-04-01T10:04:07Z</time>
      </trkpt>
      <trkpt lat="47.5612" lon="-0.5741">
        <ele>39.07</ele>
        <time>2012-04-01T10:04:11Z</time>
      </trkpt>
      <trkpt lat="47.56116" lon="-0.57442">
        <ele>39.07</ele>
        <time>2012-04-01T10:04:15Z</time>
      </trkpt>
      <trkpt lat="47.56133" lon="-0.57516">
        <ele>39.55</ele>
        <time>2012-04-01T10:04:24Z</time>
      </trkpt>
      <trkpt lat="47.5614" lon="-0.5756">
        <ele>39.55</ele>
        <time>2012-04-01T10:04:29Z</time>
      </trkpt>
      <trkpt lat="47.5613" lon="-0.5758">
        <ele>40.51</ele>
        <time>2012-04-01T10:04:33Z</time>
      </trkpt>
      <trkpt lat="47.56124" lon="-0.57582">
        <ele>40.99</ele>
        <time>2012-04-01T10:04:34Z</time>
      </trkpt>
      <trkpt lat="47.56073" lon="-0.5761">
        <ele>40.51</ele>
        <time>2012-04-01T10:04:43Z</time>
      </trkpt>
      <trkpt lat="47.56013" lon="-0.57646">
        <ele>40.51</ele>
        <time>2012-04-01T10:04:53Z</time>
      </trkpt>
      <trkpt lat="47.55954" lon="-0.57672">
        <ele>40.51</ele>
        <time>2012-04-01T10:05:02Z</time>
      </trkpt>
      <trkpt lat="47.5588" lon="-0.57698">
        <ele>40.51</ele>
        <time>2012-04-01T10:05:13Z</time>
      </trkpt>
      <trkpt lat="47.55819" lon="-0.57717">
        <ele>40.03</ele>
        <time>2012-04-01T10:05:22Z</time>
      </trkpt>
      <trkpt lat="47.55775" lon="-0.57717">
        <ele>39.55</ele>
        <time>2012-04-01T10:05:28Z</time>
      </trkpt>
      <trkpt lat="47.55711" lon="-0.57699">
        <ele>39.07</ele>
        <time>2012-04-01T10:05:37Z</time>
      </trkpt>
      <trkpt lat="47.55697" lon="-0.57694">
        <ele>39.07</ele>
        <time>2012-04-01T10:05:39Z</time>
      </trkpt>
      <trkpt lat="47.55646" lon="-0.57693">
        <ele>37.63</ele>
        <time>2012-04-01T10:05:46Z</time>
      </trkpt>
      <trkpt lat="47.55603" lon="-0.57702">
        <ele>36.19</ele>
        <time>2012-04-01T10:05:52Z</time>
      </trkpt>
      <trkpt lat="47.55582" lon="-0.57711">
        <ele>37.15</ele>
        <time>2012-04-01T10:05:55Z</time>
      </trkpt>
      <trkpt lat="47.55547" lon="-0.57738">
        <ele>36.67</ele>
        <time>2012-04-01T10:06:01Z</time>
      </trkpt>
      <trkpt lat="47.5552" lon="-0.57739">
        <ele>36.67</ele>
        <time>2012-04-01T10:06:05Z</time>
      </trkpt>
      <trkpt lat="47.55507" lon="-0.57731">
        <ele>35.71</ele>
        <time>2012-04-01T10:06:07Z</time>
      </trkpt>
      <trkpt lat="47.55449" lon="-0.57687">
        <ele>35.71</ele>
        <time>2012-04-01T10:06:16Z</time>
      </trkpt>
      <trkpt lat="47.55399" lon="-0.5765">
        <ele>34.74</ele>
        <time>2012-04-01T10:06:24Z</time>
      </trkpt>
      <trkpt lat="47.55342" lon="-0.57612">
        <ele>34.26</ele>
        <time>2012-04-01T10:06:33Z</time>
      </trkpt>
      <trkpt lat="47.55298" lon="-0.57582">
        <ele>33.78</ele>
        <time>2012-04-01T10:06:40Z</time>
      </trkpt>
      <trkpt lat="47.55255" lon="-0.5756">
        <ele>33.3</ele>
        <time>2012-04-01T10:06:47Z</time>
      </trkpt>
      <trkpt lat="47.55215" lon="-0.57549">
        <ele>33.3</ele>
        <time>2012-04-01T10:06:53Z</time>
      </trkpt>
      <trkpt lat="47.5519" lon="-0.57535">
        <ele>32.82</ele>
        <time>2012-04-01T10:06:57Z</time>
      </trkpt>
      <trkpt lat="47.55148" lon="-0.57494">
        <ele>32.34</ele>
        <time>2012-04-01T10:07:04Z</time>
      </trkpt>
      <trkpt lat="47.5512" lon="-0.57446">
        <ele>31.86</ele>
        <time>2012-04-01T10:07:10Z</time>
      </trkpt>
      <trkpt lat="47.55093" lon="-0.57398">
        <ele>31.86</ele>
        <time>2012-04-01T10:07:16Z</time>
      </trkpt>
      <trkpt lat="47.55072" lon="-0.5736">
        <ele>31.86</ele>
        <time>2012-04-01T10:07:21Z</time>
      </trkpt>
      <trkpt lat="47.55057" lon="-0.57327">
        <ele>32.82</ele>
        <time>2012-04-01T10:07:26Z</time>
      </trkpt>
      <trkpt lat="47.55044" lon="-0.57305">
        <ele>33.3</ele>
        <time>2012-04-01T10:07:30Z</time>
      </trkpt>
      <trkpt lat="47.55021" lon="-0.57254">
        <ele>34.74</ele>
        <time>2012-04-01T10:07:38Z</time>
      </trkpt>
      <trkpt lat="47.55015" lon="-0.57243">
        <ele>34.26</ele>
        <time>2012-04-01T10:07:40Z</time>
      </trkpt>
      <trkpt lat="47.54989" lon="-0.57197">
        <ele>34.26</ele>
        <time>2012-04-01T10:07:48Z</time>
      </trkpt>
      <trkpt lat="47.54961" lon="-0.57165">
        <ele>35.23</ele>
        <time>2012-04-01T10:07:55Z</time>
      </trkpt>
      <trkpt lat="47.54946" lon="-0.57156">
        <ele>34.74</ele>
        <time>2012-04-01T10:07:58Z</time>
      </trkpt>
      <trkpt lat="47.54925" lon="-0.57149">
        <ele>35.23</ele>
        <time>2012-04-01T10:08:02Z</time>
      </trkpt>
      <trkpt lat="47.54907" lon="-0.57144">
        <ele>34.74</ele>
        <time>2012-04-01T10:08:06Z</time>
      </trkpt>
      <trkpt lat="47.54879" lon="-0.57134">
        <ele>34.26</ele>
        <time>2012-04-01T10:08:12Z</time>
      </trkpt>
      <trkpt lat="47.54861" lon="-0.57125">
        <ele>34.74</ele>
        <time>2012-04-01T10:08:16Z</time>
      </trkpt>
      <trkpt lat="47.54846" lon="-0.5712">
        <ele>34.74</ele>
        <time>2012-04-01T10:08:19Z</time>
      </trkpt>
      <trkpt lat="47.54812" lon="-0.57113">
        <ele>35.23</ele>
        <time>2012-04-01T10:08:26Z</time>
      </trkpt>
      <trkpt lat="47.54779" lon="-0.57104">
        <ele>34.26</ele>
        <time>2012-04-01T10:08:32Z</time>
      </trkpt>
      <trkpt lat="47.54757" lon="-0.57108">
        <ele>34.26</ele>
        <time>2012-04-01T10:08:36Z</time>
      </trkpt>
      <trkpt lat="47.54722" lon="-0.57127">
        <ele>34.26</ele>
        <time>2012-04-01T10:08:43Z</time>
      </trkpt>
      <trkpt lat="47.54703" lon="-0.57137">
        <ele>34.74</ele>
        <time>2012-04-01T10:08:47Z</time>
      </trkpt>
      <trkpt lat="47.54677" lon="-0.57146">
        <ele>34.74</ele>
        <time>2012-04-01T10:08:52Z</time>
      </trkpt>
      <trkpt lat="47.54659" lon="-0.57151">
        <ele>31.38</ele>
        <time>2012-04-01T10:08:56Z</time>
      </trkpt>
      <trkpt lat="47.54655" lon="-0.57152">
        <ele>34.74</ele>
        <time>2012-04-01T10:08:57Z</time>
      </trkpt>
      <trkpt lat="47.54646" lon="-0.57155">
        <ele>34.26</ele>
        <time>2012-04-01T10:08:59Z</time>
      </trkpt>
      <trkpt lat="47.54637" lon="-0.57157">
        <ele>34.26</ele>
        <time>2012-04-01T10:09:01Z</time>
      </trkpt>
      <trkpt lat="47.54618" lon="-0.57162">
        <ele>34.26</ele>
        <time>2012-04-01T10:09:05Z</time>
      </trkpt>
      <trkpt lat="47.546" lon="-0.57166">
        <ele>33.78</ele>
        <time>2012-04-01T10:09:09Z</time>
      </trkpt>
      <trkpt lat="47.54566" lon="-0.5717">
        <ele>33.3</ele>
        <time>2012-04-01T10:09:16Z</time>
      </trkpt>
      <trkpt lat="47.54551" lon="-0.57172">
        <ele>33.3</ele>
        <time>2012-04-01T10:09:19Z</time>
      </trkpt>
      <trkpt lat="47.54531" lon="-0.57171">
        <ele>32.82</ele>
        <time>2012-04-01T10:09:23Z</time>
      </trkpt>
      <trkpt lat="47.54503" lon="-0.5717">
        <ele>33.3</ele>
        <time>2012-04-01T10:09:29Z</time>
      </trkpt>
      <trkpt lat="47.54501" lon="-0.57185">
        <ele>33.78</ele>
        <time>2012-04-01T10:09:32Z</time>
      </trkpt>
      <trkpt lat="47.54507" lon="-0.57241">
        <ele>33.3</ele>
        <time>2012-04-01T10:09:40Z</time>
      </trkpt>
      <trkpt lat="47.54511" lon="-0.57273">
        <ele>32.82</ele>
        <time>2012-04-01T10:09:44Z</time>
      </trkpt>
      <trkpt lat="47.54516" lon="-0.57296">
        <ele>32.82</ele>
        <time>2012-04-01T10:09:47Z</time>
      </trkpt>
      <trkpt lat="47.5453" lon="-0.57348">
        <ele>33.78</ele>
        <time>2012-04-01T10:09:54Z</time>
      </trkpt>
      <trkpt lat="47.54531" lon="-0.57355">
        <ele>33.3</ele>
        <time>2012-04-01T10:09:55Z</time>
      </trkpt>
      <trkpt lat="47.54542" lon="-0.57401">
        <ele>32.34</ele>
        <time>2012-04-01T10:10:01Z</time>
      </trkpt>
      <trkpt lat="47.54557" lon="-0.57448">
        <ele>31.86</ele>
        <time>2012-04-01T10:10:08Z</time>
      </trkpt>
      <trkpt lat="47.54574" lon="-0.57492">
        <ele>31.86</ele>
        <time>2012-04-01T10:10:15Z</time>
      </trkpt>
      <trkpt lat="47.5458" lon="-0.57508">
        <ele>32.82</ele>
        <time>2012-04-01T10:10:18Z</time>
      </trkpt>
      <trkpt lat="47.54584" lon="-0.57533">
        <ele>31.86</ele>
        <time>2012-04-01T10:10:22Z</time>
      </trkpt>
      <trkpt lat="47.54579" lon="-0.57567">
        <ele>30.9</ele>
        <time>2012-04-01T10:10:27Z</time>
      </trkpt>
      <trkpt lat="47.54583" lon="-0.5759">
        <ele>31.38</ele>
        <time>2012-04-01T10:10:31Z</time>
      </trkpt>
      <trkpt lat="47.54612" lon="-0.57636">
        <ele>31.38</ele>
        <time>2012-04-01T10:10:40Z</time>
      </trkpt>
      <trkpt lat="47.5463" lon="-0.57666">
        <ele>31.38</ele>
        <time>2012-04-01T10:10:46Z</time>
      </trkpt>
      <trkpt lat="47.54657" lon="-0.57706">
        <ele>30.9</ele>
        <time>2012-04-01T10:10:54Z</time>
      </trkpt>
      <trkpt lat="47.54688" lon="-0.57749">
        <ele>30.9</ele>
        <time>2012-04-01T10:11:03Z</time>
      </trkpt>
      <trkpt lat="47.54703" lon="-0.57768">
        <ele>30.42</ele>
        <time>2012-04-01T10:11:07Z</time>
      </trkpt>
      <trkpt lat="47.54716" lon="-0.57784">
        <ele>29.94</ele>
        <time>2012-04-01T10:11:12Z</time>
      </trkpt>
      <trkpt lat="47.54715" lon="-0.5779">
        <ele>29.94</ele>
        <time>2012-04-01T10:11:16Z</time>
      </trkpt>
      <trkpt lat="47.54722" lon="-0.57799">
        <ele>29.94</ele>
        <time>2012-04-01T10:11:19Z</time>
      </trkpt>
      <trkpt lat="47.5473" lon="-0.57828">
        <ele>29.94</ele>
        <time>2012-04-01T10:11:24Z</time>
      </trkpt>
      <trkpt lat="47.54724" lon="-0.5785">
        <ele>28.98</ele>
        <time>2012-04-01T10:11:27Z</time>
      </trkpt>
      <trkpt lat="47.54722" lon="-0.57865">
        <ele>28.98</ele>
        <time>2012-04-01T10:11:29Z</time>
      </trkpt>
      <trkpt lat="47.54717" lon="-0.57936">
        <ele>28.5</ele>
        <time>2012-04-01T10:11:38Z</time>
      </trkpt>
      <trkpt lat="47.54716" lon="-0.57952">
        <ele>28.98</ele>
        <time>2012-04-01T10:11:40Z</time>
      </trkpt>
      <trkpt lat="47.54713" lon="-0.57985">
        <ele>28.5</ele>
        <time>2012-04-01T10:11:44Z</time>
      </trkpt>
      <trkpt lat="47.54709" lon="-0.5803">
        <ele>28.02</ele>
        <time>2012-04-01T10:11:50Z</time>
      </trkpt>
      <trkpt lat="47.54705" lon="-0.58073">
        <ele>27.53</ele>
        <time>2012-04-01T10:11:56Z</time>
      </trkpt>
      <trkpt lat="47.54697" lon="-0.58106">
        <ele>28.02</ele>
        <time>2012-04-01T10:12:01Z</time>
      </trkpt>
      <trkpt lat="47.5468" lon="-0.5816">
        <ele>27.05</ele>
        <time>2012-04-01T10:12:08Z</time>
      </trkpt>
      <trkpt lat="47.54678" lon="-0.58167">
        <ele>27.53</ele>
        <time>2012-04-01T10:12:09Z</time>
      </trkpt>
      <trkpt lat="47.54668" lon="-0.58194">
        <ele>27.05</ele>
        <time>2012-04-01T10:12:13Z</time>
      </trkpt>
      <trkpt lat="47.54656" lon="-0.58222">
        <ele>26.09</ele>
        <time>2012-04-01T10:12:18Z</time>
      </trkpt>
      <trkpt lat="47.54629" lon="-0.58269">
        <ele>27.05</ele>
        <time>2012-04-01T10:12:26Z</time>
      </trkpt>
      <trkpt lat="47.54619" lon="-0.58287">
        <ele>27.05</ele>
        <time>2012-04-01T10:12:29Z</time>
      </trkpt>
      <trkpt lat="47.54607" lon="-0.58319">
        <ele>26.57</ele>
        <time>2012-04-01T10:12:34Z</time>
      </trkpt>
      <trkpt lat="47.5461" lon="-0.58336">
        <ele>26.09</ele>
        <time>2012-04-01T10:12:38Z</time>
      </trkpt>
      <trkpt lat="47.54623" lon="-0.58341">
        <ele>27.53</ele>
        <time>2012-04-01T10:12:41Z</time>
      </trkpt>
      <trkpt lat="47.54648" lon="-0.58345">
        <ele>27.53</ele>
        <time>2012-04-01T10:12:46Z</time>
      </trkpt>
      <trkpt lat="47.54658" lon="-0.58346">
        <ele>28.98</ele>
        <time>2012-04-01T10:12:48Z</time>
      </trkpt>
      <trkpt lat="47.54663" lon="-0.58346">
        <ele>23.69</ele>
        <time>2012-04-01T10:12:49Z</time>
      </trkpt>
      <trkpt lat="47.54682" lon="-0.58345">
        <ele>28.02</ele>
        <time>2012-04-01T10:12:53Z</time>
      </trkpt>
      <trkpt lat="47.54735" lon="-0.58338">
        <ele>29.46</ele>
        <time>2012-04-01T10:13:03Z</time>
      </trkpt>
      <trkpt lat="47.54776" lon="-0.5833">
        <ele>30.42</ele>
        <time>2012-04-01T10:13:11Z</time>
      </trkpt>
      <trkpt lat="47.54824" lon="-0.58324">
        <ele>29.94</ele>
        <time>2012-04-01T10:13:20Z</time>
      </trkpt>
      <trkpt lat="47.54861" lon="-0.58318">
        <ele>30.9</ele>
        <time>2012-04-01T10:13:27Z</time>
      </trkpt>
      <trkpt lat="47.54876" lon="-0.58315">
        <ele>31.38</ele>
        <time>2012-04-01T10:13:30Z</time>
      </trkpt>
      <trkpt lat="47.54922" lon="-0.58308">
        <ele>30.9</ele>
        <time>2012-04-01T10:13:39Z</time>
      </trkpt>
      <trkpt lat="47.54932" lon="-0.58307">
        <ele>31.38</ele>
        <time>2012-04-01T10:13:41Z</time>
      </trkpt>
      <trkpt lat="47.54974" lon="-0.58305">
        <ele>31.38</ele>
        <time>2012-04-01T10:13:49Z</time>
      </trkpt>
      <trkpt lat="47.5502" lon="-0.58303">
        <ele>31.86</ele>
        <time>2012-04-01T10:13:58Z</time>
      </trkpt>
      <trkpt lat="47.5504" lon="-0.58301">
        <ele>31.86</ele>
        <time>2012-04-01T10:14:02Z</time>
      </trkpt>
      <trkpt lat="47.55061" lon="-0.58298">
        <ele>31.38</ele>
        <time>2012-04-01T10:14:06Z</time>
      </trkpt>
      <trkpt lat="47.55079" lon="-0.58303">
        <ele>31.86</ele>
        <time>2012-04-01T10:14:10Z</time>
      </trkpt>
      <trkpt lat="47.55085" lon="-0.58333">
        <ele>31.38</ele>
        <time>2012-04-01T10:14:15Z</time>
      </trkpt>
      <trkpt lat="47.55086" lon="-0.58394">
        <ele>31.86</ele>
        <time>2012-04-01T10:14:23Z</time>
      </trkpt>
      <trkpt lat="47.55087" lon="-0.58453">
        <ele>31.86</ele>
        <time>2012-04-01T10:14:30Z</time>
      </trkpt>
      <trkpt lat="47.55089" lon="-0.58529">
        <ele>32.34</ele>
        <time>2012-04-01T10:14:39Z</time>
      </trkpt>
      <trkpt lat="47.5509" lon="-0.58592">
        <ele>32.34</ele>
        <time>2012-04-01T10:14:46Z</time>
      </trkpt>
      <trkpt lat="47.55091" lon="-0.58656">
        <ele>32.34</ele>
        <time>2012-04-01T10:14:53Z</time>
      </trkpt>
      <trkpt lat="47.55092" lon="-0.5874">
        <ele>32.82</ele>
        <time>2012-04-01T10:15:02Z</time>
      </trkpt>
      <trkpt lat="47.55093" lon="-0.58822">
        <ele>33.78</ele>
        <time>2012-04-01T10:15:11Z</time>
      </trkpt>
      <trkpt lat="47.55092" lon="-0.58849">
        <ele>33.3</ele>
        <time>2012-04-01T10:15:14Z</time>
      </trkpt>
      <trkpt lat="47.55087" lon="-0.5891">
        <ele>32.82</ele>
        <time>2012-04-01T10:15:21Z</time>
      </trkpt>
      <trkpt lat="47.55077" lon="-0.58982">
        <ele>32.82</ele>
        <time>2012-04-01T10:15:29Z</time>
      </trkpt>
      <trkpt lat="47.55072" lon="-0.59015">
        <ele>32.82</ele>
        <time>2012-04-01T10:15:33Z</time>
      </trkpt>
      <trkpt lat="47.55076" lon="-0.59046">
        <ele>32.82</ele>
        <time>2012-04-01T10:15:37Z</time>
      </trkpt>
      <trkpt lat="47.551" lon="-0.59125">
        <ele>32.34</ele>
        <time>2012-04-01T10:15:47Z</time>
      </trkpt>
      <trkpt lat="47.55105" lon="-0.59141">
        <ele>32.34</ele>
        <time>2012-04-01T10:15:49Z</time>
      </trkpt>
      <trkpt lat="47.55117" lon="-0.59182">
        <ele>31.86</ele>
        <time>2012-04-01T10:15:54Z</time>
      </trkpt>
      <trkpt lat="47.55128" lon="-0.59226">
        <ele>31.86</ele>
        <time>2012-04-01T10:15:59Z</time>
      </trkpt>
      <trkpt lat="47.55141" lon="-0.59263">
        <ele>31.38</ele>
        <time>2012-04-01T10:16:04Z</time>
      </trkpt>
      <trkpt lat="47.55137" lon="-0.59276">
        <ele>30.9</ele>
        <time>2012-04-01T10:16:07Z</time>
      </trkpt>
      <trkpt lat="47.55133" lon="-0.59279">
        <ele>30.9</ele>
        <time>2012-04-01T10:16:08Z</time>
      </trkpt>
      <trkpt lat="47.55128" lon="-0.59282">
        <ele>30.9</ele>
        <time>2012-04-01T10:16:09Z</time>
      </trkpt>
      <trkpt lat="47.55124" lon="-0.59285">
        <ele>31.38</ele>
        <time>2012-04-01T10:16:10Z</time>
      </trkpt>
      <trkpt lat="47.55119" lon="-0.59288">
        <ele>30.9</ele>
        <time>2012-04-01T10:16:11Z</time>
      </trkpt>
      <trkpt lat="47.55092" lon="-0.59302">
        <ele>30.9</ele>
        <time>2012-04-01T10:16:16Z</time>
      </trkpt>
      <trkpt lat="47.55061" lon="-0.5932">
        <ele>30.42</ele>
        <time>2012-04-01T10:16:22Z</time>
      </trkpt>
      <trkpt lat="47.55025" lon="-0.59337">
        <ele>30.42</ele>
        <time>2012-04-01T10:16:29Z</time>
      </trkpt>
      <trkpt lat="47.5502" lon="-0.59339">
        <ele>29.94</ele>
        <time>2012-04-01T10:16:30Z</time>
      </trkpt>
      <trkpt lat="47.55015" lon="-0.59342">
        <ele>29.94</ele>
        <time>2012-04-01T10:16:31Z</time>
      </trkpt>
      <trkpt lat="47.5501" lon="-0.59344">
        <ele>28.98</ele>
        <time>2012-04-01T10:16:32Z</time>
      </trkpt>
      <trkpt lat="47.54983" lon="-0.59356">
        <ele>29.46</ele>
        <time>2012-04-01T10:16:37Z</time>
      </trkpt>
      <trkpt lat="47.54978" lon="-0.59359">
        <ele>28.98</ele>
        <time>2012-04-01T10:16:38Z</time>
      </trkpt>
      <trkpt lat="47.54973" lon="-0.59363">
        <ele>28.98</ele>
        <time>2012-04-01T10:16:39Z</time>
      </trkpt>
      <trkpt lat="47.54968" lon="-0.59365">
        <ele>29.46</ele>
        <time>2012-04-01T10:16:40Z</time>
      </trkpt>
      <trkpt lat="47.54963" lon="-0.59368">
        <ele>28.98</ele>
        <time>2012-04-01T10:16:41Z</time>
      </trkpt>
      <trkpt lat="47.54958" lon="-0.59371">
        <ele>29.46</ele>
        <time>2012-04-01T10:16:42Z</time>
      </trkpt>
      <trkpt lat="47.54941" lon="-0.5938">
        <ele>28.5</ele>
        <time>2012-04-01T10:16:45Z</time>
      </trkpt>
      <trkpt lat="47.54922" lon="-0.59392">
        <ele>28.02</ele>
        <time>2012-04-01T10:16:49Z</time>
      </trkpt>
      <trkpt lat="47.54917" lon="-0.59395">
        <ele>28.02</ele>
        <time>2012-04-01T10:16:50Z</time>
      </trkpt>
      <trkpt lat="47.54893" lon="-0.59414">
        <ele>27.53</ele>
        <time>2012-04-01T10:16:55Z</time>
      </trkpt>
      <trkpt lat="47.5489" lon="-0.5942">
        <ele>27.53</ele>
        <time>2012-04-01T10:16:56Z</time>
      </trkpt>
      <trkpt lat="47.54883" lon="-0.59431">
        <ele>27.05</ele>
        <time>2012-04-01T10:16:58Z</time>
      </trkpt>
      <trkpt lat="47.54878" lon="-0.59434">
        <ele>27.05</ele>
        <time>2012-04-01T10:16:59Z</time>
      </trkpt>
      <trkpt lat="47.54868" lon="-0.5944">
        <ele>27.53</ele>
        <time>2012-04-01T10:17:01Z</time>
      </trkpt>
      <trkpt lat="47.5483" lon="-0.59462">
        <ele>27.53</ele>
        <time>2012-04-01T10:17:08Z</time>
      </trkpt>
      <trkpt lat="47.54818" lon="-0.59469">
        <ele>27.53</ele>
        <time>2012-04-01T10:17:10Z</time>
      </trkpt>
      <trkpt lat="47.54807" lon="-0.59476">
        <ele>27.53</ele>
        <time>2012-04-01T10:17:12Z</time>
      </trkpt>
      <trkpt lat="47.54802" lon="-0.59479">
        <ele>27.05</ele>
        <time>2012-04-01T10:17:13Z</time>
      </trkpt>
      <trkpt lat="47.54797" lon="-0.59483">
        <ele>27.05</ele>
        <time>2012-04-01T10:17:14Z</time>
      </trkpt>
      <trkpt lat="47.54791" lon="-0.59487">
        <ele>27.05</ele>
        <time>2012-04-01T10:17:15Z</time>
      </trkpt>
      <trkpt lat="47.54785" lon="-0.59491">
        <ele>27.05</ele>
        <time>2012-04-01T10:17:16Z</time>
      </trkpt>
      <trkpt lat="47.54719" lon="-0.5953">
        <ele>27.05</ele>
        <time>2012-04-01T10:17:27Z</time>
      </trkpt>
      <trkpt lat="47.54672" lon="-0.59566">
        <ele>27.05</ele>
        <time>2012-04-01T10:17:35Z</time>
      </trkpt>
      <trkpt lat="47.54628" lon="-0.59612">
        <ele>27.05</ele>
        <time>2012-04-01T10:17:43Z</time>
      </trkpt>
      <trkpt lat="47.54625" lon="-0.59621">
        <ele>26.57</ele>
        <time>2012-04-01T10:17:44Z</time>
      </trkpt>
      <trkpt lat="47.54631" lon="-0.59649">
        <ele>26.57</ele>
        <time>2012-04-01T10:17:47Z</time>
      </trkpt>
      <trkpt lat="47.54643" lon="-0.59703">
        <ele>26.57</ele>
        <time>2012-04-01T10:17:53Z</time>
      </trkpt>
      <trkpt lat="47.54644" lon="-0.59721">
        <ele>27.05</ele>
        <time>2012-04-01T10:17:55Z</time>
      </trkpt>
      <trkpt lat="47.54637" lon="-0.59757">
        <ele>27.53</ele>
        <time>2012-04-01T10:17:59Z</time>
      </trkpt>
      <trkpt lat="47.54607" lon="-0.59831">
        <ele>27.53</ele>
        <time>2012-04-01T10:18:08Z</time>
      </trkpt>
      <trkpt lat="47.54594" lon="-0.59895">
        <ele>27.05</ele>
        <time>2012-04-01T10:18:15Z</time>
      </trkpt>
      <trkpt lat="47.54592" lon="-0.59913">
        <ele>27.53</ele>
        <time>2012-04-01T10:18:17Z</time>
      </trkpt>
      <trkpt lat="47.54597" lon="-0.59987">
        <ele>27.53</ele>
        <time>2012-04-01T10:18:25Z</time>
      </trkpt>
      <trkpt lat="47.54612" lon="-0.60042">
        <ele>28.02</ele>
        <time>2012-04-01T10:18:31Z</time>
      </trkpt>
      <trkpt lat="47.54628" lon="-0.6012">
        <ele>27.53</ele>
        <time>2012-04-01T10:18:39Z</time>
      </trkpt>
      <trkpt lat="47.54642" lon="-0.6017">
        <ele>25.61</ele>
        <time>2012-04-01T10:18:44Z</time>
      </trkpt>
      <trkpt lat="47.54646" lon="-0.6018">
        <ele>24.65</ele>
        <time>2012-04-01T10:18:45Z</time>
      </trkpt>
      <trkpt lat="47.54649" lon="-0.60223">
        <ele>23.69</ele>
        <time>2012-04-01T10:18:49Z</time>
      </trkpt>
      <trkpt lat="47.54638" lon="-0.60241">
        <ele>24.17</ele>
        <time>2012-04-01T10:18:51Z</time>
      </trkpt>
      <trkpt lat="47.54594" lon="-0.60298">
        <ele>23.69</ele>
        <time>2012-04-01T10:18:58Z</time>
      </trkpt>
      <trkpt lat="47.54567" lon="-0.60321">
        <ele>24.17</ele>
        <time>2012-04-01T10:19:02Z</time>
      </trkpt>
      <trkpt lat="47.54504" lon="-0.60348">
        <ele>25.13</ele>
        <time>2012-04-01T10:19:11Z</time>
      </trkpt>
      <trkpt lat="47.5445" lon="-0.60387">
        <ele>24.65</ele>
        <time>2012-04-01T10:19:19Z</time>
      </trkpt>
      <trkpt lat="47.54387" lon="-0.6045">
        <ele>23.69</ele>
        <time>2012-04-01T10:19:29Z</time>
      </trkpt>
      <trkpt lat="47.54348" lon="-0.60503">
        <ele>23.21</ele>
        <time>2012-04-01T10:19:36Z</time>
      </trkpt>
      <trkpt lat="47.54317" lon="-0.60566">
        <ele>23.21</ele>
        <time>2012-04-01T10:19:43Z</time>
      </trkpt>
      <trkpt lat="47.54272" lon="-0.60644">
        <ele>24.65</ele>
        <time>2012-04-01T10:19:52Z</time>
      </trkpt>
      <trkpt lat="47.54228" lon="-0.60697">
        <ele>22.73</ele>
        <time>2012-04-01T10:19:59Z</time>
      </trkpt>
      <trkpt lat="47.54201" lon="-0.60731">
        <ele>21.77</ele>
        <time>2012-04-01T10:20:03Z</time>
      </trkpt>
      <trkpt lat="47.54188" lon="-0.60765">
        <ele>21.77</ele>
        <time>2012-04-01T10:20:06Z</time>
      </trkpt>
      <trkpt lat="47.54161" lon="-0.6081">
        <ele>21.77</ele>
        <time>2012-04-01T10:20:11Z</time>
      </trkpt>
      <trkpt lat="47.54147" lon="-0.60822">
        <ele>20.81</ele>
        <time>2012-04-01T10:20:13Z</time>
      </trkpt>
      <trkpt lat="47.54118" lon="-0.6084">
        <ele>20.32</ele>
        <time>2012-04-01T10:20:18Z</time>
      </trkpt>
      <trkpt lat="47.54116" lon="-0.60843">
        <ele>20.32</ele>
        <time>2012-04-01T10:20:19Z</time>
      </trkpt>
      <trkpt lat="47.54112" lon="-0.60865">
        <ele>20.32</ele>
        <time>2012-04-01T10:20:24Z</time>
      </trkpt>
      <trkpt lat="47.54119" lon="-0.60903">
        <ele>19.84</ele>
        <time>2012-04-01T10:20:30Z</time>
      </trkpt>
      <trkpt lat="47.54126" lon="-0.60929">
        <ele>19.84</ele>
        <time>2012-04-01T10:20:36Z</time>
      </trkpt>
      <trkpt lat="47.54127" lon="-0.60937">
        <ele>20.81</ele>
        <time>2012-04-01T10:20:42Z</time>
      </trkpt>
      <trkpt lat="47.54127" lon="-0.60937">
        <ele>20.32</ele>
        <time>2012-04-01T10:20:45Z</time>
      </trkpt>
      <trkpt lat="47.54125" lon="-0.60952">
        <ele>20.81</ele>
        <time>2012-04-01T10:20:51Z</time>
      </trkpt>
      <trkpt lat="47.54115" lon="-0.60959">
        <ele>20.81</ele>
        <time>2012-04-01T10:20:54Z</time>
      </trkpt>
      <trkpt lat="47.54089" lon="-0.60972">
        <ele>20.32</ele>
        <time>2012-04-01T10:20:59Z</time>
      </trkpt>
      <trkpt lat="47.54071" lon="-0.60989">
        <ele>20.32</ele>
        <time>2012-04-01T10:21:03Z</time>
      </trkpt>
      <trkpt lat="47.54043" lon="-0.61019">
        <ele>19.84</ele>
        <time>2012-04-01T10:21:09Z</time>
      </trkpt>
      <trkpt lat="47.54035" lon="-0.61037">
        <ele>19.84</ele>
        <time>2012-04-01T10:21:11Z</time>
      </trkpt>
      <trkpt lat="47.54022" lon="-0.61079">
        <ele>20.32</ele>
        <time>2012-04-01T10:21:15Z</time>
      </trkpt>
      <trkpt lat="47.54017" lon="-0.61122">
        <ele>19.84</ele>
        <time>2012-04-01T10:21:19Z</time>
      </trkpt>
      <trkpt lat="47.54012" lon="-0.61207">
        <ele>20.81</ele>
        <time>2012-04-01T10:21:27Z</time>
      </trkpt>
      <trkpt lat="47.54009" lon="-0.61286">
        <ele>22.25</ele>
        <time>2012-04-01T10:21:35Z</time>
      </trkpt>
      <trkpt lat="47.54004" lon="-0.61372">
        <ele>24.65</ele>
        <time>2012-04-01T10:21:45Z</time>
      </trkpt>
      <trkpt lat="47.54002" lon="-0.6145">
        <ele>24.17</ele>
        <time>2012-04-01T10:21:54Z</time>
      </trkpt>
      <trkpt lat="47.53999" lon="-0.615">
        <ele>22.73</ele>
        <time>2012-04-01T10:21:59Z</time>
      </trkpt>
      <trkpt lat="47.53992" lon="-0.6154">
        <ele>22.25</ele>
        <time>2012-04-01T10:22:03Z</time>
      </trkpt>
      <trkpt lat="47.53998" lon="-0.61577">
        <ele>21.77</ele>
        <time>2012-04-01T10:22:07Z</time>
      </trkpt>
      <trkpt lat="47.54018" lon="-0.61585">
        <ele>21.29</ele>
        <time>2012-04-01T10:22:10Z</time>
      </trkpt>
      <trkpt lat="47.54024" lon="-0.61583">
        <ele>21.29</ele>
        <time>2012-04-01T10:22:11Z</time>
      </trkpt>
      <trkpt lat="47.54068" lon="-0.61566">
        <ele>20.32</ele>
        <time>2012-04-01T10:22:18Z</time>
      </trkpt>
      <trkpt lat="47.54078" lon="-0.61541">
        <ele>20.32</ele>
        <time>2012-04-01T10:22:22Z</time>
      </trkpt>
      <trkpt lat="47.54052" lon="-0.61471">
        <ele>18.4</ele>
        <time>2012-04-01T10:22:32Z</time>
      </trkpt>
      <trkpt lat="47.54044" lon="-0.61447">
        <ele>17.92</ele>
        <time>2012-04-01T10:22:36Z</time>
      </trkpt>
      <trkpt lat="47.54022" lon="-0.61435">
        <ele>16.48</ele>
        <time>2012-04-01T10:22:41Z</time>
      </trkpt>
      <trkpt lat="47.54007" lon="-0.61447">
        <ele>16.96</ele>
        <time>2012-04-01T10:22:45Z</time>
      </trkpt>
      <trkpt lat="47.53998" lon="-0.61449">
        <ele>16.96</ele>
        <time>2012-04-01T10:22:47Z</time>
      </trkpt>
      <trkpt lat="47.53983" lon="-0.61459">
        <ele>17.92</ele>
        <time>2012-04-01T10:22:50Z</time>
      </trkpt>
      <trkpt lat="47.53951" lon="-0.61485">
        <ele>17.44</ele>
        <time>2012-04-01T10:22:56Z</time>
      </trkpt>
      <trkpt lat="47.53939" lon="-0.61492">
        <ele>17.44</ele>
        <time>2012-04-01T10:23:01Z</time>
      </trkpt>
      <trkpt lat="47.53928" lon="-0.61498">
        <ele>17.44</ele>
        <time>2012-04-01T10:23:04Z</time>
      </trkpt>
      <trkpt lat="47.53912" lon="-0.61511">
        <ele>16.96</ele>
        <time>2012-04-01T10:23:08Z</time>
      </trkpt>
      <trkpt lat="47.53901" lon="-0.6152">
        <ele>16.96</ele>
        <time>2012-04-01T10:23:11Z</time>
      </trkpt>
      <trkpt lat="47.53867" lon="-0.61534">
        <ele>17.92</ele>
        <time>2012-04-01T10:23:18Z</time>
      </trkpt>
      <trkpt lat="47.53827" lon="-0.61549">
        <ele>17.92</ele>
        <time>2012-04-01T10:23:24Z</time>
      </trkpt>
      <trkpt lat="47.53779" lon="-0.61568">
        <ele>17.92</ele>
        <time>2012-04-01T10:23:31Z</time>
      </trkpt>
      <trkpt lat="47.53718" lon="-0.6159">
        <ele>17.44</ele>
        <time>2012-04-01T10:23:40Z</time>
      </trkpt>
      <trkpt lat="47.53669" lon="-0.61598">
        <ele>17.44</ele>
        <time>2012-04-01T10:23:48Z</time>
      </trkpt>
      <trkpt lat="47.53608" lon="-0.61602">
        <ele>17.92</ele>
        <time>2012-04-01T10:23:58Z</time>
      </trkpt>
      <trkpt lat="47.53576" lon="-0.616">
        <ele>17.92</ele>
        <time>2012-04-01T10:24:03Z</time>
      </trkpt>
      <trkpt lat="47.53563" lon="-0.61599">
        <ele>18.4</ele>
        <time>2012-04-01T10:24:05Z</time>
      </trkpt>
      <trkpt lat="47.53535" lon="-0.61593">
        <ele>18.4</ele>
        <time>2012-04-01T10:24:10Z</time>
      </trkpt>
      <trkpt lat="47.53519" lon="-0.61588">
        <ele>18.4</ele>
        <time>2012-04-01T10:24:13Z</time>
      </trkpt>
      <trkpt lat="47.53509" lon="-0.61587">
        <ele>18.88</ele>
        <time>2012-04-01T10:24:15Z</time>
      </trkpt>
      <trkpt lat="47.53489" lon="-0.61577">
        <ele>19.36</ele>
        <time>2012-04-01T10:24:20Z</time>
      </trkpt>
      <trkpt lat="47.53486" lon="-0.61574">
        <ele>19.36</ele>
        <time>2012-04-01T10:24:21Z</time>
      </trkpt>
      <trkpt lat="47.53476" lon="-0.61566">
        <ele>19.36</ele>
        <time>2012-04-01T10:24:25Z</time>
      </trkpt>
      <trkpt lat="47.53456" lon="-0.61549">
        <ele>19.36</ele>
        <time>2012-04-01T10:24:32Z</time>
      </trkpt>
      <trkpt lat="47.5343" lon="-0.61528">
        <ele>18.88</ele>
        <time>2012-04-01T10:24:38Z</time>
      </trkpt>
      <trkpt lat="47.53426" lon="-0.61524">
        <ele>19.36</ele>
        <time>2012-04-01T10:24:39Z</time>
      </trkpt>
      <trkpt lat="47.5341" lon="-0.61508">
        <ele>19.36</ele>
        <time>2012-04-01T10:24:43Z</time>
      </trkpt>
      <trkpt lat="47.5339" lon="-0.61493">
        <ele>18.88</ele>
        <time>2012-04-01T10:24:48Z</time>
      </trkpt>
      <trkpt lat="47.53366" lon="-0.61471">
        <ele>18.88</ele>
        <time>2012-04-01T10:24:54Z</time>
      </trkpt>
      <trkpt lat="47.53331" lon="-0.61433">
        <ele>18.88</ele>
        <time>2012-04-01T10:25:02Z</time>
      </trkpt>
      <trkpt lat="47.53327" lon="-0.61428">
        <ele>18.88</ele>
        <time>2012-04-01T10:25:03Z</time>
      </trkpt>
      <trkpt lat="47.53319" lon="-0.61417">
        <ele>18.4</ele>
        <time>2012-04-01T10:25:05Z</time>
      </trkpt>
      <trkpt lat="47.53295" lon="-0.61385">
        <ele>18.4</ele>
        <time>2012-04-01T10:25:11Z</time>
      </trkpt>
      <trkpt lat="47.53279" lon="-0.61365">
        <ele>18.88</ele>
        <time>2012-04-01T10:25:15Z</time>
      </trkpt>
      <trkpt lat="47.53265" lon="-0.61344">
        <ele>18.88</ele>
        <time>2012-04-01T10:25:19Z</time>
      </trkpt>
      <trkpt lat="47.53243" lon="-0.61311">
        <ele>18.4</ele>
        <time>2012-04-01T10:25:26Z</time>
      </trkpt>
      <trkpt lat="47.53242" lon="-0.61309">
        <ele>18.4</ele>
        <time>2012-04-01T10:25:32Z</time>
      </trkpt>
      <trkpt lat="47.53242" lon="-0.61309">
        <ele>17.44</ele>
        <time>2012-04-01T10:25:43Z</time>
      </trkpt>
      <trkpt lat="47.53243" lon="-0.61309">
        <ele>17.92</ele>
        <time>2012-04-01T10:25:50Z</time>
      </trkpt>
      <trkpt lat="47.53243" lon="-0.61309">
        <ele>17.92</ele>
        <time>2012-04-01T10:26:01Z</time>
      </trkpt>
      <trkpt lat="47.53242" lon="-0.61308">
        <ele>17.92</ele>
        <time>2012-04-01T10:26:13Z</time>
      </trkpt>
      <trkpt lat="47.53242" lon="-0.61307">
        <ele>17.44</ele>
        <time>2012-04-01T10:26:15Z</time>
      </trkpt>
      <trkpt lat="47.5323" lon="-0.61292">
        <ele>18.88</ele>
        <time>2012-04-01T10:26:21Z</time>
      </trkpt>
      <trkpt lat="47.53211" lon="-0.61269">
        <ele>18.4</ele>
        <time>2012-04-01T10:26:27Z</time>
      </trkpt>
      <trkpt lat="47.53207" lon="-0.61265">
        <ele>18.88</ele>
        <time>2012-04-01T10:26:28Z</time>
      </trkpt>
      <trkpt lat="47.53195" lon="-0.61244">
        <ele>18.4</ele>
        <time>2012-04-01T10:26:32Z</time>
      </trkpt>
      <trkpt lat="47.53184" lon="-0.61227">
        <ele>18.4</ele>
        <time>2012-04-01T10:26:35Z</time>
      </trkpt>
      <trkpt lat="47.5316" lon="-0.61184">
        <ele>18.88</ele>
        <time>2012-04-01T10:26:42Z</time>
      </trkpt>
      <trkpt lat="47.53139" lon="-0.61153">
        <ele>18.4</ele>
        <time>2012-04-01T10:26:47Z</time>
      </trkpt>
      <trkpt lat="47.53116" lon="-0.61105">
        <ele>17.44</ele>
        <time>2012-04-01T10:26:53Z</time>
      </trkpt>
      <trkpt lat="47.53101" lon="-0.61065">
        <ele>16.96</ele>
        <time>2012-04-01T10:26:58Z</time>
      </trkpt>
      <trkpt lat="47.53092" lon="-0.61031">
        <ele>17.92</ele>
        <time>2012-04-01T10:27:02Z</time>
      </trkpt>
      <trkpt lat="47.53086" lon="-0.60997">
        <ele>17.92</ele>
        <time>2012-04-01T10:27:06Z</time>
      </trkpt>
      <trkpt lat="47.53078" lon="-0.60937">
        <ele>18.4</ele>
        <time>2012-04-01T10:27:13Z</time>
      </trkpt>
      <trkpt lat="47.53074" lon="-0.60885">
        <ele>17.92</ele>
        <time>2012-04-01T10:27:19Z</time>
      </trkpt>
      <trkpt lat="47.53071" lon="-0.60861">
        <ele>17.44</ele>
        <time>2012-04-01T10:27:22Z</time>
      </trkpt>
      <trkpt lat="47.53067" lon="-0.60823">
        <ele>18.4</ele>
        <time>2012-04-01T10:27:27Z</time>
      </trkpt>
      <trkpt lat="47.53066" lon="-0.60799">
        <ele>17.92</ele>
        <time>2012-04-01T10:27:30Z</time>
      </trkpt>
      <trkpt lat="47.5307" lon="-0.60761">
        <ele>18.88</ele>
        <time>2012-04-01T10:27:35Z</time>
      </trkpt>
      <trkpt lat="47.53072" lon="-0.60749">
        <ele>18.4</ele>
        <time>2012-04-01T10:27:38Z</time>
      </trkpt>
      <trkpt lat="47.53074" lon="-0.6072">
        <ele>18.4</ele>
        <time>2012-04-01T10:27:43Z</time>
      </trkpt>
      <trkpt lat="47.53074" lon="-0.60714">
        <ele>18.4</ele>
        <time>2012-04-01T10:27:44Z</time>
      </trkpt>
      <trkpt lat="47.53079" lon="-0.60653">
        <ele>18.4</ele>
        <time>2012-04-01T10:27:52Z</time>
      </trkpt>
      <trkpt lat="47.53086" lon="-0.60598">
        <ele>17.92</ele>
        <time>2012-04-01T10:27:59Z</time>
      </trkpt>
      <trkpt lat="47.53092" lon="-0.60563">
        <ele>18.4</ele>
        <time>2012-04-01T10:28:04Z</time>
      </trkpt>
      <trkpt lat="47.53103" lon="-0.60521">
        <ele>18.4</ele>
        <time>2012-04-01T10:28:10Z</time>
      </trkpt>
      <trkpt lat="47.53122" lon="-0.60461">
        <ele>18.4</ele>
        <time>2012-04-01T10:28:18Z</time>
      </trkpt>
      <trkpt lat="47.53132" lon="-0.60433">
        <ele>18.4</ele>
        <time>2012-04-01T10:28:22Z</time>
      </trkpt>
      <trkpt lat="47.53159" lon="-0.60377">
        <ele>18.4</ele>
        <time>2012-04-01T10:28:30Z</time>
      </trkpt>
      <trkpt lat="47.53171" lon="-0.6035">
        <ele>18.4</ele>
        <time>2012-04-01T10:28:34Z</time>
      </trkpt>
      <trkpt lat="47.53189" lon="-0.60321">
        <ele>17.92</ele>
        <time>2012-04-01T10:28:39Z</time>
      </trkpt>
      <trkpt lat="47.53191" lon="-0.60313">
        <ele>17.92</ele>
        <time>2012-04-01T10:28:40Z</time>
      </trkpt>
      <trkpt lat="47.53195" lon="-0.603">
        <ele>17.92</ele>
        <time>2012-04-01T10:28:42Z</time>
      </trkpt>
      <trkpt lat="47.53206" lon="-0.60265">
        <ele>18.4</ele>
        <time>2012-04-01T10:28:47Z</time>
      </trkpt>
      <trkpt lat="47.53213" lon="-0.60242">
        <ele>18.4</ele>
        <time>2012-04-01T10:28:50Z</time>
      </trkpt>
      <trkpt lat="47.53216" lon="-0.60216">
        <ele>17.92</ele>
        <time>2012-04-01T10:28:54Z</time>
      </trkpt>
      <trkpt lat="47.53226" lon="-0.60186">
        <ele>17.92</ele>
        <time>2012-04-01T10:28:58Z</time>
      </trkpt>
      <trkpt lat="47.53241" lon="-0.60139">
        <ele>18.88</ele>
        <time>2012-04-01T10:29:05Z</time>
      </trkpt>
      <trkpt lat="47.53256" lon="-0.60079">
        <ele>17.92</ele>
        <time>2012-04-01T10:29:13Z</time>
      </trkpt>
      <trkpt lat="47.53257" lon="-0.60071">
        <ele>17.44</ele>
        <time>2012-04-01T10:29:14Z</time>
      </trkpt>
      <trkpt lat="47.53263" lon="-0.60038">
        <ele>16.48</ele>
        <time>2012-04-01T10:29:18Z</time>
      </trkpt>
      <trkpt lat="47.53266" lon="-0.60032">
        <ele>16.96</ele>
        <time>2012-04-01T10:29:19Z</time>
      </trkpt>
      <trkpt lat="47.53273" lon="-0.6002">
        <ele>16.48</ele>
        <time>2012-04-01T10:29:21Z</time>
      </trkpt>
      <trkpt lat="47.53276" lon="-0.60013">
        <ele>16.96</ele>
        <time>2012-04-01T10:29:22Z</time>
      </trkpt>
      <trkpt lat="47.53279" lon="-0.60007">
        <ele>16.48</ele>
        <time>2012-04-01T10:29:23Z</time>
      </trkpt>
      <trkpt lat="47.53296" lon="-0.59959">
        <ele>16.96</ele>
        <time>2012-04-01T10:29:30Z</time>
      </trkpt>
      <trkpt lat="47.53298" lon="-0.59952">
        <ele>16.96</ele>
        <time>2012-04-01T10:29:31Z</time>
      </trkpt>
      <trkpt lat="47.5331" lon="-0.59917">
        <ele>16.96</ele>
        <time>2012-04-01T10:29:36Z</time>
      </trkpt>
      <trkpt lat="47.53316" lon="-0.59896">
        <ele>16.96</ele>
        <time>2012-04-01T10:29:39Z</time>
      </trkpt>
      <trkpt lat="47.53317" lon="-0.59889">
        <ele>16.96</ele>
        <time>2012-04-01T10:29:40Z</time>
      </trkpt>
      <trkpt lat="47.5332" lon="-0.59883">
        <ele>16.96</ele>
        <time>2012-04-01T10:29:41Z</time>
      </trkpt>
      <trkpt lat="47.53322" lon="-0.59869">
        <ele>16.48</ele>
        <time>2012-04-01T10:29:43Z</time>
      </trkpt>
      <trkpt lat="47.53325" lon="-0.5985">
        <ele>16.96</ele>
        <time>2012-04-01T10:29:46Z</time>
      </trkpt>
      <trkpt lat="47.5333" lon="-0.59838">
        <ele>16.48</ele>
        <time>2012-04-01T10:29:48Z</time>
      </trkpt>
      <trkpt lat="47.53332" lon="-0.5983">
        <ele>16.96</ele>
        <time>2012-04-01T10:29:49Z</time>
      </trkpt>
      <trkpt lat="47.53346" lon="-0.59767">
        <ele>16.48</ele>
        <time>2012-04-01T10:29:58Z</time>
      </trkpt>
      <trkpt lat="47.53351" lon="-0.59732">
        <ele>17.44</ele>
        <time>2012-04-01T10:30:03Z</time>
      </trkpt>
      <trkpt lat="47.53352" lon="-0.59726">
        <ele>17.44</ele>
        <time>2012-04-01T10:30:04Z</time>
      </trkpt>
      <trkpt lat="47.53349" lon="-0.59703">
        <ele>18.4</ele>
        <time>2012-04-01T10:30:08Z</time>
      </trkpt>
      <trkpt lat="47.53335" lon="-0.5968">
        <ele>18.88</ele>
        <time>2012-04-01T10:30:15Z</time>
      </trkpt>
      <trkpt lat="47.53333" lon="-0.59677">
        <ele>18.88</ele>
        <time>2012-04-01T10:30:16Z</time>
      </trkpt>
      <trkpt lat="47.53321" lon="-0.59675">
        <ele>19.36</ele>
        <time>2012-04-01T10:30:20Z</time>
      </trkpt>
      <trkpt lat="47.53297" lon="-0.5968">
        <ele>20.32</ele>
        <time>2012-04-01T10:30:27Z</time>
      </trkpt>
      <trkpt lat="47.53289" lon="-0.59681">
        <ele>21.29</ele>
        <time>2012-04-01T10:30:29Z</time>
      </trkpt>
      <trkpt lat="47.53268" lon="-0.59683">
        <ele>22.73</ele>
        <time>2012-04-01T10:30:35Z</time>
      </trkpt>
      <trkpt lat="47.53239" lon="-0.59685">
        <ele>24.17</ele>
        <time>2012-04-01T10:30:44Z</time>
      </trkpt>
      <trkpt lat="47.53224" lon="-0.5968">
        <ele>25.13</ele>
        <time>2012-04-01T10:30:50Z</time>
      </trkpt>
      <trkpt lat="47.53206" lon="-0.59673">
        <ele>27.05</ele>
        <time>2012-04-01T10:30:56Z</time>
      </trkpt>
      <trkpt lat="47.53191" lon="-0.59657">
        <ele>28.02</ele>
        <time>2012-04-01T10:31:02Z</time>
      </trkpt>
      <trkpt lat="47.53181" lon="-0.59647">
        <ele>28.98</ele>
        <time>2012-04-01T10:31:06Z</time>
      </trkpt>
      <trkpt lat="47.5317" lon="-0.59646">
        <ele>30.42</ele>
        <time>2012-04-01T10:31:10Z</time>
      </trkpt>
      <trkpt lat="47.53148" lon="-0.59636">
        <ele>32.82</ele>
        <time>2012-04-01T10:31:17Z</time>
      </trkpt>
      <trkpt lat="47.53135" lon="-0.59629">
        <ele>34.26</ele>
        <time>2012-04-01T10:31:22Z</time>
      </trkpt>
      <trkpt lat="47.53129" lon="-0.59628">
        <ele>34.74</ele>
        <time>2012-04-01T10:31:25Z</time>
      </trkpt>
      <trkpt lat="47.53113" lon="-0.59608">
        <ele>34.74</ele>
        <time>2012-04-01T10:31:33Z</time>
      </trkpt>
      <trkpt lat="47.53108" lon="-0.59585">
        <ele>35.23</ele>
        <time>2012-04-01T10:31:39Z</time>
      </trkpt>
      <trkpt lat="47.53111" lon="-0.59574">
        <ele>34.74</ele>
        <time>2012-04-01T10:31:41Z</time>
      </trkpt>
      <trkpt lat="47.53112" lon="-0.59516">
        <ele>32.34</ele>
        <time>2012-04-01T10:31:48Z</time>
      </trkpt>
      <trkpt lat="47.53111" lon="-0.59508">
        <ele>31.86</ele>
        <time>2012-04-01T10:31:49Z</time>
      </trkpt>
      <trkpt lat="47.53099" lon="-0.59485">
        <ele>29.46</ele>
        <time>2012-04-01T10:31:52Z</time>
      </trkpt>
      <trkpt lat="47.53086" lon="-0.59481">
        <ele>28.5</ele>
        <time>2012-04-01T10:31:54Z</time>
      </trkpt>
      <trkpt lat="47.53075" lon="-0.5948">
        <ele>28.98</ele>
        <time>2012-04-01T10:31:56Z</time>
      </trkpt>
      <trkpt lat="47.53059" lon="-0.59481">
        <ele>29.94</ele>
        <time>2012-04-01T10:31:59Z</time>
      </trkpt>
      <trkpt lat="47.53022" lon="-0.59481">
        <ele>31.38</ele>
        <time>2012-04-01T10:32:06Z</time>
      </trkpt>
      <trkpt lat="47.5299" lon="-0.59483">
        <ele>31.86</ele>
        <time>2012-04-01T10:32:13Z</time>
      </trkpt>
      <trkpt lat="47.52974" lon="-0.59488">
        <ele>33.78</ele>
        <time>2012-04-01T10:32:17Z</time>
      </trkpt>
      <trkpt lat="47.52929" lon="-0.59498">
        <ele>34.26</ele>
        <time>2012-04-01T10:32:28Z</time>
      </trkpt>
      <trkpt lat="47.5289" lon="-0.59508">
        <ele>35.23</ele>
        <time>2012-04-01T10:32:37Z</time>
      </trkpt>
      <trkpt lat="47.52849" lon="-0.59503">
        <ele>34.74</ele>
        <time>2012-04-01T10:32:45Z</time>
      </trkpt>
      <trkpt lat="47.52845" lon="-0.59503">
        <ele>34.74</ele>
        <time>2012-04-01T10:32:46Z</time>
      </trkpt>
      <trkpt lat="47.52824" lon="-0.59506">
        <ele>34.26</ele>
        <time>2012-04-01T10:32:51Z</time>
      </trkpt>
      <trkpt lat="47.52814" lon="-0.59522">
        <ele>34.74</ele>
        <time>2012-04-01T10:32:54Z</time>
      </trkpt>
      <trkpt lat="47.52806" lon="-0.59542">
        <ele>35.23</ele>
        <time>2012-04-01T10:32:57Z</time>
      </trkpt>
      <trkpt lat="47.52792" lon="-0.59595">
        <ele>36.19</ele>
        <time>2012-04-01T10:33:04Z</time>
      </trkpt>
      <trkpt lat="47.52789" lon="-0.59611">
        <ele>36.19</ele>
        <time>2012-04-01T10:33:06Z</time>
      </trkpt>
      <trkpt lat="47.52786" lon="-0.59624">
        <ele>35.71</ele>
        <time>2012-04-01T10:33:08Z</time>
      </trkpt>
      <trkpt lat="47.52781" lon="-0.59682">
        <ele>35.23</ele>
        <time>2012-04-01T10:33:15Z</time>
      </trkpt>
      <trkpt lat="47.52783" lon="-0.59744">
        <ele>35.23</ele>
        <time>2012-04-01T10:33:22Z</time>
      </trkpt>
      <trkpt lat="47.52787" lon="-0.59781">
        <ele>34.74</ele>
        <time>2012-04-01T10:33:26Z</time>
      </trkpt>
      <trkpt lat="47.52799" lon="-0.59848">
        <ele>34.74</ele>
        <time>2012-04-01T10:33:34Z</time>
      </trkpt>
      <trkpt lat="47.52803" lon="-0.59863">
        <ele>35.23</ele>
        <time>2012-04-01T10:33:36Z</time>
      </trkpt>
      <trkpt lat="47.52807" lon="-0.59877">
        <ele>35.71</ele>
        <time>2012-04-01T10:33:38Z</time>
      </trkpt>
      <trkpt lat="47.52811" lon="-0.59904">
        <ele>35.23</ele>
        <time>2012-04-01T10:33:42Z</time>
      </trkpt>
      <trkpt lat="47.52813" lon="-0.5992">
        <ele>35.71</ele>
        <time>2012-04-01T10:33:44Z</time>
      </trkpt>
      <trkpt lat="47.52811" lon="-0.59986">
        <ele>36.67</ele>
        <time>2012-04-01T10:33:52Z</time>
      </trkpt>
      <trkpt lat="47.52808" lon="-0.60009">
        <ele>36.67</ele>
        <time>2012-04-01T10:33:55Z</time>
      </trkpt>
      <trkpt lat="47.52806" lon="-0.60017">
        <ele>37.15</ele>
        <time>2012-04-01T10:33:56Z</time>
      </trkpt>
      <trkpt lat="47.52799" lon="-0.60045">
        <ele>37.63</ele>
        <time>2012-04-01T10:34:00Z</time>
      </trkpt>
      <trkpt lat="47.5278" lon="-0.60087">
        <ele>38.59</ele>
        <time>2012-04-01T10:34:07Z</time>
      </trkpt>
      <trkpt lat="47.52763" lon="-0.60113">
        <ele>38.59</ele>
        <time>2012-04-01T10:34:13Z</time>
      </trkpt>
      <trkpt lat="47.52751" lon="-0.60124">
        <ele>39.07</ele>
        <time>2012-04-01T10:34:16Z</time>
      </trkpt>
      <trkpt lat="47.52739" lon="-0.60139">
        <ele>39.55</ele>
        <time>2012-04-01T10:34:19Z</time>
      </trkpt>
      <trkpt lat="47.52723" lon="-0.60156">
        <ele>40.03</ele>
        <time>2012-04-01T10:34:23Z</time>
      </trkpt>
      <trkpt lat="47.5272" lon="-0.60162">
        <ele>40.03</ele>
        <time>2012-04-01T10:34:24Z</time>
      </trkpt>
      <trkpt lat="47.52718" lon="-0.60168">
        <ele>40.99</ele>
        <time>2012-04-01T10:34:25Z</time>
      </trkpt>
      <trkpt lat="47.52714" lon="-0.60181">
        <ele>40.99</ele>
        <time>2012-04-01T10:34:27Z</time>
      </trkpt>
      <trkpt lat="47.52711" lon="-0.60186">
        <ele>40.99</ele>
        <time>2012-04-01T10:34:28Z</time>
      </trkpt>
      <trkpt lat="47.52706" lon="-0.60188">
        <ele>40.99</ele>
        <time>2012-04-01T10:34:29Z</time>
      </trkpt>
      <trkpt lat="47.52701" lon="-0.60189">
        <ele>41.47</ele>
        <time>2012-04-01T10:34:30Z</time>
      </trkpt>
      <trkpt lat="47.52696" lon="-0.60189">
        <ele>41.47</ele>
        <time>2012-04-01T10:34:31Z</time>
      </trkpt>
      <trkpt lat="47.52687" lon="-0.60189">
        <ele>41.47</ele>
        <time>2012-04-01T10:34:33Z</time>
      </trkpt>
      <trkpt lat="47.52683" lon="-0.6019">
        <ele>41.47</ele>
        <time>2012-04-01T10:34:34Z</time>
      </trkpt>
      <trkpt lat="47.52664" lon="-0.60196">
        <ele>42.44</ele>
        <time>2012-04-01T10:34:38Z</time>
      </trkpt>
      <trkpt lat="47.52659" lon="-0.60196">
        <ele>42.44</ele>
        <time>2012-04-01T10:34:39Z</time>
      </trkpt>
      <trkpt lat="47.52655" lon="-0.60195">
        <ele>42.92</ele>
        <time>2012-04-01T10:34:40Z</time>
      </trkpt>
      <trkpt lat="47.5265" lon="-0.60194">
        <ele>42.92</ele>
        <time>2012-04-01T10:34:41Z</time>
      </trkpt>
      <trkpt lat="47.52645" lon="-0.60194">
        <ele>42.92</ele>
        <time>2012-04-01T10:34:42Z</time>
      </trkpt>
      <trkpt lat="47.5264" lon="-0.60195">
        <ele>42.92</ele>
        <time>2012-04-01T10:34:43Z</time>
      </trkpt>
      <trkpt lat="47.52601" lon="-0.60199">
        <ele>42.92</ele>
        <time>2012-04-01T10:34:51Z</time>
      </trkpt>
      <trkpt lat="47.52546" lon="-0.60203">
        <ele>44.36</ele>
        <time>2012-04-01T10:35:01Z</time>
      </trkpt>
      <trkpt lat="47.52494" lon="-0.60213">
        <ele>44.36</ele>
        <time>2012-04-01T10:35:10Z</time>
      </trkpt>
      <trkpt lat="47.52489" lon="-0.60215">
        <ele>44.84</ele>
        <time>2012-04-01T10:35:11Z</time>
      </trkpt>
      <trkpt lat="47.52478" lon="-0.60221">
        <ele>44.84</ele>
        <time>2012-04-01T10:35:13Z</time>
      </trkpt>
      <trkpt lat="47.52468" lon="-0.60228">
        <ele>44.84</ele>
        <time>2012-04-01T10:35:15Z</time>
      </trkpt>
      <trkpt lat="47.52463" lon="-0.60231">
        <ele>45.32</ele>
        <time>2012-04-01T10:35:16Z</time>
      </trkpt>
      <trkpt lat="47.52449" lon="-0.6024">
        <ele>45.32</ele>
        <time>2012-04-01T10:35:19Z</time>
      </trkpt>
      <trkpt lat="47.52444" lon="-0.60242">
        <ele>45.32</ele>
        <time>2012-04-01T10:35:20Z</time>
      </trkpt>
      <trkpt lat="47.52439" lon="-0.60245">
        <ele>45.8</ele>
        <time>2012-04-01T10:35:21Z</time>
      </trkpt>
      <trkpt lat="47.52403" lon="-0.60279">
        <ele>45.32</ele>
        <time>2012-04-01T10:35:29Z</time>
      </trkpt>
      <trkpt lat="47.52396" lon="-0.60285">
        <ele>45.32</ele>
        <time>2012-04-01T10:35:31Z</time>
      </trkpt>
      <trkpt lat="47.52393" lon="-0.60283">
        <ele>45.8</ele>
        <time>2012-04-01T10:35:32Z</time>
      </trkpt>
      <trkpt lat="47.5239" lon="-0.60281">
        <ele>45.8</ele>
        <time>2012-04-01T10:35:33Z</time>
      </trkpt>
      <trkpt lat="47.52386" lon="-0.60281">
        <ele>45.8</ele>
        <time>2012-04-01T10:35:34Z</time>
      </trkpt>
      <trkpt lat="47.52382" lon="-0.60282">
        <ele>45.8</ele>
        <time>2012-04-01T10:35:35Z</time>
      </trkpt>
      <trkpt lat="47.52378" lon="-0.60282">
        <ele>46.28</ele>
        <time>2012-04-01T10:35:36Z</time>
      </trkpt>
      <trkpt lat="47.52374" lon="-0.6028">
        <ele>45.8</ele>
        <time>2012-04-01T10:35:37Z</time>
      </trkpt>
      <trkpt lat="47.52369" lon="-0.60277">
        <ele>46.28</ele>
        <time>2012-04-01T10:35:38Z</time>
      </trkpt>
      <trkpt lat="47.52364" lon="-0.60273">
        <ele>46.28</ele>
        <time>2012-04-01T10:35:39Z</time>
      </trkpt>
      <trkpt lat="47.52359" lon="-0.60268">
        <ele>46.28</ele>
        <time>2012-04-01T10:35:40Z</time>
      </trkpt>
      <trkpt lat="47.52355" lon="-0.60263">
        <ele>45.8</ele>
        <time>2012-04-01T10:35:41Z</time>
      </trkpt>
      <trkpt lat="47.5235" lon="-0.60257">
        <ele>46.28</ele>
        <time>2012-04-01T10:35:42Z</time>
      </trkpt>
      <trkpt lat="47.52329" lon="-0.60223">
        <ele>44.84</ele>
        <time>2012-04-01T10:35:47Z</time>
      </trkpt>
      <trkpt lat="47.52311" lon="-0.6018">
        <ele>44.36</ele>
        <time>2012-04-01T10:35:52Z</time>
      </trkpt>
      <trkpt lat="47.52299" lon="-0.60138">
        <ele>43.4</ele>
        <time>2012-04-01T10:35:57Z</time>
      </trkpt>
      <trkpt lat="47.52295" lon="-0.60133">
        <ele>43.4</ele>
        <time>2012-04-01T10:35:58Z</time>
      </trkpt>
      <trkpt lat="47.5229" lon="-0.60127">
        <ele>43.88</ele>
        <time>2012-04-01T10:35:59Z</time>
      </trkpt>
      <trkpt lat="47.5228" lon="-0.60096">
        <ele>44.36</ele>
        <time>2012-04-01T10:36:03Z</time>
      </trkpt>
      <trkpt lat="47.52254" lon="-0.60016">
        <ele>42.92</ele>
        <time>2012-04-01T10:36:13Z</time>
      </trkpt>
      <trkpt lat="47.52246" lon="-0.59985">
        <ele>42.44</ele>
        <time>2012-04-01T10:36:17Z</time>
      </trkpt>
      <trkpt lat="47.52238" lon="-0.59964">
        <ele>42.44</ele>
        <time>2012-04-01T10:36:20Z</time>
      </trkpt>
      <trkpt lat="47.52215" lon="-0.59922">
        <ele>43.4</ele>
        <time>2012-04-01T10:36:27Z</time>
      </trkpt>
      <trkpt lat="47.52211" lon="-0.59914">
        <ele>42.92</ele>
        <time>2012-04-01T10:36:28Z</time>
      </trkpt>
      <trkpt lat="47.52198" lon="-0.59886">
        <ele>41.47</ele>
        <time>2012-04-01T10:36:32Z</time>
      </trkpt>
      <trkpt lat="47.52177" lon="-0.59824">
        <ele>40.51</ele>
        <time>2012-04-01T10:36:39Z</time>
      </trkpt>
      <trkpt lat="47.52168" lon="-0.59807">
        <ele>39.55</ele>
        <time>2012-04-01T10:36:41Z</time>
      </trkpt>
      <trkpt lat="47.52139" lon="-0.5977">
        <ele>36.67</ele>
        <time>2012-04-01T10:36:46Z</time>
      </trkpt>
      <trkpt lat="47.52127" lon="-0.59754">
        <ele>36.67</ele>
        <time>2012-04-01T10:36:48Z</time>
      </trkpt>
      <trkpt lat="47.52072" lon="-0.59696">
        <ele>33.78</ele>
        <time>2012-04-01T10:36:56Z</time>
      </trkpt>
      <trkpt lat="47.52059" lon="-0.59683">
        <ele>33.78</ele>
        <time>2012-04-01T10:36:58Z</time>
      </trkpt>
      <trkpt lat="47.52038" lon="-0.59652">
        <ele>32.34</ele>
        <time>2012-04-01T10:37:02Z</time>
      </trkpt>
      <trkpt lat="47.52023" lon="-0.59614">
        <ele>32.34</ele>
        <time>2012-04-01T10:37:06Z</time>
      </trkpt>
      <trkpt lat="47.52004" lon="-0.59582">
        <ele>31.38</ele>
        <time>2012-04-01T10:37:10Z</time>
      </trkpt>
      <trkpt lat="47.51988" lon="-0.59562">
        <ele>31.38</ele>
        <time>2012-04-01T10:37:13Z</time>
      </trkpt>
      <trkpt lat="47.51967" lon="-0.59528">
        <ele>31.86</ele>
        <time>2012-04-01T10:37:18Z</time>
      </trkpt>
      <trkpt lat="47.51945" lon="-0.59491">
        <ele>30.9</ele>
        <time>2012-04-01T10:37:23Z</time>
      </trkpt>
      <trkpt lat="47.5194" lon="-0.59485">
        <ele>31.86</ele>
        <time>2012-04-01T10:37:24Z</time>
      </trkpt>
      <trkpt lat="47.51897" lon="-0.59436">
        <ele>32.82</ele>
        <time>2012-04-01T10:37:33Z</time>
      </trkpt>
      <trkpt lat="47.5188" lon="-0.59415">
        <ele>33.3</ele>
        <time>2012-04-01T10:37:37Z</time>
      </trkpt>
      <trkpt lat="47.51862" lon="-0.59395">
        <ele>33.3</ele>
        <time>2012-04-01T10:37:41Z</time>
      </trkpt>
      <trkpt lat="47.51844" lon="-0.59372">
        <ele>34.26</ele>
        <time>2012-04-01T10:37:46Z</time>
      </trkpt>
      <trkpt lat="47.51827" lon="-0.59339">
        <ele>35.23</ele>
        <time>2012-04-01T10:37:53Z</time>
      </trkpt>
      <trkpt lat="47.51804" lon="-0.59317">
        <ele>35.23</ele>
        <time>2012-04-01T10:38:00Z</time>
      </trkpt>
      <trkpt lat="47.51783" lon="-0.59298">
        <ele>36.67</ele>
        <time>2012-04-01T10:38:07Z</time>
      </trkpt>
      <trkpt lat="47.51764" lon="-0.59275">
        <ele>38.59</ele>
        <time>2012-04-01T10:38:14Z</time>
      </trkpt>
      <trkpt lat="47.51753" lon="-0.59261">
        <ele>40.03</ele>
        <time>2012-04-01T10:38:18Z</time>
      </trkpt>
      <trkpt lat="47.5173" lon="-0.5923">
        <ele>40.99</ele>
        <time>2012-04-01T10:38:26Z</time>
      </trkpt>
      <trkpt lat="47.51707" lon="-0.59196">
        <ele>42.92</ele>
        <time>2012-04-01T10:38:35Z</time>
      </trkpt>
      <trkpt lat="47.51688" lon="-0.59162">
        <ele>45.32</ele>
        <time>2012-04-01T10:38:43Z</time>
      </trkpt>
      <trkpt lat="47.51664" lon="-0.59125">
        <ele>46.76</ele>
        <time>2012-04-01T10:38:52Z</time>
      </trkpt>
      <trkpt lat="47.5166" lon="-0.59116">
        <ele>46.76</ele>
        <time>2012-04-01T10:38:54Z</time>
      </trkpt>
      <trkpt lat="47.51657" lon="-0.59092">
        <ele>47.72</ele>
        <time>2012-04-01T10:38:58Z</time>
      </trkpt>
      <trkpt lat="47.51645" lon="-0.59029">
        <ele>46.76</ele>
        <time>2012-04-01T10:39:07Z</time>
      </trkpt>
      <trkpt lat="47.51642" lon="-0.59015">
        <ele>46.28</ele>
        <time>2012-04-01T10:39:09Z</time>
      </trkpt>
      <trkpt lat="47.51633" lon="-0.5898">
        <ele>46.76</ele>
        <time>2012-04-01T10:39:14Z</time>
      </trkpt>
      <trkpt lat="47.51627" lon="-0.58913">
        <ele>45.32</ele>
        <time>2012-04-01T10:39:22Z</time>
      </trkpt>
      <trkpt lat="47.51625" lon="-0.58886">
        <ele>44.36</ele>
        <time>2012-04-01T10:39:25Z</time>
      </trkpt>
      <trkpt lat="47.5162" lon="-0.58841">
        <ele>43.88</ele>
        <time>2012-04-01T10:39:30Z</time>
      </trkpt>
      <trkpt lat="47.51618" lon="-0.58805">
        <ele>43.88</ele>
        <time>2012-04-01T10:39:34Z</time>
      </trkpt>
      <trkpt lat="47.51615" lon="-0.58767">
        <ele>42.92</ele>
        <time>2012-04-01T10:39:39Z</time>
      </trkpt>
      <trkpt lat="47.51615" lon="-0.58751">
        <ele>41.95</ele>
        <time>2012-04-01T10:39:42Z</time>
      </trkpt>
      <trkpt lat="47.51619" lon="-0.58746">
        <ele>40.51</ele>
        <time>2012-04-01T10:39:45Z</time>
      </trkpt>
      <trkpt lat="47.51638" lon="-0.58763">
        <ele>40.51</ele>
        <time>2012-04-01T10:39:50Z</time>
      </trkpt>
      <trkpt lat="47.51655" lon="-0.58772">
        <ele>40.03</ele>
        <time>2012-04-01T10:39:53Z</time>
      </trkpt>
      <trkpt lat="47.51674" lon="-0.58775">
        <ele>39.55</ele>
        <time>2012-04-01T10:39:56Z</time>
      </trkpt>
      <trkpt lat="47.51706" lon="-0.58783">
        <ele>39.07</ele>
        <time>2012-04-01T10:40:01Z</time>
      </trkpt>
      <trkpt lat="47.51746" lon="-0.58779">
        <ele>37.63</ele>
        <time>2012-04-01T10:40:07Z</time>
      </trkpt>
      <trkpt lat="47.51799" lon="-0.58772">
        <ele>37.15</ele>
        <time>2012-04-01T10:40:15Z</time>
      </trkpt>
      <trkpt lat="47.51853" lon="-0.58777">
        <ele>37.63</ele>
        <time>2012-04-01T10:40:24Z</time>
      </trkpt>
      <trkpt lat="47.51892" lon="-0.58773">
        <ele>35.71</ele>
        <time>2012-04-01T10:40:30Z</time>
      </trkpt>
      <trkpt lat="47.51905" lon="-0.58771">
        <ele>35.23</ele>
        <time>2012-04-01T10:40:32Z</time>
      </trkpt>
      <trkpt lat="47.51932" lon="-0.58759">
        <ele>34.74</ele>
        <time>2012-04-01T10:40:36Z</time>
      </trkpt>
      <trkpt lat="47.51949" lon="-0.58743">
        <ele>33.78</ele>
        <time>2012-04-01T10:40:39Z</time>
      </trkpt>
      <trkpt lat="47.51976" lon="-0.58726">
        <ele>32.82</ele>
        <time>2012-04-01T10:40:43Z</time>
      </trkpt>
      <trkpt lat="47.51995" lon="-0.58699">
        <ele>31.86</ele>
        <time>2012-04-01T10:40:47Z</time>
      </trkpt>
      <trkpt lat="47.52024" lon="-0.58625">
        <ele>30.42</ele>
        <time>2012-04-01T10:40:56Z</time>
      </trkpt>
      <trkpt lat="47.52034" lon="-0.58599">
        <ele>30.42</ele>
        <time>2012-04-01T10:41:00Z</time>
      </trkpt>
      <trkpt lat="47.52045" lon="-0.58594">
        <ele>28.5</ele>
        <time>2012-04-01T10:41:05Z</time>
      </trkpt>
      <trkpt lat="47.52052" lon="-0.58603">
        <ele>28.02</ele>
        <time>2012-04-01T10:41:08Z</time>
      </trkpt>
      <trkpt lat="47.52078" lon="-0.58631">
        <ele>27.05</ele>
        <time>2012-04-01T10:41:14Z</time>
      </trkpt>
      <trkpt lat="47.52114" lon="-0.58648">
        <ele>28.02</ele>
        <time>2012-04-01T10:41:20Z</time>
      </trkpt>
      <trkpt lat="47.52137" lon="-0.58649">
        <ele>28.02</ele>
        <time>2012-04-01T10:41:24Z</time>
      </trkpt>
      <trkpt lat="47.52171" lon="-0.58665">
        <ele>27.53</ele>
        <time>2012-04-01T10:41:30Z</time>
      </trkpt>
      <trkpt lat="47.52199" lon="-0.58686">
        <ele>27.53</ele>
        <time>2012-04-01T10:41:35Z</time>
      </trkpt>
      <trkpt lat="47.52227" lon="-0.58712">
        <ele>28.02</ele>
        <time>2012-04-01T10:41:40Z</time>
      </trkpt>
      <trkpt lat="47.5226" lon="-0.58739">
        <ele>28.5</ele>
        <time>2012-04-01T10:41:46Z</time>
      </trkpt>
      <trkpt lat="47.52277" lon="-0.58755">
        <ele>28.5</ele>
        <time>2012-04-01T10:41:49Z</time>
      </trkpt>
      <trkpt lat="47.52295" lon="-0.58775">
        <ele>26.57</ele>
        <time>2012-04-01T10:41:52Z</time>
      </trkpt>
      <trkpt lat="47.52323" lon="-0.58802">
        <ele>24.65</ele>
        <time>2012-04-01T10:41:56Z</time>
      </trkpt>
      <trkpt lat="47.52354" lon="-0.58818">
        <ele>23.69</ele>
        <time>2012-04-01T10:42:00Z</time>
      </trkpt>
      <trkpt lat="47.52368" lon="-0.58828">
        <ele>23.69</ele>
        <time>2012-04-01T10:42:02Z</time>
      </trkpt>
      <trkpt lat="47.52408" lon="-0.58849">
        <ele>24.17</ele>
        <time>2012-04-01T10:42:08Z</time>
      </trkpt>
      <trkpt lat="47.5242" lon="-0.58859">
        <ele>24.65</ele>
        <time>2012-04-01T10:42:10Z</time>
      </trkpt>
      <trkpt lat="47.52446" lon="-0.58873">
        <ele>24.17</ele>
        <time>2012-04-01T10:42:14Z</time>
      </trkpt>
      <trkpt lat="47.5248" lon="-0.58881">
        <ele>22.73</ele>
        <time>2012-04-01T10:42:19Z</time>
      </trkpt>
      <trkpt lat="47.52514" lon="-0.58892">
        <ele>21.29</ele>
        <time>2012-04-01T10:42:24Z</time>
      </trkpt>
      <trkpt lat="47.52532" lon="-0.58896">
        <ele>21.29</ele>
        <time>2012-04-01T10:42:27Z</time>
      </trkpt>
      <trkpt lat="47.52545" lon="-0.58877">
        <ele>21.77</ele>
        <time>2012-04-01T10:42:31Z</time>
      </trkpt>
      <trkpt lat="47.52548" lon="-0.5886">
        <ele>21.29</ele>
        <time>2012-04-01T10:42:33Z</time>
      </trkpt>
      <trkpt lat="47.52559" lon="-0.58806">
        <ele>21.29</ele>
        <time>2012-04-01T10:42:39Z</time>
      </trkpt>
      <trkpt lat="47.52563" lon="-0.5876">
        <ele>20.81</ele>
        <time>2012-04-01T10:42:44Z</time>
      </trkpt>
      <trkpt lat="47.52569" lon="-0.58692">
        <ele>20.81</ele>
        <time>2012-04-01T10:42:51Z</time>
      </trkpt>
      <trkpt lat="47.52575" lon="-0.58646">
        <ele>19.84</ele>
        <time>2012-04-01T10:42:56Z</time>
      </trkpt>
      <trkpt lat="47.52579" lon="-0.58595">
        <ele>20.32</ele>
        <time>2012-04-01T10:43:02Z</time>
      </trkpt>
      <trkpt lat="47.52581" lon="-0.5856">
        <ele>19.84</ele>
        <time>2012-04-01T10:43:06Z</time>
      </trkpt>
      <trkpt lat="47.52585" lon="-0.58527">
        <ele>20.32</ele>
        <time>2012-04-01T10:43:10Z</time>
      </trkpt>
      <trkpt lat="47.52589" lon="-0.58494">
        <ele>19.36</ele>
        <time>2012-04-01T10:43:14Z</time>
      </trkpt>
      <trkpt lat="47.52585" lon="-0.58448">
        <ele>18.88</ele>
        <time>2012-04-01T10:43:20Z</time>
      </trkpt>
      <trkpt lat="47.52566" lon="-0.58405">
        <ele>19.36</ele>
        <time>2012-04-01T10:43:27Z</time>
      </trkpt>
      <trkpt lat="47.52563" lon="-0.58394">
        <ele>19.36</ele>
        <time>2012-04-01T10:43:29Z</time>
      </trkpt>
      <trkpt lat="47.52573" lon="-0.58373">
        <ele>19.36</ele>
        <time>2012-04-01T10:43:34Z</time>
      </trkpt>
      <trkpt lat="47.52577" lon="-0.58371">
        <ele>19.36</ele>
        <time>2012-04-01T10:43:35Z</time>
      </trkpt>
      <trkpt lat="47.52605" lon="-0.58354">
        <ele>18.88</ele>
        <time>2012-04-01T10:43:41Z</time>
      </trkpt>
      <trkpt lat="47.52654" lon="-0.58325">
        <ele>18.88</ele>
        <time>2012-04-01T10:43:50Z</time>
      </trkpt>
      <trkpt lat="47.5267" lon="-0.58314">
        <ele>18.4</ele>
        <time>2012-04-01T10:43:53Z</time>
      </trkpt>
      <trkpt lat="47.52707" lon="-0.58289">
        <ele>18.4</ele>
        <time>2012-04-01T10:44:00Z</time>
      </trkpt>
      <trkpt lat="47.5274" lon="-0.58267">
        <ele>18.4</ele>
        <time>2012-04-01T10:44:06Z</time>
      </trkpt>
      <trkpt lat="47.52783" lon="-0.58241">
        <ele>18.4</ele>
        <time>2012-04-01T10:44:14Z</time>
      </trkpt>
      <trkpt lat="47.52819" lon="-0.58219">
        <ele>18.4</ele>
        <time>2012-04-01T10:44:21Z</time>
      </trkpt>
      <trkpt lat="47.52841" lon="-0.58206">
        <ele>18.88</ele>
        <time>2012-04-01T10:44:26Z</time>
      </trkpt>
      <trkpt lat="47.52854" lon="-0.58202">
        <ele>17.92</ele>
        <time>2012-04-01T10:44:30Z</time>
      </trkpt>
      <trkpt lat="47.52858" lon="-0.582">
        <ele>17.92</ele>
        <time>2012-04-01T10:44:36Z</time>
      </trkpt>
      <trkpt lat="47.52858" lon="-0.582">
        <ele>17.92</ele>
        <time>2012-04-01T10:44:39Z</time>
      </trkpt>
      <trkpt lat="47.52872" lon="-0.58187">
        <ele>17.92</ele>
        <time>2012-04-01T10:44:46Z</time>
      </trkpt>
      <trkpt lat="47.52875" lon="-0.58183">
        <ele>17.92</ele>
        <time>2012-04-01T10:44:47Z</time>
      </trkpt>
      <trkpt lat="47.52907" lon="-0.58152">
        <ele>18.4</ele>
        <time>2012-04-01T10:44:54Z</time>
      </trkpt>
      <trkpt lat="47.52946" lon="-0.58113">
        <ele>17.44</ele>
        <time>2012-04-01T10:45:02Z</time>
      </trkpt>
      <trkpt lat="47.52967" lon="-0.58094">
        <ele>17.44</ele>
        <time>2012-04-01T10:45:06Z</time>
      </trkpt>
      <trkpt lat="47.53009" lon="-0.58057">
        <ele>17.44</ele>
        <time>2012-04-01T10:45:14Z</time>
      </trkpt>
      <trkpt lat="47.53027" lon="-0.58042">
        <ele>17.44</ele>
        <time>2012-04-01T10:45:18Z</time>
      </trkpt>
      <trkpt lat="47.5303" lon="-0.58026">
        <ele>15.52</ele>
        <time>2012-04-01T10:45:22Z</time>
      </trkpt>
      <trkpt lat="47.53025" lon="-0.57999">
        <ele>16.48</ele>
        <time>2012-04-01T10:45:27Z</time>
      </trkpt>
      <trkpt lat="47.53021" lon="-0.57979">
        <ele>15.52</ele>
        <time>2012-04-01T10:45:30Z</time>
      </trkpt>
      <trkpt lat="47.53002" lon="-0.57938">
        <ele>17.92</ele>
        <time>2012-04-01T10:45:36Z</time>
      </trkpt>
      <trkpt lat="47.52983" lon="-0.57889">
        <ele>16.96</ele>
        <time>2012-04-01T10:45:43Z</time>
      </trkpt>
      <trkpt lat="47.52963" lon="-0.57848">
        <ele>16.96</ele>
        <time>2012-04-01T10:45:49Z</time>
      </trkpt>
      <trkpt lat="47.52955" lon="-0.57827">
        <ele>16.48</ele>
        <time>2012-04-01T10:45:52Z</time>
      </trkpt>
      <trkpt lat="47.52937" lon="-0.57762">
        <ele>16.96</ele>
        <time>2012-04-01T10:46:01Z</time>
      </trkpt>
      <trkpt lat="47.52927" lon="-0.57715">
        <ele>17.44</ele>
        <time>2012-04-01T10:46:08Z</time>
      </trkpt>
      <trkpt lat="47.52923" lon="-0.57693">
        <ele>17.44</ele>
        <time>2012-04-01T10:46:11Z</time>
      </trkpt>
      <trkpt lat="47.52913" lon="-0.57658">
        <ele>18.4</ele>
        <time>2012-04-01T10:46:16Z</time>
      </trkpt>
      <trkpt lat="47.52908" lon="-0.57646">
        <ele>17.44</ele>
        <time>2012-04-01T10:46:18Z</time>
      </trkpt>
      <trkpt lat="47.52894" lon="-0.57625">
        <ele>17.44</ele>
        <time>2012-04-01T10:46:22Z</time>
      </trkpt>
      <trkpt lat="47.52886" lon="-0.57615">
        <ele>16.96</ele>
        <time>2012-04-01T10:46:24Z</time>
      </trkpt>
      <trkpt lat="47.52875" lon="-0.57599">
        <ele>16.96</ele>
        <time>2012-04-01T10:46:27Z</time>
      </trkpt>
      <trkpt lat="47.52869" lon="-0.57587">
        <ele>17.92</ele>
        <time>2012-04-01T10:46:29Z</time>
      </trkpt>
      <trkpt lat="47.52861" lon="-0.57566">
        <ele>17.92</ele>
        <time>2012-04-01T10:46:32Z</time>
      </trkpt>
      <trkpt lat="47.52828" lon="-0.57505">
        <ele>17.44</ele>
        <time>2012-04-01T10:46:42Z</time>
      </trkpt>
      <trkpt lat="47.52801" lon="-0.57455">
        <ele>18.4</ele>
        <time>2012-04-01T10:46:50Z</time>
      </trkpt>
      <trkpt lat="47.52774" lon="-0.57404">
        <ele>16.96</ele>
        <time>2012-04-01T10:46:58Z</time>
      </trkpt>
      <trkpt lat="47.52767" lon="-0.57391">
        <ele>16.96</ele>
        <time>2012-04-01T10:47:00Z</time>
      </trkpt>
      <trkpt lat="47.52757" lon="-0.57373">
        <ele>17.44</ele>
        <time>2012-04-01T10:47:03Z</time>
      </trkpt>
      <trkpt lat="47.52737" lon="-0.57337">
        <ele>17.44</ele>
        <time>2012-04-01T10:47:09Z</time>
      </trkpt>
      <trkpt lat="47.52714" lon="-0.57295">
        <ele>17.92</ele>
        <time>2012-04-01T10:47:16Z</time>
      </trkpt>
      <trkpt lat="47.52703" lon="-0.57278">
        <ele>17.44</ele>
        <time>2012-04-01T10:47:19Z</time>
      </trkpt>
      <trkpt lat="47.52676" lon="-0.57247">
        <ele>17.44</ele>
        <time>2012-04-01T10:47:26Z</time>
      </trkpt>
      <trkpt lat="47.52664" lon="-0.57233">
        <ele>17.92</ele>
        <time>2012-04-01T10:47:29Z</time>
      </trkpt>
      <trkpt lat="47.52652" lon="-0.5722">
        <ele>16.96</ele>
        <time>2012-04-01T10:47:32Z</time>
      </trkpt>
      <trkpt lat="47.52626" lon="-0.57203">
        <ele>16.48</ele>
        <time>2012-04-01T10:47:38Z</time>
      </trkpt>
      <trkpt lat="47.52622" lon="-0.57198">
        <ele>16</ele>
        <time>2012-04-01T10:47:39Z</time>
      </trkpt>
      <trkpt lat="47.52606" lon="-0.57179">
        <ele>16.48</ele>
        <time>2012-04-01T10:47:43Z</time>
      </trkpt>
      <trkpt lat="47.5259" lon="-0.57154">
        <ele>16.48</ele>
        <time>2012-04-01T10:47:48Z</time>
      </trkpt>
      <trkpt lat="47.52577" lon="-0.57137">
        <ele>16.48</ele>
        <time>2012-04-01T10:47:51Z</time>
      </trkpt>
      <trkpt lat="47.52564" lon="-0.57119">
        <ele>16.48</ele>
        <time>2012-04-01T10:47:54Z</time>
      </trkpt>
      <trkpt lat="47.52537" lon="-0.57083">
        <ele>16.48</ele>
        <time>2012-04-01T10:48:00Z</time>
      </trkpt>
      <trkpt lat="47.52519" lon="-0.57054">
        <ele>16.96</ele>
        <time>2012-04-01T10:48:05Z</time>
      </trkpt>
      <trkpt lat="47.52487" lon="-0.57008">
        <ele>16.96</ele>
        <time>2012-04-01T10:48:13Z</time>
      </trkpt>
      <trkpt lat="47.52462" lon="-0.56974">
        <ele>16.96</ele>
        <time>2012-04-01T10:48:19Z</time>
      </trkpt>
      <trkpt lat="47.52434" lon="-0.56939">
        <ele>17.92</ele>
        <time>2012-04-01T10:48:26Z</time>
      </trkpt>
      <trkpt lat="47.52428" lon="-0.56926">
        <ele>18.4</ele>
        <time>2012-04-01T10:48:29Z</time>
      </trkpt>
      <trkpt lat="47.52422" lon="-0.5692">
        <ele>19.84</ele>
        <time>2012-04-01T10:48:32Z</time>
      </trkpt>
      <trkpt lat="47.52421" lon="-0.56898">
        <ele>20.32</ele>
        <time>2012-04-01T10:48:38Z</time>
      </trkpt>
      <trkpt lat="47.52433" lon="-0.5688">
        <ele>21.77</ele>
        <time>2012-04-01T10:48:42Z</time>
      </trkpt>
      <trkpt lat="47.52449" lon="-0.56854">
        <ele>23.69</ele>
        <time>2012-04-01T10:48:48Z</time>
      </trkpt>
      <trkpt lat="47.52469" lon="-0.5682">
        <ele>22.73</ele>
        <time>2012-04-01T10:48:56Z</time>
      </trkpt>
      <trkpt lat="47.52497" lon="-0.56776">
        <ele>22.73</ele>
        <time>2012-04-01T10:49:05Z</time>
      </trkpt>
      <trkpt lat="47.52501" lon="-0.5677">
        <ele>22.73</ele>
        <time>2012-04-01T10:49:06Z</time>
      </trkpt>
      <trkpt lat="47.5252" lon="-0.56739">
        <ele>21.77</ele>
        <time>2012-04-01T10:49:11Z</time>
      </trkpt>
      <trkpt lat="47.52537" lon="-0.56719">
        <ele>20.32</ele>
        <time>2012-04-01T10:49:15Z</time>
      </trkpt>
      <trkpt lat="47.5257" lon="-0.56702">
        <ele>20.32</ele>
        <time>2012-04-01T10:49:21Z</time>
      </trkpt>
      <trkpt lat="47.52583" lon="-0.56687">
        <ele>19.84</ele>
        <time>2012-04-01T10:49:25Z</time>
      </trkpt>
      <trkpt lat="47.52595" lon="-0.56652">
        <ele>16.48</ele>
        <time>2012-04-01T10:49:32Z</time>
      </trkpt>
      <trkpt lat="47.526" lon="-0.5664">
        <ele>15.52</ele>
        <time>2012-04-01T10:49:36Z</time>
      </trkpt>
      <trkpt lat="47.52603" lon="-0.56636">
        <ele>16</ele>
        <time>2012-04-01T10:49:37Z</time>
      </trkpt>
      <trkpt lat="47.52621" lon="-0.56599">
        <ele>15.52</ele>
        <time>2012-04-01T10:49:44Z</time>
      </trkpt>
      <trkpt lat="47.52624" lon="-0.56592">
        <ele>16.48</ele>
        <time>2012-04-01T10:49:45Z</time>
      </trkpt>
      <trkpt lat="47.52648" lon="-0.56534">
        <ele>16</ele>
        <time>2012-04-01T10:49:54Z</time>
      </trkpt>
      <trkpt lat="47.52659" lon="-0.5651">
        <ele>16</ele>
        <time>2012-04-01T10:49:58Z</time>
      </trkpt>
      <trkpt lat="47.52666" lon="-0.5649">
        <ele>16</ele>
        <time>2012-04-01T10:50:01Z</time>
      </trkpt>
      <trkpt lat="47.52681" lon="-0.5645">
        <ele>16.48</ele>
        <time>2012-04-01T10:50:07Z</time>
      </trkpt>
      <trkpt lat="47.52697" lon="-0.56413">
        <ele>16.48</ele>
        <time>2012-04-01T10:50:13Z</time>
      </trkpt>
      <trkpt lat="47.527" lon="-0.56387">
        <ele>16.48</ele>
        <time>2012-04-01T10:50:17Z</time>
      </trkpt>
      <trkpt lat="47.52689" lon="-0.56373">
        <ele>16.48</ele>
        <time>2012-04-01T10:50:20Z</time>
      </trkpt>
      <trkpt lat="47.52652" lon="-0.56334">
        <ele>16.48</ele>
        <time>2012-04-01T10:50:28Z</time>
      </trkpt>
      <trkpt lat="47.5262" lon="-0.56302">
        <ele>17.92</ele>
        <time>2012-04-01T10:50:35Z</time>
      </trkpt>
      <trkpt lat="47.52588" lon="-0.56269">
        <ele>17.92</ele>
        <time>2012-04-01T10:50:42Z</time>
      </trkpt>
      <trkpt lat="47.52549" lon="-0.56229">
        <ele>18.4</ele>
        <time>2012-04-01T10:50:50Z</time>
      </trkpt>
      <trkpt lat="47.5251" lon="-0.5619">
        <ele>17.44</ele>
        <time>2012-04-01T10:50:58Z</time>
      </trkpt>
      <trkpt lat="47.52491" lon="-0.5617">
        <ele>16.96</ele>
        <time>2012-04-01T10:51:02Z</time>
      </trkpt>
      <trkpt lat="47.52482" lon="-0.56158">
        <ele>17.44</ele>
        <time>2012-04-01T10:51:04Z</time>
      </trkpt>
      <trkpt lat="47.52454" lon="-0.5612">
        <ele>18.4</ele>
        <time>2012-04-01T10:51:11Z</time>
      </trkpt>
      <trkpt lat="47.5242" lon="-0.56073">
        <ele>17.44</ele>
        <time>2012-04-01T10:51:19Z</time>
      </trkpt>
      <trkpt lat="47.52411" lon="-0.56062">
        <ele>16.96</ele>
        <time>2012-04-01T10:51:21Z</time>
      </trkpt>
      <trkpt lat="47.52381" lon="-0.56023">
        <ele>16.96</ele>
        <time>2012-04-01T10:51:28Z</time>
      </trkpt>
      <trkpt lat="47.52344" lon="-0.55974">
        <ele>17.44</ele>
        <time>2012-04-01T10:51:37Z</time>
      </trkpt>
      <trkpt lat="47.5232" lon="-0.55945">
        <ele>16.96</ele>
        <time>2012-04-01T10:51:43Z</time>
      </trkpt>
      <trkpt lat="47.52314" lon="-0.55936">
        <ele>16.48</ele>
        <time>2012-04-01T10:51:45Z</time>
      </trkpt>
      <trkpt lat="47.52298" lon="-0.55918">
        <ele>16.96</ele>
        <time>2012-04-01T10:51:49Z</time>
      </trkpt>
      <trkpt lat="47.52287" lon="-0.55906">
        <ele>17.44</ele>
        <time>2012-04-01T10:51:52Z</time>
      </trkpt>
      <trkpt lat="47.5228" lon="-0.55896">
        <ele>17.44</ele>
        <time>2012-04-01T10:51:54Z</time>
      </trkpt>
      <trkpt lat="47.52273" lon="-0.55886">
        <ele>17.92</ele>
        <time>2012-04-01T10:51:56Z</time>
      </trkpt>
      <trkpt lat="47.52242" lon="-0.55849">
        <ele>17.92</ele>
        <time>2012-04-01T10:52:04Z</time>
      </trkpt>
      <trkpt lat="47.52214" lon="-0.55812">
        <ele>17.44</ele>
        <time>2012-04-01T10:52:11Z</time>
      </trkpt>
      <trkpt lat="47.52188" lon="-0.55759">
        <ele>16.96</ele>
        <time>2012-04-01T10:52:19Z</time>
      </trkpt>
      <trkpt lat="47.52161" lon="-0.55699">
        <ele>16.48</ele>
        <time>2012-04-01T10:52:28Z</time>
      </trkpt>
      <trkpt lat="47.52139" lon="-0.55651">
        <ele>16.96</ele>
        <time>2012-04-01T10:52:35Z</time>
      </trkpt>
      <trkpt lat="47.52134" lon="-0.55638">
        <ele>16.48</ele>
        <time>2012-04-01T10:52:37Z</time>
      </trkpt>
      <trkpt lat="47.5211" lon="-0.55577">
        <ele>16.96</ele>
        <time>2012-04-01T10:52:46Z</time>
      </trkpt>
      <trkpt lat="47.52102" lon="-0.55558">
        <ele>16.96</ele>
        <time>2012-04-01T10:52:49Z</time>
      </trkpt>
      <trkpt lat="47.52085" lon="-0.55489">
        <ele>17.44</ele>
        <time>2012-04-01T10:52:59Z</time>
      </trkpt>
      <trkpt lat="47.52076" lon="-0.55426">
        <ele>17.44</ele>
        <time>2012-04-01T10:53:07Z</time>
      </trkpt>
      <trkpt lat="47.5207" lon="-0.55367">
        <ele>17.44</ele>
        <time>2012-04-01T10:53:14Z</time>
      </trkpt>
      <trkpt lat="47.52069" lon="-0.55359">
        <ele>17.92</ele>
        <time>2012-04-01T10:53:15Z</time>
      </trkpt>
      <trkpt lat="47.52051" lon="-0.55305">
        <ele>17.44</ele>
        <time>2012-04-01T10:53:22Z</time>
      </trkpt>
      <trkpt lat="47.52043" lon="-0.55254">
        <ele>17.92</ele>
        <time>2012-04-01T10:53:28Z</time>
      </trkpt>
      <trkpt lat="47.5204" lon="-0.55195">
        <ele>17.92</ele>
        <time>2012-04-01T10:53:35Z</time>
      </trkpt>
      <trkpt lat="47.5204" lon="-0.55154">
        <ele>17.44</ele>
        <time>2012-04-01T10:53:40Z</time>
      </trkpt>
      <trkpt lat="47.5205" lon="-0.55101">
        <ele>17.44</ele>
        <time>2012-04-01T10:53:47Z</time>
      </trkpt>
      <trkpt lat="47.52069" lon="-0.55039">
        <ele>18.88</ele>
        <time>2012-04-01T10:53:55Z</time>
      </trkpt>
      <trkpt lat="47.52085" lon="-0.54986">
        <ele>18.4</ele>
        <time>2012-04-01T10:54:02Z</time>
      </trkpt>
      <trkpt lat="47.52104" lon="-0.54923">
        <ele>17.92</ele>
        <time>2012-04-01T10:54:10Z</time>
      </trkpt>
      <trkpt lat="47.52126" lon="-0.54846">
        <ele>17.44</ele>
        <time>2012-04-01T10:54:19Z</time>
      </trkpt>
      <trkpt lat="47.52148" lon="-0.54774">
        <ele>16.48</ele>
        <time>2012-04-01T10:54:28Z</time>
      </trkpt>
      <trkpt lat="47.52168" lon="-0.54722">
        <ele>16.96</ele>
        <time>2012-04-01T10:54:35Z</time>
      </trkpt>
      <trkpt lat="47.5217" lon="-0.54715">
        <ele>16.96</ele>
        <time>2012-04-01T10:54:36Z</time>
      </trkpt>
      <trkpt lat="47.52197" lon="-0.54656">
        <ele>17.44</ele>
        <time>2012-04-01T10:54:45Z</time>
      </trkpt>
      <trkpt lat="47.52219" lon="-0.54611">
        <ele>16.96</ele>
        <time>2012-04-01T10:54:52Z</time>
      </trkpt>
      <trkpt lat="47.52221" lon="-0.54605">
        <ele>17.44</ele>
        <time>2012-04-01T10:54:53Z</time>
      </trkpt>
      <trkpt lat="47.52237" lon="-0.54573">
        <ele>16.96</ele>
        <time>2012-04-01T10:54:58Z</time>
      </trkpt>
      <trkpt lat="47.52263" lon="-0.54523">
        <ele>17.44</ele>
        <time>2012-04-01T10:55:06Z</time>
      </trkpt>
      <trkpt lat="47.52267" lon="-0.54517">
        <ele>17.44</ele>
        <time>2012-04-01T10:55:07Z</time>
      </trkpt>
      <trkpt lat="47.52276" lon="-0.54496">
        <ele>17.44</ele>
        <time>2012-04-01T10:55:10Z</time>
      </trkpt>
      <trkpt lat="47.52315" lon="-0.54444">
        <ele>16.96</ele>
        <time>2012-04-01T10:55:19Z</time>
      </trkpt>
      <trkpt lat="47.52357" lon="-0.54409">
        <ele>17.44</ele>
        <time>2012-04-01T10:55:27Z</time>
      </trkpt>
      <trkpt lat="47.52404" lon="-0.54374">
        <ele>17.44</ele>
        <time>2012-04-01T10:55:36Z</time>
      </trkpt>
      <trkpt lat="47.52437" lon="-0.54343">
        <ele>16.48</ele>
        <time>2012-04-01T10:55:43Z</time>
      </trkpt>
      <trkpt lat="47.52465" lon="-0.54337">
        <ele>16</ele>
        <time>2012-04-01T10:55:48Z</time>
      </trkpt>
      <trkpt lat="47.5247" lon="-0.5434">
        <ele>16</ele>
        <time>2012-04-01T10:55:49Z</time>
      </trkpt>
      <trkpt lat="47.52518" lon="-0.54364">
        <ele>15.52</ele>
        <time>2012-04-01T10:55:58Z</time>
      </trkpt>
      <trkpt lat="47.52534" lon="-0.54377">
        <ele>16</ele>
        <time>2012-04-01T10:56:02Z</time>
      </trkpt>
      <trkpt lat="47.5256" lon="-0.54409">
        <ele>16.48</ele>
        <time>2012-04-01T10:56:08Z</time>
      </trkpt>
      <trkpt lat="47.52584" lon="-0.54446">
        <ele>16.96</ele>
        <time>2012-04-01T10:56:14Z</time>
      </trkpt>
      <trkpt lat="47.52621" lon="-0.54512">
        <ele>16.96</ele>
        <time>2012-04-01T10:56:24Z</time>
      </trkpt>
      <trkpt lat="47.52659" lon="-0.54571">
        <ele>16.96</ele>
        <time>2012-04-01T10:56:34Z</time>
      </trkpt>
      <trkpt lat="47.52686" lon="-0.54611">
        <ele>16.96</ele>
        <time>2012-04-01T10:56:41Z</time>
      </trkpt>
      <trkpt lat="47.52697" lon="-0.54629">
        <ele>16.48</ele>
        <time>2012-04-01T10:56:44Z</time>
      </trkpt>
      <trkpt lat="47.52718" lon="-0.54656">
        <ele>16.48</ele>
        <time>2012-04-01T10:56:49Z</time>
      </trkpt>
      <trkpt lat="47.52757" lon="-0.54702">
        <ele>16.96</ele>
        <time>2012-04-01T10:56:58Z</time>
      </trkpt>
      <trkpt lat="47.52782" lon="-0.54737">
        <ele>16.48</ele>
        <time>2012-04-01T10:57:04Z</time>
      </trkpt>
      <trkpt lat="47.52811" lon="-0.54785">
        <ele>16.96</ele>
        <time>2012-04-01T10:57:12Z</time>
      </trkpt>
      <trkpt lat="47.52822" lon="-0.54804">
        <ele>17.44</ele>
        <time>2012-04-01T10:57:15Z</time>
      </trkpt>
      <trkpt lat="47.52853" lon="-0.54872">
        <ele>17.44</ele>
        <time>2012-04-01T10:57:25Z</time>
      </trkpt>
      <trkpt lat="47.52881" lon="-0.5494">
        <ele>17.44</ele>
        <time>2012-04-01T10:57:34Z</time>
      </trkpt>
      <trkpt lat="47.5291" lon="-0.55006">
        <ele>16.96</ele>
        <time>2012-04-01T10:57:43Z</time>
      </trkpt>
      <trkpt lat="47.52929" lon="-0.55039">
        <ele>16.96</ele>
        <time>2012-04-01T10:57:48Z</time>
      </trkpt>
      <trkpt lat="47.52967" lon="-0.55087">
        <ele>16.96</ele>
        <time>2012-04-01T10:57:57Z</time>
      </trkpt>
      <trkpt lat="47.52995" lon="-0.55127">
        <ele>17.44</ele>
        <time>2012-04-01T10:58:04Z</time>
      </trkpt>
      <trkpt lat="47.53023" lon="-0.55155">
        <ele>17.92</ele>
        <time>2012-04-01T10:58:10Z</time>
      </trkpt>
      <trkpt lat="47.53066" lon="-0.55201">
        <ele>16.96</ele>
        <time>2012-04-01T10:58:19Z</time>
      </trkpt>
      <trkpt lat="47.53088" lon="-0.5523">
        <ele>16.96</ele>
        <time>2012-04-01T10:58:24Z</time>
      </trkpt>
      <trkpt lat="47.53125" lon="-0.55274">
        <ele>16.48</ele>
        <time>2012-04-01T10:58:32Z</time>
      </trkpt>
      <trkpt lat="47.53146" lon="-0.55294">
        <ele>16.48</ele>
        <time>2012-04-01T10:58:36Z</time>
      </trkpt>
      <trkpt lat="47.5319" lon="-0.55332">
        <ele>16.96</ele>
        <time>2012-04-01T10:58:45Z</time>
      </trkpt>
      <trkpt lat="47.53227" lon="-0.55363">
        <ele>16.96</ele>
        <time>2012-04-01T10:58:52Z</time>
      </trkpt>
      <trkpt lat="47.53271" lon="-0.55402">
        <ele>16.96</ele>
        <time>2012-04-01T10:59:00Z</time>
      </trkpt>
      <trkpt lat="47.53303" lon="-0.55437">
        <ele>16.48</ele>
        <time>2012-04-01T10:59:07Z</time>
      </trkpt>
      <trkpt lat="47.5332" lon="-0.55445">
        <ele>16</ele>
        <time>2012-04-01T10:59:12Z</time>
      </trkpt>
      <trkpt lat="47.53329" lon="-0.55434">
        <ele>15.04</ele>
        <time>2012-04-01T10:59:18Z</time>
      </trkpt>
      <trkpt lat="47.53331" lon="-0.55435">
        <ele>15.04</ele>
        <time>2012-04-01T10:59:22Z</time>
      </trkpt>
      <trkpt lat="47.53332" lon="-0.55434">
        <ele>15.04</ele>
        <time>2012-04-01T10:59:25Z</time>
      </trkpt>
      <trkpt lat="47.53335" lon="-0.55424">
        <ele>14.56</ele>
        <time>2012-04-01T10:59:29Z</time>
      </trkpt>
      <trkpt lat="47.53344" lon="-0.55403">
        <ele>14.56</ele>
        <time>2012-04-01T10:59:33Z</time>
      </trkpt>
      <trkpt lat="47.53355" lon="-0.55386">
        <ele>15.04</ele>
        <time>2012-04-01T10:59:36Z</time>
      </trkpt>
      <trkpt lat="47.53371" lon="-0.55355">
        <ele>15.04</ele>
        <time>2012-04-01T10:59:41Z</time>
      </trkpt>
      <trkpt lat="47.53385" lon="-0.55307">
        <ele>15.52</ele>
        <time>2012-04-01T10:59:48Z</time>
      </trkpt>
      <trkpt lat="47.53394" lon="-0.55291">
        <ele>15.52</ele>
        <time>2012-04-01T10:59:51Z</time>
      </trkpt>
      <trkpt lat="47.53404" lon="-0.55276">
        <ele>15.04</ele>
        <time>2012-04-01T10:59:54Z</time>
      </trkpt>
      <trkpt lat="47.53415" lon="-0.55252">
        <ele>15.04</ele>
        <time>2012-04-01T10:59:58Z</time>
      </trkpt>
      <trkpt lat="47.53433" lon="-0.55207">
        <ele>15.04</ele>
        <time>2012-04-01T11:00:06Z</time>
      </trkpt>
      <trkpt lat="47.53435" lon="-0.55201">
        <ele>15.04</ele>
        <time>2012-04-01T11:00:07Z</time>
      </trkpt>
      <trkpt lat="47.53456" lon="-0.55156">
        <ele>14.56</ele>
        <time>2012-04-01T11:00:15Z</time>
      </trkpt>
      <trkpt lat="47.53476" lon="-0.5511">
        <ele>14.56</ele>
        <time>2012-04-01T11:00:23Z</time>
      </trkpt>
      <trkpt lat="47.53483" lon="-0.55093">
        <ele>15.04</ele>
        <time>2012-04-01T11:00:26Z</time>
      </trkpt>
      <trkpt lat="47.53503" lon="-0.55048">
        <ele>15.52</ele>
        <time>2012-04-01T11:00:34Z</time>
      </trkpt>
      <trkpt lat="47.53524" lon="-0.54999">
        <ele>15.52</ele>
        <time>2012-04-01T11:00:42Z</time>
      </trkpt>
      <trkpt lat="47.53543" lon="-0.54957">
        <ele>15.04</ele>
        <time>2012-04-01T11:00:49Z</time>
      </trkpt>
      <trkpt lat="47.53563" lon="-0.5491">
        <ele>15.52</ele>
        <time>2012-04-01T11:00:57Z</time>
      </trkpt>
      <trkpt lat="47.53568" lon="-0.549">
        <ele>15.52</ele>
        <time>2012-04-01T11:00:59Z</time>
      </trkpt>
      <trkpt lat="47.5358" lon="-0.54867">
        <ele>16</ele>
        <time>2012-04-01T11:01:05Z</time>
      </trkpt>
      <trkpt lat="47.53587" lon="-0.54828">
        <ele>15.04</ele>
        <time>2012-04-01T11:01:12Z</time>
      </trkpt>
      <trkpt lat="47.5359" lon="-0.54821">
        <ele>14.56</ele>
        <time>2012-04-01T11:01:14Z</time>
      </trkpt>
      <trkpt lat="47.53611" lon="-0.54818">
        <ele>15.04</ele>
        <time>2012-04-01T11:01:20Z</time>
      </trkpt>
      <trkpt lat="47.53642" lon="-0.54821">
        <ele>15.04</ele>
        <time>2012-04-01T11:01:27Z</time>
      </trkpt>
      <trkpt lat="47.53661" lon="-0.54821">
        <ele>14.56</ele>
        <time>2012-04-01T11:01:31Z</time>
      </trkpt>
      <trkpt lat="47.53686" lon="-0.54813">
        <ele>15.04</ele>
        <time>2012-04-01T11:01:36Z</time>
      </trkpt>
      <trkpt lat="47.53721" lon="-0.54801">
        <ele>15.04</ele>
        <time>2012-04-01T11:01:43Z</time>
      </trkpt>
      <trkpt lat="47.53742" lon="-0.54801">
        <ele>15.52</ele>
        <time>2012-04-01T11:01:48Z</time>
      </trkpt>
      <trkpt lat="47.53774" lon="-0.54799">
        <ele>15.52</ele>
        <time>2012-04-01T11:01:55Z</time>
      </trkpt>
      <trkpt lat="47.5381" lon="-0.54801">
        <ele>15.52</ele>
        <time>2012-04-01T11:02:02Z</time>
      </trkpt>
      <trkpt lat="47.53825" lon="-0.548">
        <ele>15.52</ele>
        <time>2012-04-01T11:02:05Z</time>
      </trkpt>
      <trkpt lat="47.53848" lon="-0.54794">
        <ele>15.52</ele>
        <time>2012-04-01T11:02:10Z</time>
      </trkpt>
      <trkpt lat="47.53868" lon="-0.54795">
        <ele>15.52</ele>
        <time>2012-04-01T11:02:14Z</time>
      </trkpt>
      <trkpt lat="47.53915" lon="-0.54814">
        <ele>14.56</ele>
        <time>2012-04-01T11:02:23Z</time>
      </trkpt>
      <trkpt lat="47.53926" lon="-0.54819">
        <ele>14.08</ele>
        <time>2012-04-01T11:02:25Z</time>
      </trkpt>
      <trkpt lat="47.53962" lon="-0.54826">
        <ele>14.56</ele>
        <time>2012-04-01T11:02:32Z</time>
      </trkpt>
      <trkpt lat="47.53988" lon="-0.54829">
        <ele>14.56</ele>
        <time>2012-04-01T11:02:37Z</time>
      </trkpt>
      <trkpt lat="47.5403" lon="-0.54828">
        <ele>14.56</ele>
        <time>2012-04-01T11:02:45Z</time>
      </trkpt>
      <trkpt lat="47.5406" lon="-0.54826">
        <ele>15.04</ele>
        <time>2012-04-01T11:02:51Z</time>
      </trkpt>
      <trkpt lat="47.54086" lon="-0.54837">
        <ele>14.56</ele>
        <time>2012-04-01T11:02:56Z</time>
      </trkpt>
      <trkpt lat="47.54102" lon="-0.54841">
        <ele>14.08</ele>
        <time>2012-04-01T11:02:59Z</time>
      </trkpt>
      <trkpt lat="47.54127" lon="-0.54855">
        <ele>14.56</ele>
        <time>2012-04-01T11:03:04Z</time>
      </trkpt>
      <trkpt lat="47.54137" lon="-0.54862">
        <ele>14.08</ele>
        <time>2012-04-01T11:03:06Z</time>
      </trkpt>
      <trkpt lat="47.54155" lon="-0.54867">
        <ele>14.08</ele>
        <time>2012-04-01T11:03:10Z</time>
      </trkpt>
      <trkpt lat="47.54182" lon="-0.54851">
        <ele>14.08</ele>
        <time>2012-04-01T11:03:16Z</time>
      </trkpt>
      <trkpt lat="47.54188" lon="-0.54826">
        <ele>15.04</ele>
        <time>2012-04-01T11:03:20Z</time>
      </trkpt>
      <trkpt lat="47.54188" lon="-0.54812">
        <ele>15.04</ele>
        <time>2012-04-01T11:03:22Z</time>
      </trkpt>
      <trkpt lat="47.54188" lon="-0.54784">
        <ele>15.52</ele>
        <time>2012-04-01T11:03:26Z</time>
      </trkpt>
      <trkpt lat="47.54188" lon="-0.54723">
        <ele>15.52</ele>
        <time>2012-04-01T11:03:34Z</time>
      </trkpt>
      <trkpt lat="47.54189" lon="-0.54664">
        <ele>14.56</ele>
        <time>2012-04-01T11:03:42Z</time>
      </trkpt>
      <trkpt lat="47.542" lon="-0.54649">
        <ele>15.04</ele>
        <time>2012-04-01T11:03:46Z</time>
      </trkpt>
      <trkpt lat="47.54205" lon="-0.54649">
        <ele>15.04</ele>
        <time>2012-04-01T11:03:47Z</time>
      </trkpt>
      <trkpt lat="47.54241" lon="-0.54648">
        <ele>15.04</ele>
        <time>2012-04-01T11:03:54Z</time>
      </trkpt>
      <trkpt lat="47.54287" lon="-0.54641">
        <ele>15.52</ele>
        <time>2012-04-01T11:04:03Z</time>
      </trkpt>
      <trkpt lat="47.54325" lon="-0.54636">
        <ele>15.52</ele>
        <time>2012-04-01T11:04:11Z</time>
      </trkpt>
      <trkpt lat="47.54366" lon="-0.54636">
        <ele>15.52</ele>
        <time>2012-04-01T11:04:19Z</time>
      </trkpt>
      <trkpt lat="47.54407" lon="-0.54627">
        <ele>15.04</ele>
        <time>2012-04-01T11:04:27Z</time>
      </trkpt>
      <trkpt lat="47.54452" lon="-0.54604">
        <ele>15.52</ele>
        <time>2012-04-01T11:04:36Z</time>
      </trkpt>
      <trkpt lat="47.54498" lon="-0.54563">
        <ele>15.52</ele>
        <time>2012-04-01T11:04:46Z</time>
      </trkpt>
      <trkpt lat="47.54536" lon="-0.5451">
        <ele>15.04</ele>
        <time>2012-04-01T11:04:56Z</time>
      </trkpt>
      <trkpt lat="47.54568" lon="-0.54461">
        <ele>14.56</ele>
        <time>2012-04-01T11:05:05Z</time>
      </trkpt>
      <trkpt lat="47.54603" lon="-0.54416">
        <ele>14.56</ele>
        <time>2012-04-01T11:05:14Z</time>
      </trkpt>
      <trkpt lat="47.5464" lon="-0.54385">
        <ele>15.04</ele>
        <time>2012-04-01T11:05:22Z</time>
      </trkpt>
      <trkpt lat="47.54682" lon="-0.54351">
        <ele>15.04</ele>
        <time>2012-04-01T11:05:31Z</time>
      </trkpt>
      <trkpt lat="47.54719" lon="-0.5432">
        <ele>15.52</ele>
        <time>2012-04-01T11:05:39Z</time>
      </trkpt>
      <trkpt lat="47.54723" lon="-0.54316">
        <ele>15.52</ele>
        <time>2012-04-01T11:05:40Z</time>
      </trkpt>
      <trkpt lat="47.54748" lon="-0.54302">
        <ele>15.52</ele>
        <time>2012-04-01T11:05:45Z</time>
      </trkpt>
      <trkpt lat="47.54771" lon="-0.54269">
        <ele>14.56</ele>
        <time>2012-04-01T11:05:51Z</time>
      </trkpt>
      <trkpt lat="47.54805" lon="-0.54224">
        <ele>15.52</ele>
        <time>2012-04-01T11:05:59Z</time>
      </trkpt>
      <trkpt lat="47.54834" lon="-0.54189">
        <ele>15.52</ele>
        <time>2012-04-01T11:06:06Z</time>
      </trkpt>
      <trkpt lat="47.54865" lon="-0.54146">
        <ele>15.52</ele>
        <time>2012-04-01T11:06:14Z</time>
      </trkpt>
      <trkpt lat="47.54869" lon="-0.5414">
        <ele>15.52</ele>
        <time>2012-04-01T11:06:15Z</time>
      </trkpt>
      <trkpt lat="47.54906" lon="-0.54089">
        <ele>15.52</ele>
        <time>2012-04-01T11:06:25Z</time>
      </trkpt>
      <trkpt lat="47.54919" lon="-0.54068">
        <ele>15.04</ele>
        <time>2012-04-01T11:06:29Z</time>
      </trkpt>
      <trkpt lat="47.54936" lon="-0.54034">
        <ele>16</ele>
        <time>2012-04-01T11:06:35Z</time>
      </trkpt>
      <trkpt lat="47.54947" lon="-0.5402">
        <ele>16.48</ele>
        <time>2012-04-01T11:06:38Z</time>
      </trkpt>
      <trkpt lat="47.54954" lon="-0.5401">
        <ele>16</ele>
        <time>2012-04-01T11:06:40Z</time>
      </trkpt>
      <trkpt lat="47.54982" lon="-0.53951">
        <ele>16.48</ele>
        <time>2012-04-01T11:06:50Z</time>
      </trkpt>
      <trkpt lat="47.55008" lon="-0.53898">
        <ele>16</ele>
        <time>2012-04-01T11:06:59Z</time>
      </trkpt>
      <trkpt lat="47.55034" lon="-0.53842">
        <ele>15.52</ele>
        <time>2012-04-01T11:07:08Z</time>
      </trkpt>
      <trkpt lat="47.55055" lon="-0.53798">
        <ele>16</ele>
        <time>2012-04-01T11:07:15Z</time>
      </trkpt>
      <trkpt lat="47.55085" lon="-0.53756">
        <ele>15.52</ele>
        <time>2012-04-01T11:07:23Z</time>
      </trkpt>
      <trkpt lat="47.55125" lon="-0.53727">
        <ele>16</ele>
        <time>2012-04-01T11:07:32Z</time>
      </trkpt>
      <trkpt lat="47.55158" lon="-0.5373">
        <ele>15.52</ele>
        <time>2012-04-01T11:07:39Z</time>
      </trkpt>
      <trkpt lat="47.55203" lon="-0.5374">
        <ele>15.52</ele>
        <time>2012-04-01T11:07:48Z</time>
      </trkpt>
      <trkpt lat="47.55248" lon="-0.5375">
        <ele>15.04</ele>
        <time>2012-04-01T11:07:57Z</time>
      </trkpt>
      <trkpt lat="47.55267" lon="-0.53757">
        <ele>15.52</ele>
        <time>2012-04-01T11:08:01Z</time>
      </trkpt>
      <trkpt lat="47.5528" lon="-0.53755">
        <ele>15.52</ele>
        <time>2012-04-01T11:08:04Z</time>
      </trkpt>
      <trkpt lat="47.55322" lon="-0.53766">
        <ele>15.04</ele>
        <time>2012-04-01T11:08:12Z</time>
      </trkpt>
      <trkpt lat="47.55372" lon="-0.53771">
        <ele>15.04</ele>
        <time>2012-04-01T11:08:21Z</time>
      </trkpt>
      <trkpt lat="47.55418" lon="-0.53778">
        <ele>15.04</ele>
        <time>2012-04-01T11:08:29Z</time>
      </trkpt>
      <trkpt lat="47.55467" lon="-0.53782">
        <ele>15.04</ele>
        <time>2012-04-01T11:08:38Z</time>
      </trkpt>
      <trkpt lat="47.55498" lon="-0.53777">
        <ele>15.52</ele>
        <time>2012-04-01T11:08:44Z</time>
      </trkpt>
      <trkpt lat="47.55523" lon="-0.53766">
        <ele>14.08</ele>
        <time>2012-04-01T11:08:49Z</time>
      </trkpt>
      <trkpt lat="47.55537" lon="-0.53758">
        <ele>14.56</ele>
        <time>2012-04-01T11:08:52Z</time>
      </trkpt>
      <trkpt lat="47.55581" lon="-0.53736">
        <ele>14.56</ele>
        <time>2012-04-01T11:09:00Z</time>
      </trkpt>
      <trkpt lat="47.55637" lon="-0.53707">
        <ele>15.52</ele>
        <time>2012-04-01T11:09:11Z</time>
      </trkpt>
      <trkpt lat="47.55652" lon="-0.53699">
        <ele>13.6</ele>
        <time>2012-04-01T11:09:14Z</time>
      </trkpt>
      <trkpt lat="47.55693" lon="-0.5367">
        <ele>14.08</ele>
        <time>2012-04-01T11:09:23Z</time>
      </trkpt>
      <trkpt lat="47.55706" lon="-0.53661">
        <ele>14.56</ele>
        <time>2012-04-01T11:09:26Z</time>
      </trkpt>
      <trkpt lat="47.5573" lon="-0.53662">
        <ele>14.08</ele>
        <time>2012-04-01T11:09:31Z</time>
      </trkpt>
      <trkpt lat="47.5574" lon="-0.53679">
        <ele>15.04</ele>
        <time>2012-04-01T11:09:34Z</time>
      </trkpt>
      <trkpt lat="47.55763" lon="-0.53752">
        <ele>15.04</ele>
        <time>2012-04-01T11:09:44Z</time>
      </trkpt>
      <trkpt lat="47.55768" lon="-0.53768">
        <ele>14.08</ele>
        <time>2012-04-01T11:09:46Z</time>
      </trkpt>
      <trkpt lat="47.55776" lon="-0.53797">
        <ele>14.08</ele>
        <time>2012-04-01T11:09:50Z</time>
      </trkpt>
      <trkpt lat="47.55785" lon="-0.53821">
        <ele>15.04</ele>
        <time>2012-04-01T11:09:54Z</time>
      </trkpt>
      <trkpt lat="47.55799" lon="-0.5387">
        <ele>10.71</ele>
        <time>2012-04-01T11:10:01Z</time>
      </trkpt>
      <trkpt lat="47.55801" lon="-0.53877">
        <ele>15.52</ele>
        <time>2012-04-01T11:10:02Z</time>
      </trkpt>
      <trkpt lat="47.55805" lon="-0.53892">
        <ele>14.08</ele>
        <time>2012-04-01T11:10:04Z</time>
      </trkpt>
      <trkpt lat="47.55821" lon="-0.53943">
        <ele>11.19</ele>
        <time>2012-04-01T11:10:11Z</time>
      </trkpt>
      <trkpt lat="47.55823" lon="-0.5395">
        <ele>14.56</ele>
        <time>2012-04-01T11:10:12Z</time>
      </trkpt>
      <trkpt lat="47.55843" lon="-0.54018">
        <ele>14.08</ele>
        <time>2012-04-01T11:10:21Z</time>
      </trkpt>
      <trkpt lat="47.55857" lon="-0.54066">
        <ele>13.6</ele>
        <time>2012-04-01T11:10:27Z</time>
      </trkpt>
      <trkpt lat="47.55881" lon="-0.54135">
        <ele>14.56</ele>
        <time>2012-04-01T11:10:36Z</time>
      </trkpt>
      <trkpt lat="47.55905" lon="-0.54196">
        <ele>14.56</ele>
        <time>2012-04-01T11:10:44Z</time>
      </trkpt>
      <trkpt lat="47.55928" lon="-0.54257">
        <ele>14.56</ele>
        <time>2012-04-01T11:10:52Z</time>
      </trkpt>
      <trkpt lat="47.55964" lon="-0.5432">
        <ele>13.6</ele>
        <time>2012-04-01T11:11:01Z</time>
      </trkpt>
      <trkpt lat="47.56002" lon="-0.54371">
        <ele>14.56</ele>
        <time>2012-04-01T11:11:10Z</time>
      </trkpt>
      <trkpt lat="47.56035" lon="-0.54416">
        <ele>14.56</ele>
        <time>2012-04-01T11:11:18Z</time>
      </trkpt>
      <trkpt lat="47.56061" lon="-0.54449">
        <ele>14.56</ele>
        <time>2012-04-01T11:11:24Z</time>
      </trkpt>
      <trkpt lat="47.56097" lon="-0.54498">
        <ele>13.6</ele>
        <time>2012-04-01T11:11:33Z</time>
      </trkpt>
      <trkpt lat="47.56101" lon="-0.54503">
        <ele>13.6</ele>
        <time>2012-04-01T11:11:34Z</time>
      </trkpt>
      <trkpt lat="47.56116" lon="-0.54523">
        <ele>14.08</ele>
        <time>2012-04-01T11:11:38Z</time>
      </trkpt>
      <trkpt lat="47.5614" lon="-0.54572">
        <ele>13.6</ele>
        <time>2012-04-01T11:11:46Z</time>
      </trkpt>
      <trkpt lat="47.56148" lon="-0.54601">
        <ele>14.56</ele>
        <time>2012-04-01T11:11:50Z</time>
      </trkpt>
      <trkpt lat="47.56155" lon="-0.54627">
        <ele>16.96</ele>
        <time>2012-04-01T11:11:55Z</time>
      </trkpt>
      <trkpt lat="47.56143" lon="-0.54644">
        <ele>16.96</ele>
        <time>2012-04-01T11:12:00Z</time>
      </trkpt>
      <trkpt lat="47.56124" lon="-0.5466">
        <ele>17.44</ele>
        <time>2012-04-01T11:12:05Z</time>
      </trkpt>
      <trkpt lat="47.56112" lon="-0.54684">
        <ele>16.96</ele>
        <time>2012-04-01T11:12:10Z</time>
      </trkpt>
      <trkpt lat="47.56114" lon="-0.5469">
        <ele>17.92</ele>
        <time>2012-04-01T11:12:11Z</time>
      </trkpt>
      <trkpt lat="47.56127" lon="-0.54728">
        <ele>18.88</ele>
        <time>2012-04-01T11:12:18Z</time>
      </trkpt>
      <trkpt lat="47.56139" lon="-0.54757">
        <ele>19.84</ele>
        <time>2012-04-01T11:12:24Z</time>
      </trkpt>
      <trkpt lat="47.56147" lon="-0.54772">
        <ele>19.84</ele>
        <time>2012-04-01T11:12:29Z</time>
      </trkpt>
      <trkpt lat="47.5616" lon="-0.54796">
        <ele>21.29</ele>
        <time>2012-04-01T11:12:35Z</time>
      </trkpt>
      <trkpt lat="47.56169" lon="-0.54811">
        <ele>22.73</ele>
        <time>2012-04-01T11:12:40Z</time>
      </trkpt>
      <trkpt lat="47.56176" lon="-0.5482">
        <ele>23.69</ele>
        <time>2012-04-01T11:12:43Z</time>
      </trkpt>
      <trkpt lat="47.56183" lon="-0.54836">
        <ele>26.09</ele>
        <time>2012-04-01T11:12:48Z</time>
      </trkpt>
      <trkpt lat="47.56194" lon="-0.54854">
        <ele>27.53</ele>
        <time>2012-04-01T11:12:54Z</time>
      </trkpt>
      <trkpt lat="47.56197" lon="-0.5486">
        <ele>28.5</ele>
        <time>2012-04-01T11:12:56Z</time>
      </trkpt>
      <trkpt lat="47.56206" lon="-0.54879">
        <ele>30.9</ele>
        <time>2012-04-01T11:13:03Z</time>
      </trkpt>
      <trkpt lat="47.56212" lon="-0.54898">
        <ele>32.34</ele>
        <time>2012-04-01T11:13:10Z</time>
      </trkpt>
      <trkpt lat="47.56219" lon="-0.54917">
        <ele>33.78</ele>
        <time>2012-04-01T11:13:17Z</time>
      </trkpt>
      <trkpt lat="47.56222" lon="-0.54936">
        <ele>34.74</ele>
        <time>2012-04-01T11:13:23Z</time>
      </trkpt>
      <trkpt lat="47.56223" lon="-0.54953">
        <ele>36.67</ele>
        <time>2012-04-01T11:13:29Z</time>
      </trkpt>
      <trkpt lat="47.56223" lon="-0.54956">
        <ele>36.67</ele>
        <time>2012-04-01T11:13:30Z</time>
      </trkpt>
      <trkpt lat="47.5622" lon="-0.5497">
        <ele>39.07</ele>
        <time>2012-04-01T11:13:36Z</time>
      </trkpt>
      <trkpt lat="47.5621" lon="-0.54983">
        <ele>40.51</ele>
        <time>2012-04-01T11:13:43Z</time>
      </trkpt>
      <trkpt lat="47.56198" lon="-0.54994">
        <ele>40.51</ele>
        <time>2012-04-01T11:13:51Z</time>
      </trkpt>
      <trkpt lat="47.56187" lon="-0.55004">
        <ele>40.99</ele>
        <time>2012-04-01T11:13:58Z</time>
      </trkpt>
      <trkpt lat="47.56173" lon="-0.55018">
        <ele>41.95</ele>
        <time>2012-04-01T11:14:06Z</time>
      </trkpt>
      <trkpt lat="47.5616" lon="-0.55042">
        <ele>42.92</ele>
        <time>2012-04-01T11:14:15Z</time>
      </trkpt>
      <trkpt lat="47.56147" lon="-0.55066">
        <ele>44.36</ele>
        <time>2012-04-01T11:14:23Z</time>
      </trkpt>
      <trkpt lat="47.56131" lon="-0.551">
        <ele>44.84</ele>
        <time>2012-04-01T11:14:32Z</time>
      </trkpt>
      <trkpt lat="47.56118" lon="-0.55128">
        <ele>46.28</ele>
        <time>2012-04-01T11:14:39Z</time>
      </trkpt>
      <trkpt lat="47.56102" lon="-0.5516">
        <ele>46.28</ele>
        <time>2012-04-01T11:14:47Z</time>
      </trkpt>
      <trkpt lat="47.56089" lon="-0.55189">
        <ele>47.24</ele>
        <time>2012-04-01T11:14:54Z</time>
      </trkpt>
      <trkpt lat="47.56075" lon="-0.55221">
        <ele>48.2</ele>
        <time>2012-04-01T11:15:02Z</time>
      </trkpt>
      <trkpt lat="47.56072" lon="-0.5524">
        <ele>49.16</ele>
        <time>2012-04-01T11:15:07Z</time>
      </trkpt>
      <trkpt lat="47.56082" lon="-0.55254">
        <ele>49.16</ele>
        <time>2012-04-01T11:15:12Z</time>
      </trkpt>
      <trkpt lat="47.56094" lon="-0.55281">
        <ele>49.65</ele>
        <time>2012-04-01T11:15:18Z</time>
      </trkpt>
      <trkpt lat="47.56107" lon="-0.55315">
        <ele>50.61</ele>
        <time>2012-04-01T11:15:25Z</time>
      </trkpt>
      <trkpt lat="47.56127" lon="-0.55367">
        <ele>51.09</ele>
        <time>2012-04-01T11:15:34Z</time>
      </trkpt>
      <trkpt lat="47.56147" lon="-0.5542">
        <ele>51.57</ele>
        <time>2012-04-01T11:15:43Z</time>
      </trkpt>
      <trkpt lat="47.5615" lon="-0.55426">
        <ele>52.05</ele>
        <time>2012-04-01T11:15:44Z</time>
      </trkpt>
      <trkpt lat="47.56154" lon="-0.55439">
        <ele>51.09</ele>
        <time>2012-04-01T11:15:46Z</time>
      </trkpt>
      <trkpt lat="47.56162" lon="-0.55459">
        <ele>51.57</ele>
        <time>2012-04-01T11:15:49Z</time>
      </trkpt>
      <trkpt lat="47.56181" lon="-0.55498">
        <ele>52.05</ele>
        <time>2012-04-01T11:15:55Z</time>
      </trkpt>
      <trkpt lat="47.56219" lon="-0.55553">
        <ele>52.05</ele>
        <time>2012-04-01T11:16:05Z</time>
      </trkpt>
      <trkpt lat="47.56245" lon="-0.55588">
        <ele>50.61</ele>
        <time>2012-04-01T11:16:11Z</time>
      </trkpt>
      <trkpt lat="47.56276" lon="-0.55615">
        <ele>50.61</ele>
        <time>2012-04-01T11:16:17Z</time>
      </trkpt>
      <trkpt lat="47.56292" lon="-0.5563">
        <ele>49.16</ele>
        <time>2012-04-01T11:16:20Z</time>
      </trkpt>
      <trkpt lat="47.56313" lon="-0.55658">
        <ele>48.2</ele>
        <time>2012-04-01T11:16:24Z</time>
      </trkpt>
      <trkpt lat="47.56344" lon="-0.55691">
        <ele>44.84</ele>
        <time>2012-04-01T11:16:30Z</time>
      </trkpt>
      <trkpt lat="47.5635" lon="-0.55689">
        <ele>45.32</ele>
        <time>2012-04-01T11:16:31Z</time>
      </trkpt>
      <trkpt lat="47.5641" lon="-0.55662">
        <ele>44.84</ele>
        <time>2012-04-01T11:16:41Z</time>
      </trkpt>
      <trkpt lat="47.56433" lon="-0.55653">
        <ele>45.32</ele>
        <time>2012-04-01T11:16:45Z</time>
      </trkpt>
      <trkpt lat="47.56476" lon="-0.55628">
        <ele>46.76</ele>
        <time>2012-04-01T11:16:54Z</time>
      </trkpt>
      <trkpt lat="47.5649" lon="-0.55618">
        <ele>47.24</ele>
        <time>2012-04-01T11:16:57Z</time>
      </trkpt>
      <trkpt lat="47.56509" lon="-0.55609">
        <ele>49.16</ele>
        <time>2012-04-01T11:17:01Z</time>
      </trkpt>
      <trkpt lat="47.56542" lon="-0.55588">
        <ele>51.09</ele>
        <time>2012-04-01T11:17:09Z</time>
      </trkpt>
      <trkpt lat="47.56555" lon="-0.55579">
        <ele>51.57</ele>
        <time>2012-04-01T11:17:13Z</time>
      </trkpt>
      <trkpt lat="47.56552" lon="-0.55553">
        <ele>51.57</ele>
        <time>2012-04-01T11:17:18Z</time>
      </trkpt>
      <trkpt lat="47.56541" lon="-0.55509">
        <ele>52.05</ele>
        <time>2012-04-01T11:17:25Z</time>
      </trkpt>
      <trkpt lat="47.5653" lon="-0.55459">
        <ele>52.53</ele>
        <time>2012-04-01T11:17:32Z</time>
      </trkpt>
      <trkpt lat="47.56518" lon="-0.55407">
        <ele>52.05</ele>
        <time>2012-04-01T11:17:39Z</time>
      </trkpt>
      <trkpt lat="47.56505" lon="-0.55341">
        <ele>52.05</ele>
        <time>2012-04-01T11:17:48Z</time>
      </trkpt>
      <trkpt lat="47.56492" lon="-0.55291">
        <ele>52.05</ele>
        <time>2012-04-01T11:17:55Z</time>
      </trkpt>
      <trkpt lat="47.56474" lon="-0.55217">
        <ele>52.53</ele>
        <time>2012-04-01T11:18:05Z</time>
      </trkpt>
      <trkpt lat="47.56454" lon="-0.55155">
        <ele>53.01</ele>
        <time>2012-04-01T11:18:13Z</time>
      </trkpt>
      <trkpt lat="47.56452" lon="-0.55148">
        <ele>53.97</ele>
        <time>2012-04-01T11:18:14Z</time>
      </trkpt>
      <trkpt lat="47.56447" lon="-0.55134">
        <ele>53.01</ele>
        <time>2012-04-01T11:18:16Z</time>
      </trkpt>
      <trkpt lat="47.56443" lon="-0.55119">
        <ele>51.57</ele>
        <time>2012-04-01T11:18:18Z</time>
      </trkpt>
      <trkpt lat="47.56438" lon="-0.55093">
        <ele>50.61</ele>
        <time>2012-04-01T11:18:21Z</time>
      </trkpt>
      <trkpt lat="47.56424" lon="-0.5502">
        <ele>48.68</ele>
        <time>2012-04-01T11:18:29Z</time>
      </trkpt>
      <trkpt lat="47.56418" lon="-0.54981">
        <ele>47.72</ele>
        <time>2012-04-01T11:18:33Z</time>
      </trkpt>
      <trkpt lat="47.56415" lon="-0.54949">
        <ele>46.76</ele>
        <time>2012-04-01T11:18:36Z</time>
      </trkpt>
      <trkpt lat="47.56415" lon="-0.54914">
        <ele>44.36</ele>
        <time>2012-04-01T11:18:39Z</time>
      </trkpt>
      <trkpt lat="47.56411" lon="-0.54885">
        <ele>41.95</ele>
        <time>2012-04-01T11:18:42Z</time>
      </trkpt>
      <trkpt lat="47.5641" lon="-0.54862">
        <ele>40.03</ele>
        <time>2012-04-01T11:18:45Z</time>
      </trkpt>
      <trkpt lat="47.56416" lon="-0.54845">
        <ele>41.47</ele>
        <time>2012-04-01T11:18:48Z</time>
      </trkpt>
      <trkpt lat="47.56435" lon="-0.54839">
        <ele>39.55</ele>
        <time>2012-04-01T11:18:52Z</time>
      </trkpt>
      <trkpt lat="47.56446" lon="-0.54842">
        <ele>40.03</ele>
        <time>2012-04-01T11:18:54Z</time>
      </trkpt>
      <trkpt lat="47.56456" lon="-0.54848">
        <ele>40.51</ele>
        <time>2012-04-01T11:18:56Z</time>
      </trkpt>
      <trkpt lat="47.5648" lon="-0.54851">
        <ele>39.55</ele>
        <time>2012-04-01T11:19:00Z</time>
      </trkpt>
      <trkpt lat="47.5651" lon="-0.54837">
        <ele>34.74</ele>
        <time>2012-04-01T11:19:05Z</time>
      </trkpt>
      <trkpt lat="47.56537" lon="-0.54826">
        <ele>30.9</ele>
        <time>2012-04-01T11:19:10Z</time>
      </trkpt>
      <trkpt lat="47.56552" lon="-0.54823">
        <ele>30.9</ele>
        <time>2012-04-01T11:19:13Z</time>
      </trkpt>
      <trkpt lat="47.56576" lon="-0.54829">
        <ele>30.42</ele>
        <time>2012-04-01T11:19:17Z</time>
      </trkpt>
      <trkpt lat="47.56588" lon="-0.54838">
        <ele>30.42</ele>
        <time>2012-04-01T11:19:19Z</time>
      </trkpt>
      <trkpt lat="47.56612" lon="-0.54864">
        <ele>30.9</ele>
        <time>2012-04-01T11:19:24Z</time>
      </trkpt>
      <trkpt lat="47.56638" lon="-0.54871">
        <ele>32.82</ele>
        <time>2012-04-01T11:19:30Z</time>
      </trkpt>
      <trkpt lat="47.56646" lon="-0.54856">
        <ele>31.38</ele>
        <time>2012-04-01T11:19:33Z</time>
      </trkpt>
      <trkpt lat="47.56654" lon="-0.54813">
        <ele>29.46</ele>
        <time>2012-04-01T11:19:38Z</time>
      </trkpt>
      <trkpt lat="47.56657" lon="-0.54794">
        <ele>28.5</ele>
        <time>2012-04-01T11:19:40Z</time>
      </trkpt>
      <trkpt lat="47.56657" lon="-0.54748">
        <ele>26.09</ele>
        <time>2012-04-01T11:19:44Z</time>
      </trkpt>
      <trkpt lat="47.56657" lon="-0.54711">
        <ele>24.65</ele>
        <time>2012-04-01T11:19:47Z</time>
      </trkpt>
      <trkpt lat="47.56657" lon="-0.54685">
        <ele>23.69</ele>
        <time>2012-04-01T11:19:49Z</time>
      </trkpt>
      <trkpt lat="47.56664" lon="-0.54625">
        <ele>22.25</ele>
        <time>2012-04-01T11:19:54Z</time>
      </trkpt>
      <trkpt lat="47.56665" lon="-0.54585">
        <ele>20.32</ele>
        <time>2012-04-01T11:19:58Z</time>
      </trkpt>
      <trkpt lat="47.5666" lon="-0.54577">
        <ele>18.88</ele>
        <time>2012-04-01T11:20:00Z</time>
      </trkpt>
      <trkpt lat="47.5666" lon="-0.54577">
        <ele>18.4</ele>
        <time>2012-04-01T11:20:06Z</time>
      </trkpt>
      <trkpt lat="47.5666" lon="-0.54577">
        <ele>18.4</ele>
        <time>2012-04-01T11:20:19Z</time>
      </trkpt>
      <trkpt lat="47.5666" lon="-0.54577">
        <ele>17.92</ele>
        <time>2012-04-01T11:20:33Z</time>
      </trkpt>
      <trkpt lat="47.5666" lon="-0.54577">
        <ele>17.92</ele>
        <time>2012-04-01T11:20:50Z</time>
      </trkpt>
      <trkpt lat="47.5666" lon="-0.54577">
        <ele>17.44</ele>
        <time>2012-04-01T11:21:06Z</time>
      </trkpt>
      <trkpt lat="47.5666" lon="-0.54576">
        <ele>17.92</ele>
        <time>2012-04-01T11:21:21Z</time>
      </trkpt>
      <trkpt lat="47.5666" lon="-0.54576">
        <ele>17.44</ele>
        <time>2012-04-01T11:21:34Z</time>
      </trkpt>
      <trkpt lat="47.5666" lon="-0.54576">
        <ele>16.96</ele>
        <time>2012-04-01T11:21:44Z</time>
      </trkpt>
      <trkpt lat="47.56656" lon="-0.54573">
        <ele>17.92</ele>
        <time>2012-04-01T11:21:55Z</time>
      </trkpt>
      <trkpt lat="47.56643" lon="-0.54568">
        <ele>16.96</ele>
        <time>2012-04-01T11:21:59Z</time>
      </trkpt>
      <trkpt lat="47.56609" lon="-0.54556">
        <ele>17.44</ele>
        <time>2012-04-01T11:22:06Z</time>
      </trkpt>
      <trkpt lat="47.56563" lon="-0.54548">
        <ele>17.44</ele>
        <time>2012-04-01T11:22:14Z</time>
      </trkpt>
      <trkpt lat="47.56514" lon="-0.54552">
        <ele>16.48</ele>
        <time>2012-04-01T11:22:22Z</time>
      </trkpt>
      <trkpt lat="47.56466" lon="-0.54562">
        <ele>16.96</ele>
        <time>2012-04-01T11:22:30Z</time>
      </trkpt>
      <trkpt lat="47.56438" lon="-0.54566">
        <ele>17.44</ele>
        <time>2012-04-01T11:22:35Z</time>
      </trkpt>
      <trkpt lat="47.56422" lon="-0.54556">
        <ele>17.44</ele>
        <time>2012-04-01T11:22:39Z</time>
      </trkpt>
      <trkpt lat="47.5642" lon="-0.5454">
        <ele>17.44</ele>
        <time>2012-04-01T11:22:41Z</time>
      </trkpt>
      <trkpt lat="47.56413" lon="-0.54462">
        <ele>15.52</ele>
        <time>2012-04-01T11:22:49Z</time>
      </trkpt>
      <trkpt lat="47.56403" lon="-0.54395">
        <ele>15.04</ele>
        <time>2012-04-01T11:22:56Z</time>
      </trkpt>
      <trkpt lat="47.56413" lon="-0.54366">
        <ele>13.6</ele>
        <time>2012-04-01T11:23:00Z</time>
      </trkpt>
      <trkpt lat="47.56424" lon="-0.54361">
        <ele>13.6</ele>
        <time>2012-04-01T11:23:02Z</time>
      </trkpt>
      <trkpt lat="47.56482" lon="-0.5434">
        <ele>14.08</ele>
        <time>2012-04-01T11:23:12Z</time>
      </trkpt>
      <trkpt lat="47.56529" lon="-0.5432">
        <ele>14.56</ele>
        <time>2012-04-01T11:23:20Z</time>
      </trkpt>
      <trkpt lat="47.56558" lon="-0.5431">
        <ele>14.08</ele>
        <time>2012-04-01T11:23:25Z</time>
      </trkpt>
      <trkpt lat="47.56603" lon="-0.54297">
        <ele>14.56</ele>
        <time>2012-04-01T11:23:33Z</time>
      </trkpt>
      <trkpt lat="47.56652" lon="-0.54281">
        <ele>14.56</ele>
        <time>2012-04-01T11:23:42Z</time>
      </trkpt>
      <trkpt lat="47.56676" lon="-0.54261">
        <ele>14.56</ele>
        <time>2012-04-01T11:23:47Z</time>
      </trkpt>
      <trkpt lat="47.56695" lon="-0.5423">
        <ele>14.56</ele>
        <time>2012-04-01T11:23:52Z</time>
      </trkpt>
      <trkpt lat="47.56717" lon="-0.54204">
        <ele>14.56</ele>
        <time>2012-04-01T11:23:57Z</time>
      </trkpt>
      <trkpt lat="47.56749" lon="-0.54185">
        <ele>14.08</ele>
        <time>2012-04-01T11:24:04Z</time>
      </trkpt>
      <trkpt lat="47.56781" lon="-0.54165">
        <ele>14.56</ele>
        <time>2012-04-01T11:24:10Z</time>
      </trkpt>
      <trkpt lat="47.56791" lon="-0.54158">
        <ele>15.04</ele>
        <time>2012-04-01T11:24:12Z</time>
      </trkpt>
      <trkpt lat="47.56835" lon="-0.54134">
        <ele>15.04</ele>
        <time>2012-04-01T11:24:20Z</time>
      </trkpt>
      <trkpt lat="47.56851" lon="-0.54126">
        <ele>15.04</ele>
        <time>2012-04-01T11:24:23Z</time>
      </trkpt>
      <trkpt lat="47.56902" lon="-0.54102">
        <ele>15.04</ele>
        <time>2012-04-01T11:24:32Z</time>
      </trkpt>
      <trkpt lat="47.56932" lon="-0.54088">
        <ele>14.56</ele>
        <time>2012-04-01T11:24:37Z</time>
      </trkpt>
      <trkpt lat="47.5696" lon="-0.54074">
        <ele>15.04</ele>
        <time>2012-04-01T11:24:42Z</time>
      </trkpt>
      <trkpt lat="47.56984" lon="-0.54052">
        <ele>15.04</ele>
        <time>2012-04-01T11:24:47Z</time>
      </trkpt>
      <trkpt lat="47.57011" lon="-0.54012">
        <ele>15.04</ele>
        <time>2012-04-01T11:24:54Z</time>
      </trkpt>
      <trkpt lat="47.57023" lon="-0.53994">
        <ele>15.04</ele>
        <time>2012-04-01T11:24:57Z</time>
      </trkpt>
      <trkpt lat="47.57031" lon="-0.53966">
        <ele>16</ele>
        <time>2012-04-01T11:25:01Z</time>
      </trkpt>
      <trkpt lat="47.57037" lon="-0.53937">
        <ele>15.04</ele>
        <time>2012-04-01T11:25:05Z</time>
      </trkpt>
      <trkpt lat="47.57061" lon="-0.53916">
        <ele>14.56</ele>
        <time>2012-04-01T11:25:10Z</time>
      </trkpt>
      <trkpt lat="47.57108" lon="-0.53886">
        <ele>14.08</ele>
        <time>2012-04-01T11:25:19Z</time>
      </trkpt>
      <trkpt lat="47.5715" lon="-0.5386">
        <ele>14.56</ele>
        <time>2012-04-01T11:25:27Z</time>
      </trkpt>
      <trkpt lat="47.57189" lon="-0.53845">
        <ele>14.56</ele>
        <time>2012-04-01T11:25:34Z</time>
      </trkpt>
      <trkpt lat="47.57226" lon="-0.53839">
        <ele>14.56</ele>
        <time>2012-04-01T11:25:41Z</time>
      </trkpt>
      <trkpt lat="47.57242" lon="-0.53838">
        <ele>15.04</ele>
        <time>2012-04-01T11:25:44Z</time>
      </trkpt>
      <trkpt lat="47.57264" lon="-0.53819">
        <ele>16.48</ele>
        <time>2012-04-01T11:25:50Z</time>
      </trkpt>
      <trkpt lat="47.57264" lon="-0.53796">
        <ele>16.48</ele>
        <time>2012-04-01T11:25:54Z</time>
      </trkpt>
      <trkpt lat="47.57262" lon="-0.5374">
        <ele>16.48</ele>
        <time>2012-04-01T11:26:02Z</time>
      </trkpt>
      <trkpt lat="47.5727" lon="-0.53672">
        <ele>16.48</ele>
        <time>2012-04-01T11:26:11Z</time>
      </trkpt>
      <trkpt lat="47.57282" lon="-0.53603">
        <ele>16.48</ele>
        <time>2012-04-01T11:26:20Z</time>
      </trkpt>
      <trkpt lat="47.57289" lon="-0.53563">
        <ele>15.52</ele>
        <time>2012-04-01T11:26:25Z</time>
      </trkpt>
      <trkpt lat="47.57291" lon="-0.5353">
        <ele>16</ele>
        <time>2012-04-01T11:26:29Z</time>
      </trkpt>
      <trkpt lat="47.57305" lon="-0.53496">
        <ele>15.52</ele>
        <time>2012-04-01T11:26:34Z</time>
      </trkpt>
      <trkpt lat="47.57345" lon="-0.53458">
        <ele>14.56</ele>
        <time>2012-04-01T11:26:43Z</time>
      </trkpt>
      <trkpt lat="47.57387" lon="-0.53431">
        <ele>14.56</ele>
        <time>2012-04-01T11:26:52Z</time>
      </trkpt>
      <trkpt lat="47.5743" lon="-0.53415">
        <ele>14.56</ele>
        <time>2012-04-01T11:27:01Z</time>
      </trkpt>
      <trkpt lat="47.57439" lon="-0.53413">
        <ele>14.08</ele>
        <time>2012-04-01T11:27:03Z</time>
      </trkpt>
      <trkpt lat="47.57487" lon="-0.534">
        <ele>14.56</ele>
        <time>2012-04-01T11:27:13Z</time>
      </trkpt>
      <trkpt lat="47.57503" lon="-0.53398">
        <ele>15.04</ele>
        <time>2012-04-01T11:27:16Z</time>
      </trkpt>
      <trkpt lat="47.5752" lon="-0.53387">
        <ele>15.04</ele>
        <time>2012-04-01T11:27:21Z</time>
      </trkpt>
      <trkpt lat="47.57521" lon="-0.53376">
        <ele>14.56</ele>
        <time>2012-04-01T11:27:23Z</time>
      </trkpt>
      <trkpt lat="47.57521" lon="-0.53363">
        <ele>13.6</ele>
        <time>2012-04-01T11:27:25Z</time>
      </trkpt>
      <trkpt lat="47.57523" lon="-0.53309">
        <ele>14.08</ele>
        <time>2012-04-01T11:27:32Z</time>
      </trkpt>
      <trkpt lat="47.57541" lon="-0.53242">
        <ele>15.04</ele>
        <time>2012-04-01T11:27:40Z</time>
      </trkpt>
      <trkpt lat="47.57556" lon="-0.5317">
        <ele>14.56</ele>
        <time>2012-04-01T11:27:49Z</time>
      </trkpt>
      <trkpt lat="47.57549" lon="-0.53114">
        <ele>14.08</ele>
        <time>2012-04-01T11:27:56Z</time>
      </trkpt>
      <trkpt lat="47.5752" lon="-0.53057">
        <ele>14.56</ele>
        <time>2012-04-01T11:28:05Z</time>
      </trkpt>
      <trkpt lat="47.5751" lon="-0.53038">
        <ele>14.56</ele>
        <time>2012-04-01T11:28:08Z</time>
      </trkpt>
      <trkpt lat="47.57479" lon="-0.52985">
        <ele>14.08</ele>
        <time>2012-04-01T11:28:17Z</time>
      </trkpt>
      <trkpt lat="47.57457" lon="-0.52948">
        <ele>14.56</ele>
        <time>2012-04-01T11:28:23Z</time>
      </trkpt>
      <trkpt lat="47.57423" lon="-0.52894">
        <ele>14.08</ele>
        <time>2012-04-01T11:28:32Z</time>
      </trkpt>
      <trkpt lat="47.5739" lon="-0.5284">
        <ele>14.08</ele>
        <time>2012-04-01T11:28:41Z</time>
      </trkpt>
      <trkpt lat="47.57346" lon="-0.52768">
        <ele>14.08</ele>
        <time>2012-04-01T11:28:52Z</time>
      </trkpt>
      <trkpt lat="47.57314" lon="-0.52716">
        <ele>15.04</ele>
        <time>2012-04-01T11:29:00Z</time>
      </trkpt>
      <trkpt lat="47.57287" lon="-0.52671">
        <ele>13.6</ele>
        <time>2012-04-01T11:29:07Z</time>
      </trkpt>
      <trkpt lat="47.57258" lon="-0.52623">
        <ele>14.56</ele>
        <time>2012-04-01T11:29:15Z</time>
      </trkpt>
      <trkpt lat="47.57224" lon="-0.52569">
        <ele>14.08</ele>
        <time>2012-04-01T11:29:24Z</time>
      </trkpt>
      <trkpt lat="47.57201" lon="-0.52533">
        <ele>15.04</ele>
        <time>2012-04-01T11:29:30Z</time>
      </trkpt>
      <trkpt lat="47.57176" lon="-0.5249">
        <ele>14.08</ele>
        <time>2012-04-01T11:29:37Z</time>
      </trkpt>
      <trkpt lat="47.57143" lon="-0.52435">
        <ele>14.56</ele>
        <time>2012-04-01T11:29:46Z</time>
      </trkpt>
      <trkpt lat="47.57114" lon="-0.52387">
        <ele>14.56</ele>
        <time>2012-04-01T11:29:54Z</time>
      </trkpt>
      <trkpt lat="47.57079" lon="-0.5233">
        <ele>13.12</ele>
        <time>2012-04-01T11:30:03Z</time>
      </trkpt>
      <trkpt lat="47.57046" lon="-0.52276">
        <ele>13.6</ele>
        <time>2012-04-01T11:30:11Z</time>
      </trkpt>
      <trkpt lat="47.57008" lon="-0.52214">
        <ele>14.08</ele>
        <time>2012-04-01T11:30:20Z</time>
      </trkpt>
      <trkpt lat="47.56975" lon="-0.52159">
        <ele>14.08</ele>
        <time>2012-04-01T11:30:28Z</time>
      </trkpt>
      <trkpt lat="47.56938" lon="-0.52098">
        <ele>14.08</ele>
        <time>2012-04-01T11:30:37Z</time>
      </trkpt>
      <trkpt lat="47.56904" lon="-0.52044">
        <ele>14.08</ele>
        <time>2012-04-01T11:30:45Z</time>
      </trkpt>
      <trkpt lat="47.56863" lon="-0.51977">
        <ele>14.08</ele>
        <time>2012-04-01T11:30:55Z</time>
      </trkpt>
      <trkpt lat="47.56834" lon="-0.51928">
        <ele>14.08</ele>
        <time>2012-04-01T11:31:02Z</time>
      </trkpt>
      <trkpt lat="47.56799" lon="-0.51877">
        <ele>15.52</ele>
        <time>2012-04-01T11:31:10Z</time>
      </trkpt>
      <trkpt lat="47.56769" lon="-0.51831">
        <ele>14.56</ele>
        <time>2012-04-01T11:31:17Z</time>
      </trkpt>
      <trkpt lat="47.5673" lon="-0.51774">
        <ele>14.08</ele>
        <time>2012-04-01T11:31:26Z</time>
      </trkpt>
      <trkpt lat="47.56697" lon="-0.51725">
        <ele>14.56</ele>
        <time>2012-04-01T11:31:34Z</time>
      </trkpt>
      <trkpt lat="47.56662" lon="-0.5167">
        <ele>14.08</ele>
        <time>2012-04-01T11:31:43Z</time>
      </trkpt>
      <trkpt lat="47.56658" lon="-0.51664">
        <ele>14.56</ele>
        <time>2012-04-01T11:31:44Z</time>
      </trkpt>
      <trkpt lat="47.56634" lon="-0.51627">
        <ele>15.04</ele>
        <time>2012-04-01T11:31:50Z</time>
      </trkpt>
      <trkpt lat="47.5661" lon="-0.51576">
        <ele>14.56</ele>
        <time>2012-04-01T11:31:57Z</time>
      </trkpt>
      <trkpt lat="47.56598" lon="-0.51509">
        <ele>14.56</ele>
        <time>2012-04-01T11:32:05Z</time>
      </trkpt>
      <trkpt lat="47.56589" lon="-0.51442">
        <ele>15.04</ele>
        <time>2012-04-01T11:32:13Z</time>
      </trkpt>
      <trkpt lat="47.5658" lon="-0.51376">
        <ele>14.56</ele>
        <time>2012-04-01T11:32:21Z</time>
      </trkpt>
      <trkpt lat="47.56572" lon="-0.51309">
        <ele>14.08</ele>
        <time>2012-04-01T11:32:29Z</time>
      </trkpt>
      <trkpt lat="47.56573" lon="-0.51292">
        <ele>15.04</ele>
        <time>2012-04-01T11:32:31Z</time>
      </trkpt>
      <trkpt lat="47.56586" lon="-0.51256">
        <ele>14.56</ele>
        <time>2012-04-01T11:32:36Z</time>
      </trkpt>
      <trkpt lat="47.56611" lon="-0.51237">
        <ele>13.6</ele>
        <time>2012-04-01T11:32:41Z</time>
      </trkpt>
      <trkpt lat="47.56657" lon="-0.51234">
        <ele>13.6</ele>
        <time>2012-04-01T11:32:49Z</time>
      </trkpt>
      <trkpt lat="47.56709" lon="-0.51232">
        <ele>14.08</ele>
        <time>2012-04-01T11:32:58Z</time>
      </trkpt>
      <trkpt lat="47.56755" lon="-0.5123">
        <ele>14.08</ele>
        <time>2012-04-01T11:33:06Z</time>
      </trkpt>
      <trkpt lat="47.56803" lon="-0.51227">
        <ele>13.6</ele>
        <time>2012-04-01T11:33:15Z</time>
      </trkpt>
      <trkpt lat="47.56862" lon="-0.51225">
        <ele>14.08</ele>
        <time>2012-04-01T11:33:26Z</time>
      </trkpt>
      <trkpt lat="47.56878" lon="-0.51224">
        <ele>13.6</ele>
        <time>2012-04-01T11:33:29Z</time>
      </trkpt>
      <trkpt lat="47.56889" lon="-0.51221">
        <ele>14.08</ele>
        <time>2012-04-01T11:33:31Z</time>
      </trkpt>
      <trkpt lat="47.56923" lon="-0.51198">
        <ele>14.08</ele>
        <time>2012-04-01T11:33:38Z</time>
      </trkpt>
      <trkpt lat="47.56944" lon="-0.51164">
        <ele>14.56</ele>
        <time>2012-04-01T11:33:44Z</time>
      </trkpt>
      <trkpt lat="47.5697" lon="-0.51103">
        <ele>14.56</ele>
        <time>2012-04-01T11:33:54Z</time>
      </trkpt>
      <trkpt lat="47.56995" lon="-0.5104">
        <ele>14.56</ele>
        <time>2012-04-01T11:34:05Z</time>
      </trkpt>
      <trkpt lat="47.57011" lon="-0.50995">
        <ele>16</ele>
        <time>2012-04-01T11:34:13Z</time>
      </trkpt>
      <trkpt lat="47.57013" lon="-0.50941">
        <ele>17.92</ele>
        <time>2012-04-01T11:34:22Z</time>
      </trkpt>
      <trkpt lat="47.57003" lon="-0.50899">
        <ele>18.88</ele>
        <time>2012-04-01T11:34:30Z</time>
      </trkpt>
      <trkpt lat="47.56991" lon="-0.50859">
        <ele>18.88</ele>
        <time>2012-04-01T11:34:38Z</time>
      </trkpt>
      <trkpt lat="47.56979" lon="-0.50821">
        <ele>20.81</ele>
        <time>2012-04-01T11:34:46Z</time>
      </trkpt>
      <trkpt lat="47.56969" lon="-0.5079">
        <ele>21.29</ele>
        <time>2012-04-01T11:34:53Z</time>
      </trkpt>
      <trkpt lat="47.56956" lon="-0.50747">
        <ele>21.77</ele>
        <time>2012-04-01T11:35:02Z</time>
      </trkpt>
      <trkpt lat="47.56949" lon="-0.50724">
        <ele>21.29</ele>
        <time>2012-04-01T11:35:06Z</time>
      </trkpt>
      <trkpt lat="47.56935" lon="-0.50677">
        <ele>19.36</ele>
        <time>2012-04-01T11:35:13Z</time>
      </trkpt>
      <trkpt lat="47.56923" lon="-0.50611">
        <ele>18.4</ele>
        <time>2012-04-01T11:35:21Z</time>
      </trkpt>
      <trkpt lat="47.56904" lon="-0.50592">
        <ele>17.92</ele>
        <time>2012-04-01T11:35:25Z</time>
      </trkpt>
      <trkpt lat="47.56892" lon="-0.50593">
        <ele>17.44</ele>
        <time>2012-04-01T11:35:27Z</time>
      </trkpt>
      <trkpt lat="47.5686" lon="-0.50592">
        <ele>17.44</ele>
        <time>2012-04-01T11:35:33Z</time>
      </trkpt>
      <trkpt lat="47.56821" lon="-0.50584">
        <ele>17.92</ele>
        <time>2012-04-01T11:35:41Z</time>
      </trkpt>
      <trkpt lat="47.56781" lon="-0.5057">
        <ele>17.44</ele>
        <time>2012-04-01T11:35:49Z</time>
      </trkpt>
      <trkpt lat="47.56767" lon="-0.5056">
        <ele>17.92</ele>
        <time>2012-04-01T11:35:52Z</time>
      </trkpt>
      <trkpt lat="47.56729" lon="-0.50538">
        <ele>16.96</ele>
        <time>2012-04-01T11:36:00Z</time>
      </trkpt>
      <trkpt lat="47.56715" lon="-0.50516">
        <ele>17.92</ele>
        <time>2012-04-01T11:36:05Z</time>
      </trkpt>
      <trkpt lat="47.56721" lon="-0.50496">
        <ele>17.92</ele>
        <time>2012-04-01T11:36:08Z</time>
      </trkpt>
      <trkpt lat="47.56729" lon="-0.50475">
        <ele>16.96</ele>
        <time>2012-04-01T11:36:11Z</time>
      </trkpt>
      <trkpt lat="47.56757" lon="-0.50407">
        <ele>17.44</ele>
        <time>2012-04-01T11:36:21Z</time>
      </trkpt>
      <trkpt lat="47.56782" lon="-0.50359">
        <ele>17.44</ele>
        <time>2012-04-01T11:36:29Z</time>
      </trkpt>
      <trkpt lat="47.56803" lon="-0.50325">
        <ele>16.96</ele>
        <time>2012-04-01T11:36:35Z</time>
      </trkpt>
      <trkpt lat="47.56822" lon="-0.50301">
        <ele>17.92</ele>
        <time>2012-04-01T11:36:40Z</time>
      </trkpt>
      <trkpt lat="47.5684" lon="-0.50294">
        <ele>17.44</ele>
        <time>2012-04-01T11:36:44Z</time>
      </trkpt>
      <trkpt lat="47.56849" lon="-0.50295">
        <ele>17.92</ele>
        <time>2012-04-01T11:36:46Z</time>
      </trkpt>
      <trkpt lat="47.56866" lon="-0.50301">
        <ele>18.88</ele>
        <time>2012-04-01T11:36:50Z</time>
      </trkpt>
      <trkpt lat="47.56894" lon="-0.50324">
        <ele>20.32</ele>
        <time>2012-04-01T11:36:59Z</time>
      </trkpt>
      <trkpt lat="47.56919" lon="-0.50349">
        <ele>23.21</ele>
        <time>2012-04-01T11:37:09Z</time>
      </trkpt>
      <trkpt lat="47.56932" lon="-0.50359">
        <ele>25.13</ele>
        <time>2012-04-01T11:37:15Z</time>
      </trkpt>
      <trkpt lat="47.56945" lon="-0.50359">
        <ele>26.09</ele>
        <time>2012-04-01T11:37:21Z</time>
      </trkpt>
      <trkpt lat="47.56957" lon="-0.5035">
        <ele>28.5</ele>
        <time>2012-04-01T11:37:27Z</time>
      </trkpt>
      <trkpt lat="47.56969" lon="-0.50329">
        <ele>28.98</ele>
        <time>2012-04-01T11:37:36Z</time>
      </trkpt>
      <trkpt lat="47.56983" lon="-0.50302">
        <ele>30.9</ele>
        <time>2012-04-01T11:37:46Z</time>
      </trkpt>
      <trkpt lat="47.56997" lon="-0.50279">
        <ele>30.9</ele>
        <time>2012-04-01T11:37:56Z</time>
      </trkpt>
      <trkpt lat="47.56999" lon="-0.50273">
        <ele>31.38</ele>
        <time>2012-04-01T11:38:00Z</time>
      </trkpt>
      <trkpt lat="47.56999" lon="-0.5027">
        <ele>31.86</ele>
        <time>2012-04-01T11:38:02Z</time>
      </trkpt>
      <trkpt lat="47.56999" lon="-0.50267">
        <ele>30.9</ele>
        <time>2012-04-01T11:38:09Z</time>
      </trkpt>
      <trkpt lat="47.56999" lon="-0.50267">
        <ele>30.42</ele>
        <time>2012-04-01T11:38:20Z</time>
      </trkpt>
      <trkpt lat="47.56999" lon="-0.50262">
        <ele>31.38</ele>
        <time>2012-04-01T11:38:23Z</time>
      </trkpt>
      <trkpt lat="47.57007" lon="-0.50244">
        <ele>30.9</ele>
        <time>2012-04-01T11:38:30Z</time>
      </trkpt>
      <trkpt lat="47.57007" lon="-0.50242">
        <ele>30.9</ele>
        <time>2012-04-01T11:38:34Z</time>
      </trkpt>
      <trkpt lat="47.57004" lon="-0.50236">
        <ele>30.42</ele>
        <time>2012-04-01T11:38:39Z</time>
      </trkpt>
      <trkpt lat="47.57" lon="-0.50232">
        <ele>30.42</ele>
        <time>2012-04-01T11:38:44Z</time>
      </trkpt>
      <trkpt lat="47.57002" lon="-0.50234">
        <ele>29.46</ele>
        <time>2012-04-01T11:38:51Z</time>
      </trkpt>
      <trkpt lat="47.57002" lon="-0.50234">
        <ele>30.42</ele>
        <time>2012-04-01T11:39:04Z</time>
      </trkpt>
    </trkseg>
  </trk>
</gpx>